[[{"header":{"parameterUnit":"m.s-1","parameterCategory":1,"la1":30.6,"la2":28.766,"lo1":-90.7593,"lo2":-88.6598,"dy":0.0162,"dx":0.0183,"nx":116,"ny":114,"refTime":"2023-04-04T06:00:00:Z","depth":0,"parameterNumber":2,"parameterNumberName":"U-component_of_WINDS"},"data":[0.0,0.0,0.0,0.0,0.0,0.0,0.0,0.0,0.0,0.0,0.0,0.0,0.0,0.0,0.0,0.0,0.0,0.0,0.0,0.0,0.0,0.0,0.0,0.0,0.0,0.0,0.0,0.0,0.0,0.0,0.0,0.0,0.0,0.0,0.0,0.0,0.0,0.0,0.0,0.0,0.0,0.0,0.0,0.0,0.0,0.0,0.0,0.0,0.0,0.0,0.0,0.0,0.0,0.0,0.0,0.0,0.0,0.0,0.0,0.0,0.0,0.0,0.0,0.0,0.0,0.0,0.0,0.0,0.0,0.0,0.0,0.0,0.0,0.0,0.0,0.0,0.0,0.0,0.0,0.0,0.0,0.0,0.0,0.0,0.0,0.0,0.0,0.0,0.0,0.0,0.0,0.0,0.0,0.0,0.0,0.0,0.0,0.0,0.0,0.0,0.0,0.0,0.0,0.0,0.0,0.0,0.0,0.0,0.0,0.0,0.0,0.0,0.0,0.0,0.0,0.0,0.0,0.0,0.0,0.0,0.0,0.0,0.0,0.0,0.0,0.0,0.0,0.0,0.0,0.0,0.0,0.0,0.0,0.0,0.0,0.0,0.0,0.0,0.0,0.0,0.0,0.0,0.0,0.0,0.0,0.0,0.0,0.0,0.0,0.0,0.0,0.0,0.0,0.0,0.0,0.0,0.0,0.0,0.0,0.0,0.0,0.0,0.0,0.0,0.0,0.0,0.0,0.0,0.0,0.0,0.0,0.0,0.0,0.0,0.0,0.0,0.0,0.0,0.0,0.0,0.0,0.0,0.0,0.0,0.0,0.0,0.0,0.0,0.0,0.0,0.0,0.0,0.0,0.0,0.0,0.0,0.0,0.0,0.0,0.0,0.0,0.0,0.0,0.0,0.0,0.0,0.0,0.0,0.0,0.0,0.0,0.0,0.0,0.0,0.0,0.0,0.0,0.0,0.0,0.0,0.0,0.0,0.0,0.0,0.0,0.0,0.0,0.0,0.0,0.0,0.0,0.0,0.0,0.0,0.0,0.0,0.0,0.0,0.0,0.0,0.0,0.0,0.0,0.0,0.0,0.0,0.0,0.0,0.0,0.0,0.0,0.0,0.0,0.0,0.0,0.0,0.0,0.0,0.0,0.0,0.0,0.0,0.0,0.0,0.0,0.0,0.0,0.0,0.0,0.0,0.0,0.0,0.0,0.0,0.0,0.0,0.0,0.0,0.0,0.0,0.0,0.0,0.0,0.0,0.0,0.0,0.0,0.0,0.0,0.0,0.0,0.0,0.0,0.0,0.0,0.0,0.0,0.0,0.0,0.0,0.0,0.0,0.0,0.0,0.0,0.0,0.0,0.0,0.0,0.0,0.0,0.0,0.0,0.0,0.0,0.0,0.0,0.0,0.0,0.0,0.0,0.0,0.0,0.0,0.0,0.0,0.0,0.0,0.0,0.0,0.0,0.0,0.0,0.0,0.0,0.0,0.0,0.0,0.0,0.0,0.0,0.0,0.0,0.0,0.0,0.0,0.0,0.0,0.0,0.0,0.0,0.0,0.0,0.0,0.0,0.0,0.0,0.0,0.0,0.0,0.0,0.0,0.0,0.0,0.0,0.0,0.0,0.0,0.0,0.0,0.0,0.0,0.0,0.0,0.0,0.0,0.0,0.0,0.0,0.0,0.0,0.0,0.0,0.0,0.0,0.0,0.0,0.0,0.0,0.0,0.0,0.0,0.0,0.0,0.0,0.0,0.0,0.0,0.0,0.0,0.0,0.0,0.0,0.0,0.0,0.0,0.0,0.0,0.0,0.0,0.0,0.0,0.0,0.0,0.0,0.0,0.0,0.0,0.0,0.0,0.0,0.0,0.0,0.0,0.0,0.0,0.0,0.0,0.0,0.0,0.0,0.0,0.0,0.0,0.0,0.0,0.0,0.0,0.0,0.0,0.0,0.0,0.0,0.0,0.0,0.0,0.0,0.0,0.0,0.0,0.0,0.0,0.0,0.0,0.0,0.0,0.0,0.0,0.0,0.0,0.0,0.0,0.0,0.0,0.0,0.0,0.0,0.0,0.0,0.0,0.0,0.0,0.0,0.0,0.0,0.0,0.0,0.0,0.0,0.0,0.0,0.0,0.0,0.0,0.0,0.0,0.0,0.0,0.0,0.0,0.0,0.0,0.0,0.0,0.0,0.0,0.0,0.0,0.0,0.0,0.0,0.0,0.0,0.0,0.0,0.0,0.0,0.0,0.0,0.0,0.0,0.0,0.0,0.0,0.0,0.0,0.0,0.0,0.0,0.0,0.0,0.0,0.0,0.0,0.0,0.0,0.0,0.0,0.0,0.0,0.0,0.0,0.0,0.0,0.0,0.0,0.0,0.0,0.0,0.0,0.0,0.0,0.0,0.0,0.0,0.0,0.0,0.0,0.0,0.0,0.0,0.0,0.0,0.0,0.0,0.0,0.0,0.0,0.0,0.0,0.0,0.0,0.0,0.0,0.0,0.0,0.0,0.0,0.0,0.0,0.0,0.0,0.0,0.0,0.0,0.0,0.0,0.0,0.0,0.0,0.0,0.0,0.0,0.0,0.0,0.0,0.0,0.0,0.0,0.0,0.0,0.0,0.0,0.0,0.0,0.0,0.0,0.0,0.0,0.0,0.0,0.0,0.0,0.0,0.0,0.0,0.0,0.0,0.0,0.0,0.0,0.0,0.0,0.0,0.0,0.0,0.0,0.0,0.0,0.0,0.0,0.0,0.0,0.0,0.0,0.0,0.0,0.0,0.0,0.0,0.0,0.0,0.0,0.0,0.0,0.0,0.0,0.0,0.0,0.0,0.0,0.0,0.0,0.0,0.0,0.0,0.0,0.0,0.0,0.0,0.0,0.0,0.0,0.0,0.0,0.0,0.0,0.0,0.0,0.0,0.0,0.0,0.0,0.0,0.0,0.0,0.0,0.0,0.0,0.0,0.0,0.0,0.0,0.0,0.0,0.0,0.0,0.0,0.0,0.0,0.0,0.0,0.0,0.0,0.0,0.0,0.0,0.0,0.0,0.0,0.0,0.0,0.0,0.0,0.0,0.0,0.0,0.0,0.0,0.0,0.0,0.0,0.0,0.0,0.0,0.0,0.0,0.0,0.0,0.0,0.0,0.0,0.0,0.0,0.0,0.0,0.0,0.0,0.0,0.0,0.0,0.0,0.0,0.0,0.0,0.0,0.0,0.0,0.0,0.0,0.0,0.0,0.0,0.0,0.0,0.0,0.0,0.0,0.0,0.0,0.0,0.0,0.0,0.0,0.0,0.0,0.0,0.0,0.0,0.0,0.0,0.0,0.0,0.0,0.0,0.0,0.0,0.0,0.0,0.0,0.0,0.0,0.0,0.0,0.0,0.0,0.0,0.0,0.0,0.0,0.0,0.0,0.0,0.0,0.0,0.0,0.0,0.0,0.0,0.0,0.0,0.0,0.0,0.0,0.0,0.0,0.0,0.0,0.0,0.0,0.0,0.0,0.0,0.0,0.0,0.0,0.0,0.0,0.0,0.0,0.0,0.0,0.0,0.0,0.0,0.0,0.0,0.0,0.0,0.0,0.0,0.0,0.0,0.0,0.0,0.0,0.0,0.0,0.0,0.0,0.0,0.0,0.0,0.0,0.0,0.0,0.0,0.0,0.0,0.0,0.0,0.0,0.0,0.0,0.0,0.0,0.0,0.0,0.0,0.0,0.0,0.0,0.0,0.0,0.0,0.0,0.0,0.0,0.0,0.0,0.0,0.0,0.0,0.0,0.0,0.0,0.0,0.0,0.0,0.0,0.0,0.0,0.0,0.0,0.0,0.0,0.0,0.0,0.0,0.0,0.0,0.0,0.0,0.0,0.0,0.0,0.0,0.0,0.0,0.0,0.0,0.0,0.0,0.0,0.0,0.0,0.0,0.0,0.0,0.0,0.0,0.0,0.0,0.0,0.0,0.0,0.0,0.0,0.0,0.0,0.0,0.0,0.0,0.0,0.0,0.0,0.0,0.0,0.0,0.0,0.0,0.0,0.0,0.0,0.0,0.0,0.0,0.0,0.0,0.0,0.0,0.0,0.0,0.0,0.0,0.0,0.0,0.0,0.0,0.0,0.0,0.0,0.0,0.0,0.0,0.0,0.0,0.0,0.0,0.0,0.0,0.0,0.0,0.0,0.0,0.0,0.0,0.0,0.0,0.0,0.0,0.0,0.0,0.0,0.0,0.0,0.0,0.0,0.0,0.0,0.0,0.0,0.0,0.0,0.0,0.0,0.0,0.0,0.0,0.0,0.0,0.0,0.0,0.0,0.0,0.0,0.0,0.0,0.0,0.0,0.0,0.0,0.0,0.0,0.0,0.0,0.0,0.0,0.0,0.0,0.0,0.0,0.0,0.0,0.0,0.0,0.0,0.0,0.0,0.0,0.0,0.0,0.0,0.0,0.0,0.0,0.0,0.0,0.0,0.0,0.0,0.0,0.0,0.0,0.0,0.0,0.0,0.0,0.0,0.0,0.0,0.0,0.0,0.0,0.0,0.0,0.0,0.0,0.0,0.0,0.0,0.0,0.0,0.0,0.0,0.0,0.0,0.0,0.0,0.0,0.0,0.0,0.0,0.0,0.0,0.0,0.0,0.0,0.0,0.0,0.0,0.0,0.0,0.0,0.0,0.0,0.0,0.0,0.0,0.0,0.0,0.0,0.0,0.0,0.0,0.0,0.0,0.0,0.0,0.0,0.0,0.0,0.0,0.0,0.0,0.0,0.0,0.0,0.0,0.0,0.0,0.0,0.0,0.0,0.0,0.0,0.0,0.0,0.0,0.0,0.0,0.0,0.0,0.0,0.0,0.0,0.0,0.0,0.0,0.0,0.0,0.0,0.0,0.0,0.0,0.0,0.0,0.0,0.0,0.0,0.0,0.0,0.0,0.0,0.0,0.0,0.0,0.0,0.0,0.0,0.0,0.0,0.0,0.0,0.0,0.0,0.0,0.0,0.0,0.0,0.0,0.0,0.0,0.0,0.0,0.0,0.0,0.0,0.0,0.0,0.0,0.0,0.0,0.0,0.0,0.0,0.0,0.0,0.0,0.0,0.0,0.0,0.0,0.0,0.0,0.0,0.0,0.0,0.0,0.0,0.0,0.0,0.0,0.0,0.0,0.0,0.0,0.0,0.0,0.0,0.0,0.0,0.0,0.0,0.0,0.0,0.0,0.0,0.0,0.0,0.0,0.0,0.0,0.0,0.0,0.0,0.0,0.0,0.0,0.0,0.0,0.0,0.0,0.0,0.0,0.0,0.0,0.0,0.0,0.0,0.0,0.0,0.0,0.0,0.0,0.0,0.0,0.0,0.0,0.0,0.0,0.0,0.0,0.0,0.0,0.0,0.0,0.0,0.0,0.0,0.0,0.0,0.0,0.0,0.0,0.0,0.0,0.0,0.0,0.0,0.0,0.0,0.0,0.0,0.0,0.0,0.0,0.0,0.0,0.0,0.0,0.0,0.0,0.0,0.0,0.0,0.0,0.0,0.0,0.0,0.0,0.0,0.0,0.0,0.0,0.0,0.0,0.0,0.0,0.0,0.0,0.0,0.0,0.0,0.0,0.0,0.0,0.0,0.0,0.0,0.0,0.0,0.0,0.0,0.0,0.0,0.0,0.0,0.0,0.0,0.0,0.0,0.0,0.0,0.0,0.0,0.0,0.0,0.0,0.0,0.0,0.0,0.0,0.0,0.0,0.0,0.0,0.0,0.0,0.0,0.0,0.0,0.0,0.0,0.0,0.0,0.0,0.0,0.0,0.0,0.0,0.0,0.0,0.0,0.0,0.0,0.0,0.0,0.0,0.0,0.0,0.0,0.0,0.0,0.0,0.0,0.0,0.0,0.0,0.0,0.0,0.0,0.0,0.0,0.0,0.0,0.0,0.0,0.0,0.0,0.0,0.0,0.0,0.0,0.0,0.0,0.0,0.0,0.0,0.0,0.0,0.0,0.0,0.0,0.0,0.0,0.0,0.0,0.0,0.0,0.0,0.0,0.0,0.0,0.0,0.0,0.0,0.0,0.0,0.0,0.0,0.0,0.0,0.0,0.0,0.0,0.0,0.0,0.0,0.0,2.1523,0.0,0.0,0.0,0.0,0.0,0.0,0.0,0.0,0.0,0.0,0.0,0.0,0.0,0.0,0.0,0.0,0.0,0.0,0.0,0.0,0.0,0.0,0.0,0.0,0.0,0.0,0.0,0.0,0.0,0.0,0.0,0.0,0.0,0.0,0.0,0.0,0.0,0.0,0.0,2.2016,2.2777,2.3762,2.4102,2.3269,2.1458,0.0,0.0,0.0,0.0,0.0,0.0,0.0,0.0,0.0,0.0,0.0,0.0,0.0,0.0,0.0,0.0,0.0,0.0,0.0,0.0,0.0,0.0,0.0,0.0,0.0,0.0,0.0,0.0,0.0,0.0,0.0,0.0,0.0,0.0,0.0,0.0,0.0,0.0,0.0,0.0,0.0,0.0,0.0,0.0,0.0,0.0,0.0,0.0,0.0,0.0,0.0,0.0,0.0,0.0,0.0,0.0,0.0,0.0,0.0,0.0,0.0,0.0,0.0,0.0,0.0,0.0,0.0,0.0,0.0,0.0,0.0,2.3036,0.0,0.0,0.0,0.0,0.0,0.0,0.0,0.0,0.0,0.0,0.0,0.0,0.0,0.0,0.0,0.0,0.0,0.0,0.0,0.0,0.0,0.0,0.0,0.0,0.0,0.0,0.0,0.0,0.0,0.0,0.0,0.0,0.0,0.0,0.0,2.0816,2.1048,2.1398,2.3042,2.4708,2.6345,2.6409,2.4699,2.1584,2.2182,0.0,0.0,0.0,0.0,0.0,0.0,0.0,0.0,0.0,0.0,0.0,0.0,0.0,0.0,0.0,0.0,0.0,0.0,0.0,0.0,0.0,0.0,0.0,0.0,0.0,0.0,0.0,0.0,0.0,0.0,0.0,0.0,0.0,0.0,0.0,0.0,0.0,0.0,0.0,0.0,0.0,0.0,0.0,0.0,0.0,0.0,0.0,0.0,0.0,0.0,0.0,0.0,0.0,0.0,0.0,0.0,0.0,0.0,0.0,0.0,0.0,0.0,0.0,2.831,2.8549,2.8561,2.9019,2.907,2.8735,2.8286,2.6447,2.3767,0.0,0.0,0.0,0.0,0.0,0.0,0.0,0.0,0.0,0.0,0.0,0.0,0.0,0.0,0.0,0.0,0.0,0.0,0.0,0.0,0.0,0.0,2.3326,2.3512,2.3976,2.3335,2.3042,0.0,0.0,0.0,0.0,0.0,0.0,2.0611,2.0471,2.1252,2.3011,2.5069,2.6209,2.6483,2.6534,2.6305,2.5803,2.5837,2.4916,2.338,0.0,0.0,0.0,0.0,0.0,0.0,0.0,0.0,0.0,0.0,0.0,0.0,0.0,0.0,0.0,0.0,0.0,0.0,0.0,0.0,0.0,0.0,0.0,0.0,0.0,0.0,0.0,0.0,0.0,0.0,0.0,0.0,0.0,0.0,0.0,0.0,0.0,0.0,0.0,0.0,0.0,2.7446,2.4193,0.0,0.0,0.0,0.0,0.0,0.0,0.0,0.0,0.0,0.0,0.0,0.0,0.0,2.7497,2.676,2.6816,2.6787,2.6738,2.9126,3.0262,3.0349,3.2733,3.3787,3.3746,3.3671,0.0,2.6892,2.4583,0.0,0.0,0.0,0.0,0.0,0.0,0.0,0.0,0.0,0.0,0.0,0.0,0.0,0.0,0.0,0.0,0.0,0.0,0.0,0.0,0.0,2.2979,2.3382,2.4306,2.4724,2.4499,2.35,0.0,0.0,0.0,0.0,1.9615,1.9261,2.0573,2.2964,2.6451,2.7792,2.8853,2.9587,2.9626,2.9674,2.9766,3.0112,2.841,2.5217,2.4153,0.0,0.0,0.0,0.0,0.0,0.0,0.0,0.0,0.0,0.0,0.0,0.0,0.0,0.0,0.0,0.0,0.0,0.0,0.0,0.0,0.0,0.0,0.0,0.0,0.0,0.0,0.0,0.0,0.0,0.0,0.0,0.0,0.0,0.0,0.0,0.0,0.0,0.0,0.0,2.6473,2.681,2.3262,2.514,2.5418,0.0,0.0,0.0,0.0,0.0,0.0,0.0,0.0,0.0,2.6122,2.8282,2.9339,2.911,3.0437,3.1097,3.1122,3.234,3.3059,3.3376,3.4593,3.533,3.5665,3.5665,3.4488,3.236,2.9321,2.7519,2.6628,0.0,0.0,0.0,0.0,2.5894,2.5641,0.0,0.0,0.0,0.0,0.0,0.0,0.0,0.0,0.0,0.0,0.0,0.0,2.2755,2.3294,2.4098,2.5295,2.6088,2.5712,2.3826,2.3576,0.0,0.0,1.8954,1.8823,1.8555,2.1556,2.507,2.9048,3.0242,3.1351,3.2353,3.2492,3.2626,3.2726,3.3187,3.1227,2.7492,2.5827,2.4926,2.4394,0.0,0.0,0.0,0.0,0.0,0.0,0.0,0.0,0.0,0.0,0.0,0.0,0.0,0.0,0.0,0.0,0.0,0.0,0.0,0.0,0.0,0.0,0.0,0.0,0.0,0.0,0.0,0.0,0.0,0.0,0.0,0.0,0.0,0.0,0.0,0.0,0.0,2.662,2.7229,2.287,2.5151,2.587,0.0,0.0,0.0,0.0,0.0,0.0,2.5193,2.7177,2.8217,2.8031,3.0279,3.1547,3.1642,3.3812,3.4916,3.4916,3.5054,3.533,3.5732,3.5732,3.5934,3.6299,3.6299,3.6252,3.5954,3.2973,3.0712,2.9141,2.9112,2.8988,2.8846,2.9346,2.8922,2.8104,0.0,0.0,0.0,0.0,0.0,0.0,0.0,0.0,0.0,0.0,0.0,2.3262,2.293,2.4814,2.6496,2.7464,2.6791,2.5894,2.489,2.3641,2.1876,1.9477,1.8647,1.8648,1.9507,2.3899,2.7253,2.9468,3.1874,3.3149,3.3339,3.3854,3.4101,3.4101,3.3923,3.2545,3.0343,3.0729,2.9815,2.7941,2.565,0.0,0.0,0.0,0.0,0.0,0.0,0.0,0.0,0.0,0.0,0.0,0.0,0.0,0.0,0.0,0.0,0.0,0.0,0.0,0.0,0.0,0.0,0.0,0.0,0.0,0.0,0.0,0.0,0.0,0.0,0.0,0.0,0.0,0.0,0.0,0.0,0.0,0.0,2.4973,2.7343,0.0,0.0,0.0,0.0,2.9323,2.9707,2.8991,2.7069,3.0133,3.1415,3.0276,3.3004,3.449,3.449,3.5132,3.5458,3.547,3.6031,3.6342,3.6344,3.6344,3.6227,3.6015,3.6015,3.5896,3.5447,3.3137,3.2521,3.2706,2.9578,2.8959,2.9722,2.8875,2.8003,2.7383,0.0,0.0,0.0,0.0,0.0,0.0,0.0,0.0,0.0,2.0674,2.2049,2.329,2.3748,2.6375,2.8465,2.9354,2.9909,2.9496,2.7778,2.5672,2.355,2.1355,1.935,1.9753,2.2943,2.6249,2.91,3.143,3.2748,3.3427,3.3471,3.3668,3.3804,3.3895,3.4258,3.4031,3.3278,3.1658,3.0583,2.975,2.7452,2.5896,0.0,0.0,0.0,0.0,0.0,0.0,0.0,0.0,0.0,0.0,0.0,0.0,0.0,0.0,0.0,0.0,0.0,0.0,0.0,0.0,0.0,0.0,0.0,0.0,0.0,0.0,0.0,0.0,0.0,0.0,0.0,0.0,0.0,0.0,0.0,0.0,0.0,2.903,3.0584,0.0,2.7462,2.6714,2.6701,2.7382,2.9215,2.9969,2.9208,3.2115,3.3783,3.3683,3.467,3.5393,3.5791,3.5968,3.6069,3.6069,3.6293,3.6487,3.667,3.667,3.6699,3.6752,3.6752,3.6702,3.6579,3.574,3.5376,3.5201,3.4362,3.3799,3.3466,3.3737,3.2652,3.1188,0.0,0.0,0.0,0.0,0.0,0.0,0.0,0.0,2.1367,2.1053,2.2763,2.4519,2.5821,2.8421,3.0334,3.0952,3.1741,3.1031,2.829,2.6163,2.3774,2.103,1.9896,2.1482,2.6104,2.8142,3.0398,3.2976,3.3591,3.3937,3.4014,3.4177,3.4299,3.4391,3.4796,3.5054,3.5043,3.3186,3.2462,3.2353,3.0056,2.7974,2.6213,0.0,0.0,0.0,0.0,0.0,0.0,0.0,0.0,0.0,0.0,0.0,0.0,0.0,0.0,0.0,0.0,0.0,0.0,0.0,0.0,0.0,0.0,0.0,0.0,0.0,0.0,0.0,0.0,0.0,0.0,0.0,0.0,0.0,0.0,0.0,3.1121,3.1309,3.2381,3.2317,3.0296,2.94,2.9065,2.935,3.1337,3.2409,3.2074,3.4105,3.5441,3.5782,3.5794,3.5994,3.6405,3.6475,3.6527,3.654,3.6619,3.676,3.6924,3.6924,3.6973,3.708,3.708,3.6992,3.6929,3.7124,3.6978,3.671,3.6956,3.6324,3.5353,3.6068,3.4791,3.2804,0.0,0.0,0.0,0.0,0.0,0.0,0.0,2.1118,2.1747,2.2864,2.4872,2.6968,2.8982,3.0875,3.2052,3.2177,3.1954,3.0164,2.6316,2.4889,2.244,1.846,2.0391,2.384,2.8721,2.9562,3.1248,3.3925,3.4453,3.4816,3.5017,3.5465,3.5655,3.5655,3.5523,3.5472,3.5472,3.5488,3.5683,3.5759,3.3502,3.1492,2.9631,0.0,0.0,0.0,0.0,0.0,0.0,0.0,0.0,0.0,0.0,0.0,0.0,0.0,0.0,0.0,0.0,0.0,0.0,0.0,0.0,0.0,0.0,0.0,0.0,0.0,0.0,0.0,0.0,0.0,0.0,0.0,0.0,0.0,2.6633,3.1599,3.4157,3.1711,3.274,3.3699,3.3848,3.3391,3.3895,3.5835,3.6486,3.6431,3.5567,3.6069,3.6417,3.643,3.643,3.6419,3.6431,3.6708,3.6823,3.6811,3.7084,3.7206,3.7205,3.7205,3.7079,3.6839,3.6789,3.6637,3.6418,3.6896,3.7112,3.7078,3.6855,3.6028,3.5019,3.5279,3.3917,3.184,0.0,0.0,0.0,0.0,0.0,0.0,0.0,2.0314,2.1042,2.2908,2.5006,2.708,2.8988,3.0956,3.2122,3.2052,3.1982,3.0625,2.7505,2.5317,2.2944,2.0279,2.4852,2.8059,2.9345,3.1896,3.3592,3.4343,3.4971,3.5317,3.5349,3.4901,3.4681,3.4681,3.4645,3.4627,3.466,3.5246,3.5231,3.4767,3.47,3.3177,3.0954,0.0,0.0,0.0,0.0,0.0,0.0,0.0,0.0,0.0,0.0,0.0,0.0,0.0,0.0,0.0,0.0,0.0,0.0,0.0,0.0,0.0,0.0,0.0,0.0,0.0,0.0,0.0,0.0,0.0,0.0,0.0,0.0,3.2885,3.3405,3.3781,3.4666,3.6429,3.6445,3.6067,3.5449,3.5044,3.5051,3.5593,3.6164,3.64,3.6155,3.6306,3.6593,3.6972,3.6984,3.7052,3.7281,3.7345,3.7295,3.7084,3.7157,3.7301,3.7502,3.7502,3.7555,3.7619,3.6738,3.6327,3.6205,3.5457,3.5186,3.5257,3.6052,3.5645,3.4575,3.4664,3.375,3.2339,0.0,0.0,0.0,0.0,0.0,0.0,0.0,2.001,2.1094,2.3913,2.5368,2.7233,3.0064,3.1366,3.1996,3.1912,3.1084,2.9414,2.6681,2.4146,2.3177,2.4124,2.7486,3.0072,3.1628,3.3515,3.4637,3.4922,3.531,3.5326,3.4986,3.4512,3.4143,3.3854,3.3854,3.3854,3.3871,3.4339,3.4087,3.3478,3.456,3.355,3.1452,3.188,3.1025,2.9593,2.9593,2.9552,2.935,2.8576,0.0,0.0,0.0,0.0,0.0,0.0,0.0,0.0,0.0,0.0,0.0,0.0,0.0,0.0,0.0,0.0,0.0,0.0,0.0,0.0,0.0,0.0,0.0,0.0,3.1927,3.5441,3.7334,3.6515,3.657,3.8847,3.8322,3.752,3.683,3.6573,3.6309,3.5916,3.6205,3.6505,3.6708,3.6733,3.6984,3.7513,3.744,3.7431,3.7593,3.759,3.7512,3.736,3.7478,3.7617,3.7764,3.7764,3.7855,0.0,3.6708,3.6193,3.6095,3.4891,3.4391,0.0,0.0,0.0,0.0,0.0,3.2504,3.1845,0.0,0.0,0.0,0.0,0.0,0.0,0.0,2.0021,2.1518,2.5323,2.5817,2.7382,3.1528,3.187,3.1799,3.177,2.9751,2.736,2.4758,2.2807,2.3842,2.8497,2.9115,3.098,3.4429,3.4499,3.4812,3.5504,3.5326,3.492,3.4312,3.4129,3.3702,3.3073,3.3073,3.3073,3.3073,3.3161,3.2773,3.2218,3.3616,3.3149,3.163,3.1787,3.119,3.0267,3.0267,3.0267,3.0252,3.0177,0.0,0.0,0.0,0.0,0.0,0.0,0.0,0.0,0.0,0.0,0.0,0.0,0.0,0.0,0.0,0.0,0.0,0.0,0.0,0.0,0.0,0.0,0.0,0.0,3.2517,3.5063,3.9096,3.9117,3.8936,3.9424,3.8761,3.8091,3.7687,3.7625,3.7317,3.654,3.6505,3.672,3.7273,0.0,0.0,0.0,0.0,3.7655,3.7692,3.7678,3.7678,3.7664,3.7889,3.8012,3.8012,3.8012,3.8012,3.7921,3.6576,3.5991,3.5893,3.4558,3.4,3.4028,3.4168,3.3515,3.2381,3.1286,3.0889,3.0889,0.0,0.0,0.0,0.0,0.0,0.0,0.0,1.9942,2.1341,2.5428,2.5863,2.7345,3.1403,3.1828,3.1727,3.1568,2.9262,2.6656,2.3991,2.5889,2.7567,2.8573,3.1688,3.374,3.4473,3.4386,3.4723,3.5504,3.4254,3.3868,3.4279,3.3094,3.2452,3.2308,3.2308,3.2308,3.2344,3.295,3.2773,3.2182,3.3055,3.3193,3.3002,3.4231,3.457,3.4352,3.4352,3.4352,3.4277,3.3724,3.3185,3.2602,3.1809,0.0,0.0,0.0,0.0,0.0,0.0,0.0,0.0,0.0,0.0,0.0,0.0,0.0,0.0,0.0,0.0,0.0,0.0,0.0,0.0,3.0081,3.4743,3.8602,3.9207,3.9202,3.8854,3.8246,3.8011,3.7563,3.6756,3.6675,3.677,3.7033,3.7047,3.7286,3.7814,3.7642,0.0,3.8315,3.8048,3.804,3.8235,3.8254,3.8158,3.7909,0.0,0.0,3.8012,3.8012,3.8012,3.7868,3.5679,3.4753,3.4586,3.2446,3.1595,3.1672,3.2657,3.2295,3.1228,3.1005,3.0889,3.0889,0.0,0.0,0.0,0.0,0.0,0.0,0.0,1.952,2.0402,2.3758,2.3528,2.4343,2.7775,2.785,2.7507,2.7126,2.5931,2.4698,2.3528,2.6361,2.8971,3.0972,3.2909,3.4095,3.4389,3.432,3.431,3.4339,3.3575,3.3196,3.3182,3.2438,3.1905,3.1547,3.1547,3.1547,3.1566,3.1951,3.1896,3.1621,3.2358,3.2861,3.3318,3.4474,3.5149,3.5533,3.5878,3.5998,3.5998,3.5953,3.5729,3.528,3.4322,3.3065,3.1617,0.0,0.0,0.0,0.0,0.0,0.0,0.0,0.0,0.0,0.0,0.0,0.0,0.0,0.0,2.9169,0.0,0.0,3.4239,3.2523,3.6294,3.9234,3.8604,3.8102,3.7795,3.7808,3.7384,3.7011,3.6818,3.6796,3.7022,3.755,3.7478,3.7617,3.8154,3.7952,3.806,3.8579,3.8357,3.8246,3.8409,3.8277,3.8145,3.8012,3.8012,3.8012,3.8012,3.8012,3.8012,3.7868,3.5443,3.4391,3.4224,3.1864,3.0791,3.0723,3.1315,3.1267,3.0889,3.0704,3.0635,3.0635,0.0,0.0,0.0,0.0,0.0,0.0,0.0,1.9188,1.9592,2.1897,2.1211,2.1462,2.4034,2.3822,2.3135,2.2219,2.3062,2.3575,2.3407,2.6748,3.0103,3.315,3.363,3.39,3.4078,3.4092,3.3802,3.3196,3.2911,3.2541,3.2092,3.1942,3.1566,3.1005,3.1005,3.1005,3.1005,3.1005,3.1005,3.1048,3.1809,3.261,3.3466,3.4214,3.4999,3.5789,3.6432,3.6434,3.6269,3.7255,3.7327,3.6941,3.6415,3.6013,3.4996,3.1404,3.1451,0.0,0.0,0.0,0.0,0.0,0.0,0.0,0.0,0.0,3.1686,3.3367,3.4054,3.3794,3.1984,3.5128,3.7159,3.4587,3.6842,3.8626,3.7804,3.7179,3.7089,3.7764,3.7091,3.6758,3.7287,3.7374,3.7551,3.8053,3.7879,3.7978,3.8448,3.8228,3.8282,3.8724,3.8461,3.833,3.833,3.8118,3.8012,3.8012,3.8012,3.788,3.7655,3.7655,3.751,3.7177,3.5002,3.3888,3.3466,3.1575,3.0616,3.0304,3.0304,3.046,3.0674,3.0392,3.0304,3.0265,0.0,0.0,0.0,0.0,0.0,0.0,0.0,0.0,1.9835,2.1321,2.1328,2.1805,2.3432,2.3543,2.2594,2.0326,2.4115,2.5799,2.3859,2.9449,3.2744,3.2519,3.428,3.4664,3.3353,3.3318,3.3283,3.3196,3.1896,3.1542,3.2087,3.1431,3.1086,3.1005,3.1005,3.1005,3.1005,3.1005,3.1005,3.1048,3.1809,3.2894,3.4171,3.4911,3.5678,3.6479,3.709,3.6194,3.5086,3.7481,3.7135,3.6086,3.827,3.7778,3.5955,3.3709,0.0,2.9191,2.6872,2.7349,2.8365,2.7869,2.974,3.164,0.0,0.0,3.2389,3.2622,3.2531,3.1925,3.0352,3.2668,3.4253,3.2498,3.5453,3.7807,3.7322,3.7897,3.8243,3.7996,3.746,3.7336,3.7864,3.7914,3.8041,3.8327,3.8326,3.8434,3.8744,3.8507,3.8374,3.8435,3.8171,3.8039,3.8039,3.8012,3.8012,3.8012,3.8012,3.7441,3.6394,3.6394,3.5811,3.4725,3.3459,3.2102,3.084,3.0558,3.0274,2.9951,2.9951,2.999,3.002,2.9981,2.9951,2.9951,0.0,0.0,0.0,0.0,0.0,0.0,0.0,0.0,0.0,1.9534,1.8865,1.8601,1.928,1.8605,1.7541,1.6186,2.1091,2.38,2.2709,2.8692,3.25,3.3022,3.3391,3.3648,3.3839,3.3003,3.2559,3.2559,3.1505,3.1161,3.145,3.1142,3.1005,3.1005,3.1005,3.1005,3.0986,3.0874,3.0892,3.1024,3.1203,3.2453,3.429,3.4985,3.6228,3.7496,3.6697,3.5634,0.0,0.0,3.6593,3.6004,3.8586,3.7791,3.5428,3.299,3.1366,0.0,3.091,3.0805,0.0,0.0,3.3752,3.5325,3.4862,3.5507,3.6407,3.7073,3.7115,3.6683,3.5503,3.6306,3.6754,0.0,3.6975,3.8023,3.7293,3.7814,3.8317,3.8492,3.8166,3.8054,3.8479,3.8342,3.8428,3.8898,3.8588,3.8453,3.8554,3.8303,3.8171,3.8171,3.8065,3.8012,3.8012,3.8012,3.8012,3.7986,3.7296,3.6704,3.6188,3.5482,3.4408,3.3088,3.2416,3.1343,3.0098,3.0098,2.9922,2.9656,2.9656,2.9538,2.94,2.9597,2.9656,2.9656,0.0,0.0,0.0,0.0,0.0,0.0,0.0,0.0,0.0,0.0,1.7219,1.639,1.6187,1.4966,1.415,1.4092,1.8396,2.1452,2.2294,2.7293,3.1108,3.3117,3.2593,3.2701,3.3671,3.2847,3.22,3.1791,3.1468,3.1185,3.1005,3.1005,3.1005,3.1005,3.1005,3.1005,3.0986,3.0849,3.0986,3.131,3.135,3.2716,3.4843,3.5522,3.6514,3.737,3.6049,3.4927,0.0,0.0,3.4459,3.3978,3.6393,3.5854,3.3809,3.1218,2.9832,2.9619,3.1922,0.0,0.0,3.49,3.7166,3.8669,3.7978,3.8846,3.9937,4.0506,4.0831,4.0639,3.9417,3.921,3.881,3.7602,3.7849,3.8003,3.74,3.7766,3.8317,3.8943,3.8713,3.8649,3.8993,3.8713,3.8656,3.9013,3.8657,3.8356,3.8303,3.8118,3.8012,3.8012,3.8012,3.8012,3.8012,3.8012,3.7841,3.7495,3.6623,3.585,3.5179,3.3888,3.2672,3.1554,3.1304,3.0675,2.9774,2.9774,2.9627,2.9361,2.9361,2.9213,2.9044,2.9272,2.9361,2.9331,0.0,0.0,0.0,0.0,0.0,0.0,0.0,0.0,0.0,0.0,0.0,0.0,0.0,1.4682,1.4568,1.5725,1.7361,1.9868,2.3503,2.5926,2.8784,3.2276,3.2409,3.2322,3.2169,3.2826,3.2479,3.103,3.1731,3.1713,3.1005,3.1005,3.1005,3.1005,3.1005,3.1005,3.1005,3.0986,3.1413,3.211,3.2757,3.4323,3.6319,3.6979,3.6473,3.5384,3.5325,3.406,0.0,0.0,3.0066,2.8781,3.0806,3.1383,0.0,2.8734,2.6114,0.0,0.0,0.0,3.2179,3.5296,3.8572,4.0767,3.9842,4.0866,4.1742,4.0795,4.1374,4.1486,3.9541,3.921,3.8585,3.6745,3.6894,3.7326,3.7568,3.8065,3.8625,3.9223,3.8999,3.8921,0.0,3.8973,3.8698,3.8435,3.8409,3.8277,3.8039,3.8012,3.8012,3.8012,3.8012,3.8012,3.8012,3.8012,3.7403,3.6259,3.6216,3.5013,3.2742,3.1218,3.0323,2.9981,2.9951,2.9804,2.9499,2.9499,2.9331,2.9014,2.9014,2.9014,2.9014,2.9014,2.9014,2.9014,0.0,0.0,0.0,0.0,0.0,0.0,0.0,0.0,0.0,0.0,0.0,0.0,0.0,0.0,0.0,0.0,1.7078,1.9253,2.0971,2.4866,2.8131,3.0436,3.1742,3.2819,3.3672,3.338,3.3196,3.3182,3.247,3.1978,3.1731,3.1222,3.093,3.0811,3.093,3.093,3.0779,3.0653,3.1177,3.211,3.2385,3.403,3.6202,3.5318,3.5125,3.4876,0.0,2.9843,2.9076,0.0,0.0,0.0,3.045,0.0,0.0,2.591,0.0,0.0,0.0,0.0,3.5865,3.8721,4.0586,4.1517,4.0513,4.0711,4.0674,3.9077,3.7692,3.6381,3.5055,3.4822,3.4671,3.4226,3.6016,3.7543,3.7824,3.8329,3.8736,3.8947,3.871,0.0,0.0,0.0,0.0,3.8409,3.825,3.8092,3.8012,3.8012,3.8012,3.8012,3.8012,3.7628,3.6812,3.6812,3.6204,3.5002,3.4017,3.2701,3.1131,3.0206,2.9745,2.9627,2.939,2.9252,2.9153,2.9153,2.9103,2.9014,2.9014,2.9014,2.9014,2.9014,2.9014,2.9014,0.0,0.0,0.0,0.0,0.0,0.0,0.0,0.0,0.0,0.0,0.0,0.0,0.0,0.0,0.0,0.0,0.0,1.7726,1.9376,2.2263,2.5036,2.7567,2.8554,2.969,3.1117,3.0658,3.0524,3.0764,3.1141,3.1041,3.0542,3.1052,3.111,3.0811,3.0798,3.0798,3.0798,3.0872,3.101,3.1227,3.1762,3.2643,3.3556,3.29,3.2425,0.0,2.8737,2.6867,2.585,0.0,0.0,0.0,0.0,0.0,0.0,0.0,0.0,0.0,0.0,3.4918,3.7363,4.0216,4.124,4.1395,4.0753,4.0603,4.0159,3.8621,3.6114,3.3911,3.2916,3.1891,3.1163,3.1058,3.2962,3.4882,3.6088,3.6721,3.7479,3.8535,3.8409,3.8303,0.0,0.0,0.0,3.825,3.8092,3.8012,3.8012,3.8012,3.8012,3.8012,3.7575,3.7188,3.6866,3.5975,3.4891,3.3596,3.2215,3.1024,3.0069,2.9677,2.942,2.9302,2.9094,2.9014,2.9014,2.9014,2.9014,2.9014,2.9014,2.9014,2.9014,2.9014,2.9014,2.9014,0.0,0.0,0.0,0.0,0.0,0.0,0.0,0.0,0.0,0.0,0.0,0.0,0.0,0.0,0.0,0.0,0.0,0.0,1.8784,1.853,1.9975,2.385,2.3423,2.3732,2.5099,2.5351,2.5161,2.4577,2.8004,2.8978,2.766,3.0223,3.1133,3.0634,3.0266,3.0285,3.0658,3.1156,3.0601,2.949,3.0783,3.0345,2.8992,3.0028,2.8712,2.639,2.6794,2.5199,2.2914,2.2888,2.3046,2.3222,0.0,0.0,0.0,0.0,0.0,2.8853,3.364,3.5488,3.6794,3.9789,4.0525,4.0504,4.0461,4.0482,4.0161,3.9051,3.6322,3.3827,0.0,0.0,2.8469,2.7739,2.8533,3.0219,3.2962,3.3838,3.5246,0.0,0.0,0.0,0.0,0.0,0.0,3.8012,0.0,3.8012,3.8012,3.8012,3.8012,3.8012,3.6893,3.6812,3.7868,3.5471,3.3512,3.2072,3.0917,3.0059,2.9499,2.947,2.9302,2.9014,2.9014,2.9014,2.9014,2.9014,2.9014,2.9014,2.9014,2.9014,2.9014,2.9014,2.9014,2.9014,0.0,0.0,0.0,0.0,0.0,0.0,0.0,0.0,0.0,0.0,0.0,0.0,0.0,0.0,0.0,0.0,0.0,0.0,1.7519,1.8445,1.9735,2.1515,2.3316,2.4658,2.5451,2.5867,2.6334,2.685,2.6705,2.6581,2.6509,2.6361,2.6133,2.5855,2.5913,2.5819,2.5633,2.5777,2.6482,2.7473,2.7401,2.8435,2.9894,2.8354,2.7412,2.6708,2.524,2.3999,2.3026,2.2936,2.3785,2.5099,2.6322,2.6701,2.6954,0.0,0.0,3.2518,3.4675,3.6784,3.8548,3.9358,3.9549,3.9373,3.8653,3.8787,3.8024,3.4431,3.2162,2.9929,0.0,0.0,0.0,2.907,3.2608,0.0,3.6616,3.6892,0.0,3.8007,0.0,3.8039,3.8092,3.8039,0.0,0.0,3.8012,3.8012,3.8012,3.8012,3.8012,3.8012,3.7708,3.7054,3.6079,3.342,3.1565,3.049,2.9971,2.9656,2.9479,2.9242,2.9073,2.9014,2.9014,2.9014,2.9014,2.9014,2.9014,2.9014,2.9014,2.9014,2.9014,2.9014,2.9014,2.9014,0.0,0.0,0.0,0.0,0.0,0.0,0.0,0.0,0.0,0.0,0.0,0.0,0.0,0.0,0.0,0.0,0.0,0.0,0.0,1.799,1.8623,1.8808,2.049,2.1456,2.157,2.2217,2.2831,2.3404,2.404,2.4412,2.4526,2.4682,2.468,2.4567,2.4262,2.407,2.3953,2.4291,2.4384,0.0,0.0,2.5139,2.5628,2.4755,2.4564,2.4667,2.378,2.376,2.4319,2.5352,2.6357,2.7294,2.8005,2.8117,2.8356,3.0183,0.0,3.4465,3.5681,3.7579,3.9099,3.8675,3.8496,3.806,3.6741,3.6169,3.4937,3.1471,2.86,0.0,2.4427,2.5631,0.0,0.0,0.0,0.0,3.5825,3.6027,3.6509,0.0,3.8012,0.0,3.8012,3.8012,3.8012,0.0,3.8012,3.8012,3.8012,3.8012,3.8012,3.8012,3.7242,3.5783,3.3628,3.2607,3.1295,2.9715,2.9558,2.942,2.9272,2.9103,2.9014,2.9014,0.0,2.9014,2.9014,2.9014,2.9014,2.9014,2.9014,2.9014,2.9014,2.9014,2.9014,2.9014,0.0,0.0,0.0,0.0,0.0,0.0,0.0,0.0,0.0,0.0,1.9169,0.0,0.0,0.0,0.0,0.0,0.0,0.0,0.0,0.0,1.7348,1.6603,1.7022,1.7052,1.6581,1.7346,1.784,1.8055,2.0889,2.2213,2.2156,2.3678,2.4391,2.4351,2.3549,2.3255,2.3436,2.4069,2.3081,2.118,2.2388,2.1714,2.0102,0.0,2.175,2.2155,2.2798,2.4223,2.6176,2.8639,2.9551,2.9599,2.936,2.9087,2.9309,3.1594,3.3547,3.5204,3.6371,3.7706,3.8563,3.7717,3.7335,3.6641,3.4718,3.3342,3.1764,2.9141,0.0,2.3281,2.3498,2.3839,2.4254,2.4759,0.0,3.0555,3.366,3.4087,3.5066,3.7683,3.8012,3.8012,3.8012,3.8012,3.7959,3.788,3.788,3.7933,3.8012,3.8012,3.7959,3.788,3.6165,3.4028,3.1488,3.233,3.1641,2.942,2.942,2.9272,2.9014,2.9014,2.9014,2.9014,0.0,0.0,2.9014,2.9014,2.9014,2.9014,2.9014,2.9014,2.9014,2.9014,2.9014,2.9014,0.0,0.0,0.0,0.0,0.0,0.0,0.0,0.0,0.0,0.0,1.9483,1.9101,0.0,0.0,0.0,0.0,0.0,0.0,0.0,0.0,0.0,1.7478,1.7624,1.7624,1.7478,1.7522,1.7956,1.8811,1.8892,1.9369,2.0185,2.0174,2.0155,2.0145,1.9991,1.9812,1.9649,1.976,2.0065,2.0473,2.0603,2.1224,2.2088,2.2128,0.0,0.0,2.367,2.5271,2.7633,2.9679,3.0828,3.16,3.2954,3.3336,3.3422,3.4027,3.4466,3.4946,3.5889,3.6342,3.6452,3.6073,3.5954,3.5211,3.2573,3.2001,0.0,0.0,2.4464,2.3716,2.1438,2.3276,2.5906,2.8266,3.1063,3.3947,3.6826,3.721,3.7404,0.0,0.0,0.0,0.0,0.0,0.0,0.0,0.0,3.748,3.7986,3.8012,3.7773,3.7266,3.5772,3.4136,3.2395,3.1372,3.0285,2.9103,2.9103,2.9073,2.9014,2.9014,2.9014,2.9014,2.9014,0.0,2.9014,2.9014,2.9014,2.9014,2.9014,2.9014,2.9014,2.9014,2.9014,2.9014,0.0,0.0,0.0,0.0,0.0,0.0,0.0,2.0414,2.0248,1.9791,1.9356,1.9251,1.9633,1.9333,1.9101,0.0,0.0,0.0,0.0,0.0,0.0,0.0,1.8257,1.8092,1.7713,1.8051,1.8487,0.0,0.0,1.9738,2.0566,0.0,0.0,1.9958,1.9354,1.895,1.8736,1.9214,1.9521,1.9738,2.0474,2.124,0.0,0.0,0.0,0.0,2.43,2.569,2.7712,2.8727,3.0533,3.2728,3.4984,3.5393,3.5067,3.5308,3.571,3.6102,3.6022,3.6358,3.6557,3.5776,3.55,3.4282,3.0039,0.0,0.0,0.0,2.1749,2.1713,2.0961,2.3196,2.5576,2.6923,3.0758,3.4003,3.5362,3.6978,3.8012,3.8012,3.8012,3.8012,0.0,0.0,0.0,0.0,0.0,3.7105,3.7105,3.7131,3.6823,3.6227,3.5068,3.3709,3.2205,3.1005,2.9922,2.9014,2.9014,2.9014,2.9014,2.9014,2.9014,2.9014,2.9014,0.0,2.9014,2.9014,2.9014,2.9014,2.9014,2.9014,2.9014,2.9014,2.9014,2.9014,0.0,0.0,0.0,0.0,0.0,0.0,0.0,2.0969,2.0612,1.974,1.9489,1.9647,2.0338,1.9623,1.9129,0.0,0.0,0.0,0.0,0.0,0.0,0.0,0.0,0.0,0.0,0.0,0.0,0.0,0.0,0.0,0.0,0.0,0.0,0.0,0.0,0.0,1.9517,2.025,2.0273,0.0,0.0,0.0,0.0,0.0,0.0,0.0,0.0,2.568,2.6933,2.7505,2.9401,3.1989,3.4712,3.5214,3.4841,3.5033,3.5618,3.6173,3.5886,3.6369,3.6684,3.5668,3.5271,3.365,2.8079,2.661,0.0,2.0416,1.9425,1.9697,2.0633,2.2497,2.4077,2.4668,2.8416,3.1715,3.3112,3.5338,3.7138,0.0,3.788,0.0,3.78,0.0,0.0,0.0,0.0,0.0,3.632,3.6293,3.6009,3.5433,3.4291,3.3183,3.2092,3.0752,2.9833,2.9302,2.9103,2.9014,2.9014,2.9014,2.9014,2.9014,2.9014,0.0,0.0,2.9014,2.9014,2.9014,2.9014,2.9014,2.9014,2.9014,2.9014,2.9014,0.0,0.0,0.0,0.0,0.0,0.0,0.0,2.1856,2.1446,2.0747,2.0436,2.0494,2.1051,1.9905,1.925,0.0,0.0,0.0,0.0,0.0,0.0,0.0,0.0,0.0,0.0,0.0,0.0,0.0,0.0,0.0,0.0,0.0,0.0,0.0,0.0,0.0,0.0,0.0,0.0,0.0,0.0,0.0,0.0,0.0,0.0,0.0,0.0,2.5313,2.5319,2.7103,2.7541,2.7791,3.0375,3.1668,3.2234,3.2197,3.2288,3.2837,3.4743,3.5344,3.5307,3.4969,3.486,3.337,2.7802,0.0,2.5205,1.9742,1.9029,1.9427,1.954,2.01,2.1377,2.394,2.448,2.6611,3.2477,3.3172,3.4325,3.7611,0.0,0.0,3.7185,0.0,0.0,0.0,0.0,0.0,3.6239,3.6293,3.6009,3.5433,3.3652,3.2804,3.2978,3.0421,2.9509,3.0265,2.942,2.9014,2.9014,2.9014,2.9014,2.9014,2.9014,0.0,0.0,2.9014,2.9014,2.9014,2.9014,2.9014,2.9014,2.9014,2.9014,2.9014,0.0,0.0,0.0,0.0,0.0,0.0,2.3463,2.3233,2.2636,2.1057,2.0798,2.0663,2.0387,2.0255,2.012,1.9955,0.0,0.0,0.0,0.0,0.0,0.0,0.0,0.0,0.0,0.0,0.0,0.0,0.0,0.0,0.0,0.0,0.0,0.0,0.0,0.0,0.0,0.0,0.0,0.0,0.0,0.0,0.0,0.0,0.0,0.0,0.0,0.0,2.6068,2.6431,2.6888,2.72,2.6718,2.7497,2.9119,3.1802,3.2805,3.336,3.4799,3.5199,3.5151,3.4884,3.3708,3.153,2.7349,0.0,2.3591,1.9727,1.9243,1.9621,1.995,1.9901,2.0169,2.1292,2.2519,2.4237,2.6803,2.843,3.0697,3.4325,3.4234,0.0,0.0,0.0,0.0,0.0,0.0,0.0,3.5207,3.4675,3.4274,3.4022,3.2226,3.1622,3.2322,3.0109,2.9479,3.0392,2.945,2.9014,2.9014,2.9014,2.9014,2.9014,2.9014,0.0,0.0,2.9014,2.9014,2.9014,2.9014,2.9014,2.9014,2.9014,2.9014,2.9014,0.0,0.0,0.0,0.0,0.0,2.5273,2.4303,2.4119,2.3477,2.172,2.1523,2.125,2.0476,2.1314,2.1585,2.0739,2.1093,0.0,0.0,0.0,0.0,0.0,0.0,0.0,0.0,0.0,0.0,0.0,0.0,0.0,0.0,0.0,0.0,0.0,0.0,0.0,0.0,0.0,0.0,0.0,0.0,0.0,0.0,0.0,0.0,0.0,0.0,0.0,0.0,0.0,0.0,2.6382,2.4488,2.4892,2.673,3.0191,3.2025,3.3125,3.4152,3.4915,3.5307,3.4702,3.2864,3.0326,0.0,0.0,2.2786,1.9689,1.9501,1.9893,1.9905,1.9732,1.9572,1.9522,2.0683,2.1965,2.3036,2.458,2.6947,3.057,0.0,3.1279,0.0,0.0,0.0,0.0,0.0,0.0,3.4524,3.3621,3.3243,3.3498,3.1757,3.1266,3.2178,3.0334,2.9745,3.0392,2.945,2.9014,2.9014,2.9014,2.9014,2.9014,0.0,0.0,0.0,2.9014,2.9014,2.9014,2.9014,2.9014,2.8984,2.8776,2.8836,2.8984,0.0,0.0,0.0,0.0,0.0,0.0,2.4612,2.4264,2.3813,2.2991,2.2814,2.253,2.1854,2.3333,2.3717,2.2129,2.211,0.0,0.0,0.0,0.0,0.0,0.0,0.0,0.0,0.0,1.9395,1.9593,1.9617,2.0051,0.0,0.0,0.0,0.0,0.0,0.0,0.0,0.0,0.0,0.0,0.0,0.0,0.0,0.0,0.0,0.0,0.0,0.0,0.0,0.0,0.0,0.0,0.0,2.4494,2.5427,2.6458,2.8697,3.1087,3.2305,3.4278,3.5679,3.4348,3.2583,3.0323,0.0,2.5318,2.3378,1.95,1.9716,2.0204,1.8944,1.9193,1.9522,1.9335,1.8606,1.9313,2.2896,2.2515,2.3202,2.6823,2.6197,2.6914,3.0612,3.3133,0.0,0.0,0.0,0.0,3.4496,3.3621,3.3537,3.4468,3.2732,3.2197,3.3091,3.1295,3.0392,3.0392,2.945,2.9014,2.9014,2.9014,2.9014,0.0,0.0,0.0,0.0,2.9014,2.9014,2.9014,2.9014,2.9014,2.8925,2.8259,2.8439,2.8925,0.0,0.0,0.0,0.0,0.0,0.0,0.0,2.5248,2.4841,2.3845,2.382,2.3391,2.2075,2.3362,2.4,2.3161,2.334,0.0,0.0,0.0,0.0,0.0,0.0,0.0,0.0,0.0,1.9246,1.9385,1.9529,1.9748,2.0036,2.0768,0.0,0.0,0.0,0.0,0.0,0.0,0.0,0.0,0.0,0.0,0.0,0.0,0.0,0.0,0.0,0.0,0.0,0.0,0.0,0.0,0.0,0.0,0.0,2.5587,2.7223,2.9276,3.0708,3.1178,3.1165,3.0625,2.8354,2.584,2.4401,2.3015,2.1499,1.9571,1.9928,2.0379,1.9656,1.9558,1.9522,1.9335,1.8575,1.8343,1.9364,2.0467,2.2527,2.6158,2.9933,3.2523,0.0,0.0,0.0,0.0,0.0,0.0,3.4496,3.3621,3.3233,3.3526,3.2407,3.192,3.2207,3.1014,3.0382,3.0392,2.945,2.9014,2.9014,2.9014,0.0,0.0,0.0,0.0,0.0,2.8319,2.805,2.7629,2.7629,2.7629,2.7599,2.7388,2.7448,2.7599,0.0,0.0,0.0,0.0,0.0,0.0,0.0,2.5661,2.5405,2.4685,2.477,2.433,2.2836,2.397,2.4513,2.3729,2.4252,0.0,0.0,0.0,0.0,0.0,0.0,0.0,0.0,1.9453,1.9423,1.9635,1.9564,1.9671,1.9961,2.0761,2.1339,2.1749,0.0,0.0,0.0,0.0,0.0,0.0,0.0,0.0,2.37,0.0,0.0,0.0,0.0,0.0,0.0,0.0,0.0,0.0,0.0,0.0,0.0,0.0,2.5976,2.7519,2.9026,2.9604,2.9612,2.9029,2.6827,0.0,2.3742,2.2546,2.1275,2.0033,2.0418,2.0756,2.003,1.9846,1.965,1.9224,1.8617,1.8437,1.9158,2.0244,2.2143,2.5293,0.0,0.0,0.0,0.0,0.0,0.0,0.0,0.0,3.4496,3.3621,3.3091,3.3091,3.2264,3.1805,3.1805,3.0869,3.0206,2.9863,2.9272,2.9014,2.9014,2.9014,0.0,0.0,0.0,0.0,0.0,2.811,2.7749,2.7358,2.7086,2.6995,2.6965,2.6744,2.6813,2.6965,0.0,0.0,0.0,0.0,0.0,0.0,0.0,2.5597,2.5534,2.5432,2.5561,2.5217,2.4005,2.496,2.5192,2.4005,2.4831,0.0,0.0,0.0,0.0,0.0,0.0,0.0,1.9806,1.9735,1.9851,2.0162,1.9652,1.9751,2.0447,2.1183,2.1595,2.1749,2.2905,0.0,0.0,0.0,0.0,0.0,0.0,0.0,0.0,0.0,0.0,0.0,0.0,0.0,0.0,0.0,0.0,0.0,0.0,0.0,0.0,0.0,0.0,0.0,0.0,2.8986,3.0034,2.8839,2.7278,2.5711,2.443,2.3462,0.0,2.0778,2.1067,2.1269,2.0133,1.9977,1.9798,1.9041,1.8643,1.9221,2.1475,2.1764,2.263,0.0,2.8279,0.0,2.954,0.0,0.0,0.0,0.0,0.0,3.4496,3.3678,3.3204,3.3204,3.235,3.1834,3.169,3.0898,2.9971,2.9014,2.9073,2.9044,2.8925,2.8984,0.0,0.0,0.0,0.0,0.0,2.811,2.784,2.7719,2.7116,2.6874,2.6813,2.6228,2.638,2.6783,0.0,0.0,0.0,0.0,0.0,0.0,0.0,0.0,0.0,0.0,2.5508,2.5259,2.4691,2.515,2.5294,0.0,0.0,0.0,0.0,0.0,0.0,0.0,0.0,0.0,2.0553,1.9986,1.9737,1.9814,1.9542,1.9492,1.9658,1.9843,2.057,2.17,2.1643,2.2083,0.0,0.0,0.0,0.0,0.0,0.0,0.0,0.0,0.0,0.0,2.603,2.6271,0.0,0.0,0.0,0.0,0.0,0.0,0.0,0.0,2.4897,2.4915,2.5524,0.0,2.5573,2.5103,2.4266,2.3379,0.0,2.2829,2.2625,2.1213,2.1397,0.0,0.0,0.0,0.0,0.0,1.8334,1.8683,2.1418,2.5334,0.0,3.1834,3.292,3.3383,0.0,0.0,0.0,0.0,0.0,3.4496,3.4496,3.4289,3.4177,3.4177,3.3272,3.2121,3.0723,3.1208,3.0626,2.9014,2.9745,2.942,2.8259,2.8776,0.0,0.0,0.0,0.0,2.6775,2.6623,2.6228,2.5778,2.5594,2.5533,2.5533,2.538,2.541,2.5533,0.0,0.0,0.0,0.0,0.0,0.0,0.0,0.0,0.0,0.0,2.5365,2.5243,2.4974,2.5185,0.0,0.0,0.0,0.0,0.0,0.0,0.0,0.0,0.0,2.1135,2.0628,2.0178,1.9906,1.9835,1.9536,1.9477,1.9632,1.9874,2.0564,2.1635,2.2078,2.2501,0.0,0.0,0.0,0.0,2.2367,0.0,0.0,0.0,0.0,0.0,2.5856,2.6177,0.0,2.5578,2.5411,2.5314,0.0,0.0,0.0,0.0,2.4849,2.4637,2.4679,2.4522,2.4319,2.4271,2.4012,2.3567,2.286,2.3118,2.3051,2.136,2.1417,2.1397,0.0,0.0,0.0,0.0,1.9114,2.0458,2.328,2.6011,2.89,3.2149,3.2287,3.274,0.0,0.0,0.0,0.0,0.0,3.4496,3.4496,3.4082,3.3857,3.3857,3.2988,3.2236,3.1642,3.1747,3.0927,2.9185,2.9707,2.9096,2.7539,2.793,2.7689,0.0,0.0,0.0,2.6501,2.6197,2.5892,2.5533,2.5226,2.5111,2.5111,2.5111,2.5111,2.5111,0.0,0.0,0.0,0.0,0.0,0.0,0.0,0.0,0.0,0.0,0.0,0.0,0.0,0.0,0.0,0.0,0.0,0.0,0.0,0.0,0.0,0.0,2.2467,2.1617,2.0624,2.0296,2.0147,2.0152,1.9638,1.9543,1.9831,2.0248,2.0759,2.1407,2.3025,2.3392,0.0,0.0,0.0,0.0,2.2533,0.0,0.0,0.0,0.0,0.0,0.0,0.0,0.0,2.5467,2.53,2.5355,2.5202,0.0,0.0,0.0,0.0,0.0,2.4351,2.4569,2.4813,2.473,2.4849,2.468,2.3561,2.3601,2.3297,2.1293,2.1211,2.1157,2.0053,1.9299,0.0,0.0,0.0,0.0,2.6125,2.6487,2.7542,3.0512,3.0406,0.0,0.0,0.0,0.0,0.0,0.0,3.4496,3.4496,3.3762,3.33,3.33,3.2607,3.2579,3.33,3.2322,3.1091,2.9679,2.9679,2.8801,2.7168,2.7259,2.7077,0.0,0.0,0.0,2.6662,2.6167,2.5953,2.5892,2.5318,2.5111,2.5111,2.5111,2.5111,2.5111,0.0,0.0,0.0,0.0,0.0,0.0,0.0,0.0,0.0,0.0,0.0,0.0,0.0,0.0,0.0,0.0,0.0,0.0,0.0,0.0,0.0,2.2709,2.1639,2.1181,2.1489,2.0419,2.0189,2.0852,1.9821,1.9365,1.9477,1.9337,1.9732,2.0663,2.2669,2.3082,2.2383,0.0,0.0,0.0,0.0,0.0,0.0,0.0,0.0,0.0,0.0,0.0,0.0,2.5494,2.5215,2.4905,2.4863,0.0,0.0,0.0,0.0,0.0,2.4146,2.5114,2.5699,2.4647,2.4608,2.4487,2.3186,2.3067,2.2779,2.1142,2.0929,2.0726,1.9813,1.9054,1.8442,0.0,0.0,2.6107,0.0,0.0,3.3252,3.3775,0.0,3.3917,0.0,0.0,0.0,0.0,0.0,3.4496,3.4496,3.4345,3.4289,3.4289,3.4149,3.4149,3.4289,3.2646,3.1535,3.1014,3.1014,2.9894,2.7864,2.8364,2.7435,0.0,0.0,2.5923,2.5388,2.5288,2.5257,2.5226,2.5142,2.5111,2.5111,2.5111,2.5111,2.5111,0.0,0.0,0.0,0.0,0.0,0.0,0.0,0.0,0.0,0.0,0.0,0.0,0.0,0.0,0.0,0.0,0.0,0.0,0.0,0.0,2.2718,2.2443,2.1488,2.1186,2.1652,2.0436,2.0092,2.067,1.9648,1.9021,1.8817,1.9641,2.045,2.1294,2.3155,2.3395,2.2504,2.3972,0.0,0.0,0.0,0.0,0.0,0.0,0.0,0.0,0.0,0.0,0.0,0.0,2.4892,2.4778,2.4665,0.0,0.0,0.0,0.0,0.0,2.4105,2.4816,2.5336,2.5329,2.6016,2.6496,2.5735,2.5811,2.5353,2.2794,2.2584,2.2157,1.9907,2.0134,2.1463,2.3925,0.0,2.6617,2.9674,2.9676,0.0,0.0,0.0,0.0,0.0,0.0,0.0,0.0,0.0,0.0,3.4496,3.4496,3.4496,3.4496,3.4496,3.4496,3.4496,3.3158,3.2254,3.1785,3.0897,2.9522,2.7697,2.7103,2.6211,2.5111,0.0,2.538,2.5111,2.5111,2.5111,2.5111,2.5111,2.5111,2.5111,2.5111,2.5111,2.5111,0.0,0.0,0.0,0.0,0.0,0.0,0.0,0.0,0.0,0.0,0.0,0.0,0.0,0.0,0.0,0.0,0.0,0.0,0.0,2.3099,2.2478,2.2015,2.1412,2.1283,2.1735,2.0531,2.0077,2.0403,1.9382,1.8773,1.8585,2.0097,2.1154,2.1837,2.3559,2.3727,2.2842,2.4507,2.4866,0.0,0.0,0.0,0.0,0.0,0.0,0.0,0.0,0.0,0.0,0.0,0.0,0.0,0.0,0.0,0.0,2.421,2.3777,2.3199,2.4021,2.4583,2.5055,2.5636,2.6425,2.7165,0.0,0.0,0.0,0.0,0.0,2.3939,2.072,2.1313,0.0,2.7994,2.7441,2.7588,0.0,0.0,0.0,0.0,0.0,0.0,0.0,0.0,0.0,0.0,0.0,0.0,3.4496,3.4496,3.4496,3.4496,3.4496,3.4468,3.4412,3.3413,3.2626,3.2062,3.0616,2.9031,2.7327,2.612,2.538,2.5111,2.5111,2.5111,2.5111,2.5111,2.5111,2.5111,2.5111,2.5111,2.5111,2.5111,2.5111,2.5111,0.0,0.0,0.0,0.0,0.0,0.0,0.0,0.0,0.0,0.0,0.0,0.0,0.0,0.0,0.0,0.0,0.0,0.0,0.0,2.2719,2.1962,2.112,2.1041,2.1371,2.2145,2.0908,2.0312,2.0394,1.9151,1.8812,1.9333,2.014,2.0822,2.142,2.3285,2.3723,2.319,2.505,2.5485,2.4936,0.0,0.0,0.0,0.0,0.0,0.0,0.0,0.0,0.0,0.0,0.0,0.0,0.0,0.0,2.2716,2.3947,2.343,2.2702,2.3799,2.4998,2.5679,2.4764,2.4001,2.4046,2.62,2.5083,0.0,2.5748,0.0,0.0,0.0,2.1949,2.2557,2.528,2.7934,3.0722,3.3748,0.0,0.0,0.0,0.0,0.0,0.0,0.0,0.0,0.0,0.0,0.0,3.4496,3.4496,3.4496,3.4496,3.4496,3.4384,3.4114,3.2892,3.209,3.1717,3.0733,2.9139,2.7043,2.6922,2.6211,2.5111,2.5111,2.5111,2.5111,2.5111,2.5111,2.5111,2.5111,2.5111,2.5111,2.5111,2.5111,2.5111,0.0,0.0,0.0,0.0,0.0,0.0,0.0,0.0,0.0,0.0,0.0,0.0,0.0,0.0,0.0,0.0,0.0,0.0,0.0,2.2076,2.1516,2.1022,2.0762,2.0829,2.1262,2.063,2.0211,2.003,1.8786,1.8737,1.9784,2.0135,2.0867,2.1926,2.3429,2.3727,2.3224,2.5093,2.5345,2.443,2.443,0.0,0.0,0.0,0.0,0.0,0.0,0.0,0.0,0.0,2.4333,2.4192,2.3652,2.2874,2.2325,2.323,2.2863,2.2444,2.3844,2.5151,2.5859,2.4731,2.3741,2.3831,2.6907,2.7379,2.7397,2.8142,2.8529,0.0,0.0,0.0,2.7337,2.8133,3.082,3.3198,3.4343,0.0,0.0,0.0,0.0,0.0,0.0,0.0,0.0,0.0,0.0,0.0,3.4496,3.4496,3.4496,3.4496,3.4496,3.4367,3.4086,3.2835,3.1534,3.0256,2.9109,2.8128,2.7276,2.6263,2.5556,2.5111,2.5111,2.5111,2.5111,2.5111,2.5111,2.5111,2.5111,2.5111,2.5111,2.5111,2.5111,2.5111,0.0,0.0,0.0,0.0,0.0,0.0,0.0,0.0,0.0,0.0,0.0,0.0,0.0,0.0,0.0,0.0,0.0,0.0,2.194,2.1574,2.1217,2.071,2.0524,2.0363,2.0204,2.023,1.9963,1.9394,1.8669,1.8882,2.0012,2.0323,2.1097,2.2264,2.3542,2.3839,2.3517,2.4993,2.5121,2.4308,2.4112,2.4012,0.0,0.0,0.0,0.0,0.0,0.0,0.0,0.0,2.3983,2.3644,2.2998,2.227,2.1809,2.2679,2.2158,2.1613,2.3205,2.3923,2.4168,2.3973,2.348,2.3962,2.7402,2.8116,2.8533,3.0288,3.0332,0.0,0.0,0.0,0.0,0.0,3.2518,3.4496,3.4496,3.4496,0.0,0.0,0.0,0.0,0.0,0.0,0.0,0.0,0.0,0.0,0.0,3.4496,3.4496,3.4496,3.4205,3.3829,3.3349,3.2187,3.081,2.9237,2.7958,2.7125,2.671,2.6028,2.5464,2.5111,2.5111,2.5111,2.5111,2.5111,2.5111,2.5111,2.5111,2.5111,2.5111,2.5111,2.5111,2.5111,0.0,0.0,0.0,0.0,0.0,0.0,0.0,0.0,0.0,0.0,0.0,0.0,0.0,0.0,0.0,0.0,0.0,0.0,2.1147,2.1304,2.1035,2.0033,2.031,2.005,1.9116,1.9745,1.956,1.849,1.8823,1.934,2.0012,2.0754,2.1492,2.2264,2.3542,2.4105,2.4133,2.4739,2.4913,2.4739,2.4139,2.4264,0.0,0.0,0.0,0.0,0.0,0.0,0.0,0.0,2.371,2.2969,2.283,2.1907,2.1135,2.2412,2.1336,2.0082,2.1756,2.111,2.0411,2.2229,2.2972,2.4131,2.7446,2.6391,2.6336,3.1932,3.137,2.9885,2.9989,0.0,0.0,0.0,0.0,0.0,3.4496,3.4496,0.0,0.0,0.0,0.0,0.0,0.0,0.0,0.0,0.0,0.0,0.0,3.4496,3.4496,3.4496,3.3593,3.2654,3.1727,3.0781,2.9855,2.889,2.7607,2.6363,2.5173,2.6424,2.6302,2.5111,2.5111,2.5111,2.5111,2.5111,2.5111,2.5111,2.5111,2.5111,2.5111,2.5111,2.5111,2.5111,0.0,0.0,0.0,0.0,0.0,0.0,0.0,0.0,0.0,0.0,0.0,0.0,0.0,0.0,0.0,0.0,0.0,0.0,2.1179,2.0596,2.0118,1.9674,1.9382,1.9066,1.8688,1.8644,1.8466,1.8147,1.8776,1.9436,2.0153,2.0798,2.1492,2.2264,2.3542,2.3839,2.3461,2.4529,2.441,2.3486,2.3739,2.3819,0.0,0.0,0.0,0.0,0.0,0.0,0.0,0.0,0.0,0.0,2.1846,2.112,2.0682,2.1729,2.163,2.1331,2.2017,2.3892,2.5129,2.2964,2.4518,2.6802,2.7711,2.7778,2.8678,0.0,3.3105,3.2465,3.0372,0.0,0.0,0.0,0.0,0.0,3.4496,3.4496,3.4496,0.0,0.0,0.0,0.0,0.0,0.0,0.0,0.0,0.0,0.0,3.4496,3.4496,3.4496,3.4233,3.3745,3.3027,3.1871,3.047,2.889,2.8534,2.7675,2.6424,2.5914,2.5464,2.5111,2.5111,2.5111,2.5111,2.5111,2.5111,2.5111,2.5111,2.5111,2.5111,2.5111,2.5111,2.5111,0.0,0.0,0.0,0.0,0.0,0.0,0.0,0.0,0.0,0.0,0.0,0.0,0.0,0.0,0.0,0.0,0.0,0.0,0.0,2.016,1.974,1.9508,1.8874,1.8525,1.849,1.822,1.8195,1.8443,1.9176,1.9756,2.0221,2.1117,2.1761,2.2264,2.3542,2.3727,2.3168,2.409,2.3834,2.2844,2.3094,2.3243,2.3388,0.0,0.0,0.0,0.0,0.0,0.0,0.0,0.0,0.0,2.0797,2.0275,1.996,2.0457,2.0234,2.016,2.1581,2.327,2.4627,2.4587,2.6271,2.8162,2.9095,0.0,0.0,0.0,3.3601,3.3568,3.2067,0.0,0.0,0.0,0.0,0.0,0.0,0.0,3.4496,0.0,0.0,0.0,0.0,0.0,0.0,0.0,0.0,0.0,0.0,3.4496,3.444,3.4339,3.4093,3.3537,3.2685,3.215,3.1149,2.9659,2.9659,2.9246,2.8444,2.6658,2.5586,2.5111,2.5111,2.5111,2.5111,2.5111,2.5111,2.5111,2.5111,2.5111,2.5111,2.5111,2.5111,2.5111,0.0,0.0,0.0,0.0,0.0,0.0,0.0,0.0,0.0,0.0,0.0,0.0,0.0,0.0,0.0,0.0,0.0,0.0,0.0,1.9918,1.9701,1.9426,1.8683,1.8344,1.85,1.8317,1.8492,1.9121,1.9858,2.0257,2.0326,2.1602,2.2208,2.225,2.3472,2.3602,2.2949,2.3355,2.3144,2.249,2.2298,2.2592,2.323,2.3811,0.0,0.0,0.0,0.0,0.0,0.0,0.0,0.0,1.9849,1.9527,1.9155,1.9006,1.8281,1.8127,2.089,2.1029,2.1585,2.6715,2.8052,2.8757,3.1077,3.1979,3.2486,3.2988,0.0,3.3576,3.4353,3.4311,0.0,0.0,0.0,0.0,0.0,0.0,3.4496,0.0,0.0,0.0,0.0,0.0,0.0,0.0,0.0,0.0,0.0,3.4496,3.4384,3.4114,3.3537,3.2664,3.1487,3.2045,3.1815,0.0,3.0791,3.0733,3.0558,2.8236,2.6476,2.5257,2.5134,2.5111,2.5111,2.5111,2.5111,2.5111,2.5111,2.5111,2.5111,2.5111,2.5111,2.5111,0.0,0.0,0.0,0.0,0.0,0.0,0.0,0.0,0.0,0.0,0.0,0.0,0.0,0.0,0.0,0.0,0.0,0.0,0.0,1.9461,1.9137,1.8812,1.8324,1.8226,1.8572,1.8337,1.8543,1.9256,2.0003,2.0603,2.1088,2.1845,2.2208,2.2236,2.2983,2.262,2.1493,2.2058,2.1816,2.1092,2.139,2.2127,2.3084,2.3484,0.0,0.0,0.0,0.0,0.0,0.0,0.0,0.0,1.9808,1.9447,1.911,1.9371,2.0779,2.2202,2.2042,2.4804,2.7733,2.7829,2.9337,3.0935,3.1484,3.168,3.2033,3.2912,3.3426,3.3862,3.4408,3.444,3.444,0.0,0.0,0.0,0.0,0.0,0.0,0.0,0.0,0.0,0.0,0.0,0.0,0.0,0.0,0.0,3.4496,3.4496,3.4384,3.4114,3.416,3.3755,3.2802,3.3143,3.2457,0.0,3.0791,3.0295,2.9305,2.8742,2.7787,2.6537,2.5525,2.5111,2.5111,2.5111,2.5111,2.5111,2.5111,2.5111,2.5111,2.5111,2.5111,2.5111,0.0,0.0,0.0,0.0,0.0,0.0,0.0,0.0,0.0,0.0,0.0,0.0,0.0,0.0,0.0,0.0,0.0,0.0,0.0,0.0,1.8678,1.8284,1.8002,1.8032,1.8401,1.8214,1.8637,1.973,1.9989,2.0528,2.1305,2.1912,2.2137,2.2034,2.2474,2.1978,2.085,2.149,2.1311,2.0656,2.1323,2.1934,2.251,2.2855,0.0,0.0,0.0,0.0,0.0,0.0,0.0,0.0,0.0,0.0,1.8972,1.8786,1.962,2.0965,2.264,2.496,2.7333,2.9148,3.0626,3.1593,3.1593,3.1593,3.1811,3.2617,3.3141,3.3595,3.4087,3.4343,3.4496,3.4496,0.0,0.0,0.0,0.0,0.0,0.0,0.0,0.0,0.0,0.0,0.0,0.0,0.0,3.4496,3.4496,3.4496,3.43,3.3861,3.4142,3.3861,3.2965,3.3268,3.283,3.172,3.172,3.1353,3.0645,2.8831,2.7645,2.6931,2.5647,2.5111,2.5111,2.5111,2.5111,2.5111,2.5111,2.5111,2.5111,2.5111,2.5111,2.5111,0.0,0.0,0.0,0.0,0.0,0.0,0.0,0.0,0.0,0.0,0.0,0.0,0.0,0.0,0.0,0.0,0.0,0.0,0.0,0.0,0.0,1.7882,1.7754,1.7835,1.8113,1.8141,1.8834,2.0193,2.0086,2.0523,2.1473,2.1922,2.1964,2.1679,2.1876,2.1379,2.0419,2.1025,2.0976,2.0564,2.1281,2.1674,2.1862,0.0,0.0,0.0,0.0,0.0,0.0,0.0,0.0,0.0,0.0,0.0,1.8837,1.7977,1.783,1.8743,2.2448,2.3842,2.5425,3.0379,3.1593,3.1593,3.1593,3.1593,3.1713,3.2164,3.265,3.3152,3.3693,3.413,3.4397,3.4485,3.4496,0.0,0.0,0.0,0.0,0.0,0.0,0.0,0.0,0.0,0.0,0.0,0.0,3.4496,3.4496,3.4496,3.4244,3.3681,3.4002,3.3749,3.2869,3.3193,3.3154,3.2784,3.2487,3.2373,3.2258,2.8653,2.7103,2.7254,2.5975,2.5288,2.5111,2.5111,2.5111,2.5111,2.5111,2.5111,2.5111,2.5111,2.5111,2.5111,0.0,0.0,0.0,0.0,0.0,0.0,0.0,0.0,0.0,0.0,0.0,0.0,0.0,0.0,0.0,0.0,0.0,0.0,0.0,0.0,0.0,1.773,1.771,1.772,1.7771,1.8429,1.9248,2.0193,2.069,2.1318,2.2069,2.1919,2.1592,2.1107,2.1079,2.0484,1.9489,1.9829,1.9997,2.0099,2.0209,2.0785,0.0,0.0,0.0,0.0,0.0,0.0,0.0,0.0,1.9323,0.0,0.0,0.0,1.879,1.7766,1.9096,2.0859,2.0569,2.3775,2.7941,3.088,3.1593,3.1593,3.1593,3.1593,3.1615,0.0,3.2132,3.277,3.3639,3.3846,3.4032,3.443,3.4496,0.0,0.0,0.0,0.0,0.0,0.0,0.0,0.0,0.0,0.0,0.0,3.4496,3.4496,3.4496,3.4496,3.4356,3.403,3.43,3.4132,3.3494,3.3805,3.3692,3.3108,3.172,3.1063,3.0966,2.8236,2.7607,2.8593,2.7315,2.612,2.5111,2.5111,2.5111,2.5111,2.5111,2.5111,2.5111,2.5111,2.5111,2.5111,0.0,0.0,0.0,0.0,0.0,0.0,0.0,0.0,0.0,0.0,0.0,0.0,0.0,0.0,0.0,0.0,0.0,0.0,0.0,0.0,0.0,1.7594,1.7556,1.7799,1.836,1.8604,1.9339,2.0598,2.0325,2.0813,2.1959,2.1049,2.066,2.0715,2.0494,1.998,1.9324,1.9559,0.0,0.0,0.0,0.0,0.0,0.0,0.0,0.0,0.0,0.0,0.0,0.0,0.0,0.0,1.8959,0.0,0.0,0.0,1.8736,1.9589,2.1372,2.4701,2.8278,3.0752,3.1501,3.1593,3.1593,3.1593,3.1593,3.1593,3.1778,3.2175,3.2874,3.3442,3.3868,3.4076,3.4321,3.4496,0.0,0.0,0.0,0.0,0.0,0.0,0.0,0.0,0.0,0.0,3.4496,3.4496,3.4496,3.4496,3.4384,3.4114,3.4227,3.4058,3.3597,3.3749,3.3607,3.3193,3.2477,3.1681,3.0762,2.963,2.8653,2.7757,2.6485,2.5617,2.5111,2.5111,2.5111,2.5111,2.5111,2.5111,2.5111,2.5111,2.5111,2.5111,0.0,0.0,0.0,0.0,0.0,0.0,0.0,0.0,0.0,0.0,0.0,0.0,0.0,0.0,0.0,0.0,0.0,0.0,0.0,0.0,0.0,1.7468,1.7596,1.8014,1.8761,1.8998,1.969,2.0861,2.0161,2.0404,2.1545,2.03,1.9824,2.0055,1.9806,1.9554,1.9312,0.0,0.0,0.0,0.0,0.0,0.0,0.0,0.0,0.0,0.0,0.0,0.0,0.0,0.0,0.0,0.0,0.0,0.0,0.0,0.0,1.8002,2.1705,2.4156,2.6375,2.9434,3.0413,3.079,3.136,3.1553,3.1593,3.1593,3.1593,3.1713,3.2121,3.2874,3.3475,3.3584,3.4021,3.431,3.431,0.0,0.0,0.0,0.0,0.0,0.0,0.0,0.0,0.0,3.4496,3.4496,3.4496,3.4496,3.4412,3.4199,3.4199,3.4086,3.3822,3.3766,3.3579,3.3306,3.2887,3.1883,3.0314,2.9992,2.8623,2.6507,2.6211,2.5884,2.5586,2.5586,2.538,2.5111,2.5111,2.5111,2.5111,2.5111,2.5111,2.5111,0.0,0.0,0.0,0.0,0.0,0.0,0.0,0.0,0.0,0.0,0.0,0.0,0.0,0.0,2.0183,1.9669,1.9489,1.9092,1.8344,1.7737,1.7394,1.7404,1.8009,0.0,1.8414,1.9782,2.06,2.0804,2.0696,2.0733,2.0937,2.0084,1.9413,1.8891,1.8861,1.9033,1.9312,0.0,0.0,0.0,0.0,0.0,0.0,0.0,0.0,0.0,0.0,0.0,0.0,0.0,0.0,0.0,0.0,0.0,0.0,0.0,0.0,0.0,2.0071,2.0583,2.1442,2.6228,2.7718,2.8555,3.0738,3.1424,3.1593,3.1593,3.1593,3.1604,3.1636,3.2099,3.2628,3.3054,3.3546,3.3835,3.3835,0.0,0.0,0.0,0.0,0.0,0.0,0.0,0.0,0.0,3.4496,3.4496,3.4496,3.4496,3.4496,3.4468,3.4468,3.4468,3.444,3.4199,3.3918,3.3568,3.2102,3.0577,2.895,2.7766,2.6485,2.5318,2.7667,2.8026,2.6892,2.6892,2.6181,2.5111,2.5111,2.5111,2.5111,2.5111,2.5111,2.5111,0.0,0.0,0.0,0.0,0.0,0.0,0.0,0.0,0.0,0.0,0.0,0.0,0.0,1.9724,1.958,1.9125,1.8611,1.8246,1.8117,1.7666,1.7594,1.8023,1.8265,1.8796,1.9662,2.0288,2.0597,2.0609,2.0273,2.0118,2.012,1.9037,1.8636,1.8823,1.9195,1.9439,1.958,1.9795,0.0,0.0,0.0,0.0,0.0,0.0,0.0,0.0,0.0,0.0,0.0,0.0,0.0,0.0,0.0,0.0,0.0,0.0,1.7221,1.746,1.9663,2.0012,2.0572,2.3927,2.6156,2.7796,2.8798,3.0219,3.1399,3.1553,3.1593,3.1593,3.1593,3.2044,3.2464,3.2628,3.3043,3.3349,3.3349,3.3748,0.0,0.0,0.0,0.0,0.0,0.0,0.0,0.0,0.0,3.4496,3.4496,3.4496,3.4496,3.4496,3.4496,3.4496,3.4496,3.4412,3.4227,3.3918,3.336,3.2264,3.0665,3.0217,2.9778,2.9386,3.0315,2.8842,2.5792,2.5792,2.5494,2.5111,2.5111,2.5111,2.5111,2.5111,2.5111,2.5111,0.0,0.0,0.0,0.0,0.0,0.0,0.0,0.0,0.0,0.0,0.0,0.0,0.0,0.0,1.9274,1.8926,1.8565,1.836,1.8364,1.8395,1.8568,1.8879,1.9116,1.9658,2.0549,2.0655,2.0678,2.062,1.9874,1.9492,1.9481,1.8409,1.8126,1.8562,1.9157,1.9519,0.0,0.0,0.0,2.0608,0.0,0.0,2.3978,0.0,0.0,0.0,0.0,0.0,0.0,0.0,0.0,0.0,0.0,0.0,0.0,0.0,0.0,1.7166,1.8417,1.8556,1.894,2.1353,2.3425,2.537,2.7182,2.8867,3.0359,3.1389,3.1593,3.1593,3.1593,3.1902,3.2132,3.2132,3.2551,3.2868,3.2868,3.3273,3.3579,0.0,0.0,0.0,0.0,0.0,0.0,0.0,0.0,0.0,3.4496,3.4496,3.4496,3.4496,3.4496,3.4496,3.4496,3.4496,3.4367,3.4086,3.4086,3.3264,3.1688,3.1688,3.1476,3.1062,3.1062,2.9601,2.7164,2.6719,2.6241,2.5709,2.5257,2.5111,2.5142,2.5349,2.5288,2.5134,0.0,0.0,0.0,0.0,0.0,0.0,0.0,0.0,0.0,0.0,0.0,0.0,0.0,0.0,0.0,1.9101,1.9371,1.9413,1.9104,1.9863,2.0174,1.9883,2.0492,2.0854,2.0882,2.0882,2.0868,2.084,1.9551,1.8975,1.9048,1.8252,1.7925,1.8026,1.8614,1.9178,1.9651,0.0,1.9483,2.0016,0.0,2.3758,2.3466,0.0,0.0,0.0,2.1073,2.0213,0.0,0.0,0.0,0.0,0.0,0.0,0.0,0.0,0.0,0.0,0.0,0.0,0.0,1.8441,1.9437,2.1125,2.5898,2.7318,2.8374,3.0942,3.1458,3.1495,3.1582,3.1593,3.1593,3.1593,3.2044,3.2387,3.2387,3.2781,3.3076,0.0,0.0,0.0,0.0,0.0,0.0,0.0,3.4207,3.4452,3.4452,3.4463,3.4485,3.4496,3.4496,3.4496,3.4496,3.4496,3.4367,3.4114,3.4114,3.3282,3.1775,3.1775,3.112,2.9935,2.9935,3.048,3.1285,2.9973,2.8465,2.687,2.5678,2.5173,2.5226,2.5876,2.5692,2.521,0.0,0.0,0.0,0.0,0.0,0.0,1.9705,0.0,0.0,0.0,0.0,0.0,0.0,0.0,1.8959,1.8765,1.8512,1.841,1.851,1.8464,1.8641,1.9091,1.9333,1.9664,2.0089,2.0291,2.0083,1.9447,1.9276,1.8886,1.8299,1.7923,1.7841,1.8006,1.8335,1.8637,1.8922,1.9083,0.0,0.0,2.3176,2.4157,0.0,0.0,0.0,0.0,0.0,2.3614,0.0,0.0,2.2056,1.8901,0.0,0.0,0.0,0.0,0.0,0.0,1.634,0.0,0.0,0.0,0.0,0.0,2.1424,2.2913,2.4872,2.8057,2.8441,2.889,3.1186,3.1593,3.1593,3.1593,3.1713,3.1837,3.1837,3.2263,3.2595,3.2595,0.0,0.0,0.0,0.0,0.0,0.0,3.3415,3.3502,3.3502,3.3803,3.4163,3.4485,3.4496,3.4496,3.4496,3.4496,3.4468,3.4384,3.4384,3.4149,3.3734,3.3734,3.3526,3.3194,3.3194,3.3243,3.3151,3.0684,2.8635,2.7039,2.7366,2.7073,2.6446,2.6371,2.5941,2.5488,0.0,0.0,0.0,0.0,0.0,1.9026,1.9157,1.9116,1.8986,0.0,0.0,0.0,0.0,0.0,1.8679,1.8418,1.8456,1.8416,1.8228,1.8597,1.8909,1.9079,1.9257,1.9521,1.9877,1.9782,1.9519,1.9069,1.8858,1.851,1.8002,1.7791,1.7764,1.7879,1.8059,1.8168,0.0,0.0,0.0,0.0,2.2567,0.0,0.0,2.5738,2.7041,0.0,0.0,0.0,2.5387,2.5873,2.2905,0.0,0.0,0.0,0.0,0.0,0.0,0.0,0.0,0.0,0.0,0.0,0.0,0.0,2.0739,2.2196,2.4229,2.8405,2.9053,2.9415,3.1262,3.1593,3.1593,3.1593,3.1593,3.1593,3.1593,3.188,3.2066,3.2066,0.0,0.0,0.0,3.2682,3.2803,3.2803,3.2988,3.3098,3.3098,3.336,3.3617,3.3912,3.4119,3.4218,3.4218,3.4397,3.4496,3.4496,3.4496,3.4496,3.4496,3.4496,3.4386,3.4218,3.4218,3.3777,3.3002,3.17,2.9968,2.8121,2.8124,2.7482,2.6491,2.6555,2.6184,2.5709,0.0,0.0,1.8471,1.8988,1.8917,1.8874,1.907,1.892,1.8644,0.0,0.0,0.0,0.0,0.0,0.0,0.0,1.867,1.8765,1.8057,1.9312,1.9835,1.9292,1.9585,1.974,1.974,1.9238,1.9024,1.9127,1.8353,1.8019,1.8057,1.7784,1.7709,0.0,0.0,0.0,0.0,0.0,0.0,1.8409,2.1646,2.2814,0.0,0.0,2.6717,0.0,2.6726,2.6405,2.5954,2.7146,2.4755,0.0,0.0,0.0,0.0,0.0,1.598,0.0,0.0,0.0,0.0,0.0,0.0,0.0,2.153,2.2687,2.4212,2.9239,3.0212,3.0302,3.0642,3.0696,3.0696,3.0696,3.095,3.1262,3.156,3.1593,3.1593,3.1593,3.1593,0.0,3.1593,3.2033,3.2295,3.2295,3.2704,3.2956,3.301,3.3021,3.3043,3.3098,3.3486,3.3715,3.3715,3.4152,3.4332,3.4332,3.4332,3.4332,3.4332,3.4332,3.413,3.3715,3.3715,3.3003,3.1929,3.2765,3.1729,2.9518,2.8493,2.7222,2.6082,2.6653,2.6434,2.5877,0.0,0.0,1.8553,1.8812,1.8831,1.8589,1.7946,1.759,1.7511,0.0,0.0,0.0,0.0,0.0,0.0,0.0,1.7631,1.7571,1.7462,1.7831,1.8005,1.7904,1.8066,1.8139,1.8139,1.8143,1.8099,1.8018,1.7957,1.8113,1.8469,1.7783,1.7799,0.0,0.0,0.0,0.0,0.0,0.0,1.9761,2.2719,0.0,2.3103,2.7742,2.8847,2.7921,2.803,2.7827,2.7219,0.0,2.4472,2.3432,0.0,0.0,0.0,0.0,0.0,0.0,0.0,0.0,0.0,0.0,0.0,0.0,1.6754,1.6761,1.7567,2.1132,2.1568,2.2079,2.4607,2.5084,2.5084,2.5084,2.6933,2.9137,3.1306,3.1593,3.1593,3.1593,3.1593,0.0,3.1593,3.1691,3.1771,3.1771,3.1833,3.2088,3.2518,3.2551,3.2715,3.3076,3.3185,3.3229,3.3229,3.3327,3.3382,3.3382,3.3382,3.3382,3.3382,3.3382,3.3327,3.3229,3.3229,3.3067,3.2846,3.3007,3.1541,2.919,2.9695,2.887,2.7386,2.7182,2.6718,2.6241,0.0,1.7891,1.7815,1.755,1.7447,1.7413,1.7441,1.725,1.7269,0.0,0.0,0.0,0.0,0.0,0.0,0.0,0.0,0.0,0.0,1.6786,1.703,1.6859,1.7396,1.7669,1.7604,1.7676,1.7696,1.7699,1.7696,1.7772,1.7885,1.7568,1.7285,0.0,0.0,0.0,0.0,0.0,1.8314,2.0116,2.2602,0.0,2.4533,2.8139,2.9129,2.8571,2.8441,2.8126,2.7593,2.6255,2.446,0.0,0.0,2.1034,2.028,0.0,1.842,1.8778,0.0,0.0,0.0,1.5777,0.0,0.0,0.0,1.7236,1.7889,2.0873,2.1251,2.1557,2.3202,2.3505,2.3505,2.3505,2.5818,2.7592,2.7547,2.9881,3.1593,3.1593,3.1593,3.1593,3.1593,3.1593,3.1593,3.1593,3.1593,3.1713,3.199,3.2001,3.211,3.2339,3.2617,3.2748,3.2748,3.2977,3.3098,3.3098,3.3098,3.3098,3.3098,3.3098,3.2967,3.2748,3.2748,3.2606,3.235,3.235,3.1302,2.9742,2.9997,2.8917,2.7187,2.6986,2.671,2.6425,0.0,1.7151,1.6974,1.6293,1.6223,1.6451,1.7042,1.7,1.7019,1.7376,0.0,0.0,0.0,0.0,0.0,0.0,0.0,0.0,0.0,0.0,1.6795,1.6107,1.6857,1.724,1.7113,1.7113,1.723,1.7464,1.7349,1.7322,1.7387,1.7402,1.6946,0.0,0.0,1.7254,1.6007,0.0,0.0,2.0468,0.0,2.3893,2.5926,2.8008,2.878,2.8687,2.8407,2.7985,2.7484,2.7198,0.0,2.1781,2.3319,2.2015,0.0,0.0,0.0,0.0,0.0,0.0,0.0,0.0,0.0,1.5954,0.0,0.0,0.0,0.0,0.0,0.0,2.1607,0.0,0.0,2.1853,0.0,0.0,0.0,2.6729,0.0,3.0074,3.0986,3.1418,3.0924,3.088,3.1102,3.156,3.1167,3.1152,3.1724,3.1746,3.1746,3.1746,3.2167,3.2334,3.2241,3.2628,3.2813,3.2813,3.2813,3.2813,3.2813,3.2813,3.2617,3.2241,3.2241,3.2001,3.1593,3.1593,3.1142,3.0344,2.9868,2.8483,2.6818,2.6664,2.6591,2.6527,1.5846,1.626,1.6626,1.6192,1.6695,1.6936,1.6256,1.5944,1.5921,1.6317,0.0,0.0,0.0,0.0,0.0,0.0,0.0,0.0,1.8799,0.0,0.0,1.5743,1.5779,1.5796,1.573,1.573,1.6027,1.6639,1.6556,1.7062,1.8084,1.7618,1.7587,0.0,1.9358,0.0,0.0,0.0,1.973,0.0,2.1643,2.3237,0.0,2.8008,2.864,2.8418,2.8139,2.7739,2.7131,0.0,2.4993,2.3924,0.0,2.2216,0.0,0.0,0.0,0.0,0.0,0.0,0.0,0.0,1.5806,0.0,0.0,0.0,0.0,0.0,0.0,0.0,0.0,0.0,0.0,0.0,0.0,0.0,1.9544,2.1559,2.3419,2.455,2.8771,3.0714,2.8451,2.8325,2.9312,3.144,2.9628,2.9558,3.2171,3.2319,3.2319,3.2319,3.2375,3.218,3.1706,3.1735,3.1767,3.1767,3.1767,3.1767,3.1767,3.1767,3.1735,3.168,3.168,3.1658,3.1593,3.1593,3.1142,3.0313,2.9495,2.8558,2.7574,2.6872,2.6591,2.6582,1.6228,1.6137,0.0,1.5386,1.5566,1.5794,1.5825,1.5901,1.6052,1.6343,0.0,0.0,0.0,0.0,0.0,0.0,0.0,1.8719,0.0,0.0,0.0,0.0,0.0,0.0,1.5332,1.5819,1.6159,1.6329,1.6763,1.7162,1.7498,1.7437,1.7097,0.0,1.9233,0.0,1.7689,0.0,1.9707,0.0,0.0,0.0,0.0,2.7797,2.864,2.8371,2.8092,2.7762,2.7392,0.0,2.4903,0.0,0.0,0.0,0.0,0.0,0.0,0.0,0.0,0.0,0.0,0.0,0.0,0.0,0.0,0.0,1.3929,0.0,0.0,0.0,0.0,0.0,0.0,0.0,1.6722,0.0,0.0,0.0,2.2934,0.0,0.0,0.0,2.7311,0.0,0.0,0.0,2.9034,2.8918,3.2213,3.2384,3.2547,3.286,3.2572,3.2283,3.2066,3.1772,3.1593,3.1593,3.1593,3.1593,3.1593,3.1593,3.1593,3.1593,3.1593,3.1593,3.1593,3.1593,3.1388,3.1002,3.0188,2.9022,2.7753,2.7413,2.6999,2.6591,1.6861,0.0,0.0,0.0,1.5087,1.5346,1.565,0.0,0.0,0.0,0.0,0.0,1.514,1.6043,0.0,0.0,0.0,1.8892,0.0,0.0,1.7303,0.0,0.0,0.0,0.0,0.0,1.6192,1.623,1.6791,1.7078,1.7107,1.7329,1.6873,0.0,0.0,1.9439,1.8596,0.0,0.0,2.2256,2.2066,2.2838,2.4456,2.761,2.864,2.8371,2.8173,2.8012,2.7836,2.755,2.5155,0.0,2.6909,0.0,0.0,0.0,0.0,0.0,1.751,0.0,0.0,0.0,0.0,0.0,0.0,0.0,0.0,0.0,0.0,0.0,0.0,0.0,0.0,0.0,0.0,1.7216,0.0,0.0,0.0,0.0,0.0,0.0,0.0,2.5615,2.6671,3.0572,2.7903,2.7951,3.2169,3.2547,3.2809,3.3197,3.2809,3.2547,3.2384,3.1874,3.1593,3.1593,3.1593,3.1593,3.1593,3.1593,3.1593,3.1593,3.1593,3.1593,3.1593,3.1593,3.1593,3.1542,3.0961,2.9822,2.8439,2.7985,2.7439,2.6899,1.7383,1.669,0.0,0.0,0.0,0.0,0.0,0.0,0.0,0.0,0.0,0.0,0.0,0.0,0.0,0.0,0.0,2.4731,2.0655,0.0,1.9107,0.0,0.0,0.0,0.0,0.0,0.0,1.63,1.6266,1.6636,1.7384,1.7458,1.7372,0.0,1.8276,1.8781,1.8828,1.9408,2.1535,2.4481,2.429,2.3976,2.4,0.0,2.864,2.8395,2.8395,0.0,0.0,2.6805,2.6112,0.0,0.0,0.0,0.0,0.0,0.0,0.0,0.0,0.0,0.0,0.0,0.0,0.0,0.0,0.0,1.2927,0.0,0.0,0.0,0.0,0.0,0.0,0.0,0.0,0.0,0.0,0.0,0.0,0.0,0.0,0.0,0.0,2.1814,2.2384,2.852,2.5653,2.6187,3.2079,3.2885,3.3172,3.3197,3.3172,3.2935,3.242,3.1874,3.1593,3.1593,3.1593,3.1593,3.1593,3.1593,3.1593,3.1593,3.1593,3.1593,3.1593,3.1593,3.1593,3.1593,3.1567,3.1054,3.0094,2.8412,2.777,2.7645,0.0,0.0,0.0,0.0,0.0,0.0,0.0,1.4875,0.0,0.0,0.0,0.0,0.0,0.0,2.087,0.0,0.0,2.2315,1.9557,2.0018,0.0,0.0,0.0,1.6335,0.0,0.0,0.0,0.0,0.0,1.6861,1.7141,1.717,1.7105,0.0,0.0,1.9728,0.0,0.0,0.0,0.0,0.0,2.2582,2.4334,0.0,0.0,2.5502,2.763,2.8625,0.0,2.8457,2.7296,2.6313,2.7989,2.6198,2.376,2.508,2.4308,0.0,0.0,0.0,2.0226,1.6841,0.0,0.0,0.0,0.0,0.0,0.0,0.0,0.0,0.0,0.0,0.0,0.0,0.0,0.0,0.0,0.0,0.0,0.0,0.0,0.0,0.0,0.0,0.0,2.7832,2.6475,2.7624,3.2669,3.3097,3.352,3.4237,3.3917,3.3645,3.3459,3.2572,3.2142,3.2117,3.1772,3.1593,3.1593,3.1593,3.1593,3.1593,3.1593,3.1593,3.1593,3.1593,3.1593,3.1593,3.1593,3.1439,3.1054,2.9927,2.8784,2.7672,1.7129,0.0,0.0,0.0,0.0,0.0,0.0,0.0,0.0,0.0,1.6834,0.0,1.926,0.0,2.0979,0.0,2.2794,2.1918,1.9017,2.0633,0.0,1.7462,1.7864,0.0,0.0,0.0,0.0,0.0,0.0,1.6981,1.7002,1.7002,1.6739,1.6281,0.0,1.8779,2.1495,2.0058,2.1744,0.0,0.0,2.1042,0.0,0.0,2.3276,2.4333,0.0,2.8838,2.9256,2.9378,2.8501,2.7737,2.9906,2.7852,2.5073,2.7202,2.6072,2.3957,2.3186,2.294,0.0,0.0,1.8074,0.0,0.0,0.0,0.0,0.0,0.0,0.0,0.0,0.0,0.0,0.0,0.0,0.0,0.0,1.8283,0.0,0.0,0.0,0.0,0.0,0.0,2.179,2.611,2.5415,2.6592,0.0,0.0,3.3324,3.42,3.4089,3.3991,3.3991,3.3135,3.2597,3.2384,3.2041,3.1772,3.1593,3.1593,3.1593,3.1593,3.1593,3.1593,3.1593,3.1593,3.1593,3.1593,3.1593,3.1593,3.149,3.0703,2.9296,2.7672,0.0,0.0,0.0,0.0,1.5339,0.0,0.0,0.0,1.4187,0.0,1.661,1.7243,1.9625,2.1419,2.2462,2.2444,2.438,0.0,1.9353,2.2292,0.0,0.0,2.1324,2.288,2.3916,0.0,0.0,0.0,0.0,0.0,1.6898,1.6898,1.6235,1.5011,1.406,0.0,2.0047,1.9324,2.2315,2.7086,2.1773,1.9588,1.9525,1.9769,0.0,2.4878,2.7775,2.9086,2.9512,2.9512,2.9647,2.9853,3.0087,2.9976,2.9804,3.0065,2.9532,2.8474,2.6738,2.4822,2.283,2.0799,0.0,0.0,0.0,0.0,1.5134,0.0,0.0,0.0,0.0,0.0,0.0,0.0,0.0,0.0,0.0,0.0,0.0,0.0,0.0,0.0,0.0,1.7955,1.7984,2.3575,2.2715,2.343,0.0,0.0,3.2605,3.3189,3.3733,3.4017,3.404,3.352,3.296,3.2446,3.2409,3.2117,3.1593,3.1593,3.1593,3.1593,3.1593,3.1593,3.1593,3.1593,3.1593,3.1593,3.1553,3.1516,3.1388,3.0625,2.927,2.7672,1.6255,1.5577,1.4902,0.0,1.4603,1.4676,0.0,0.0,0.0,0.0,1.87,1.9747,2.3376,2.4365,2.4671,2.4472,2.5284,0.0,0.0,0.0,0.0,2.2241,2.2411,2.3174,2.4549,2.0814,0.0,1.8709,0.0,0.0,1.5507,1.5507,1.5148,1.4451,1.3214,1.4365,1.722,1.6571,1.8205,2.1161,2.0418,1.9805,0.0,0.0,2.3815,2.4878,2.7775,2.9086,2.9512,2.9512,2.9757,3.0063,2.9951,2.9561,2.9169,2.9338,2.8916,2.8223,2.7444,2.6842,2.5877,2.3453,2.2625,2.1738,0.0,0.0,0.0,0.0,0.0,0.0,0.0,0.0,0.0,0.0,0.0,0.0,0.0,0.0,0.0,0.0,0.0,0.0,1.8584,1.8151,1.958,2.3693,2.2933,0.0,0.0,0.0,0.0,3.32,3.3754,3.4186,3.458,3.4065,3.352,3.2985,3.2597,3.2117,3.1593,3.1593,3.1593,3.1593,3.1593,3.1593,3.1593,3.1593,3.1593,3.1542,3.0935,3.0318,2.9723,2.9513,2.8731,2.7672,1.5479,0.0,0.0,1.3119,0.0,0.0,1.5415,0.0,0.0,1.9499,1.9252,0.0,2.3872,2.4957,2.545,2.5492,2.5949,0.0,0.0,0.0,0.0,2.3608,2.4255,2.5039,2.5867,2.286,0.0,1.9445,0.0,0.0,1.4574,1.4677,1.4249,1.335,1.259,1.3485,1.5699,1.8041,1.9004,1.9153,2.1032,0.0,0.0,2.3558,2.5115,2.6583,2.8224,2.8978,2.9185,2.9185,2.937,2.9552,2.9408,2.9123,2.8807,2.8538,2.8439,2.8328,2.7757,2.7589,2.7251,2.5817,2.5229,2.4371,2.2025,2.1238,2.0572,0.0,0.0,0.0,0.0,0.0,0.0,0.0,0.0,0.0,0.0,0.0,0.0,0.0,0.0,0.0,1.8654,1.7698,1.8626,2.2357,2.1463,0.0,0.0,0.0,0.0,3.0777,3.1395,3.2561,3.4438,3.283,3.2546,3.3545,3.3235,3.2698,3.195,3.195,3.1823,3.1593,3.1593,3.1593,3.1593,3.1593,3.1593,3.1516,3.0703,2.9874,2.9055,2.8668,2.8215,2.7672,0.0,0.0,0.0,0.0,0.0,0.0,0.0,1.5339,0.0,1.9936,0.0,1.9882,2.3085,2.4598,2.5564,2.596,0.0,2.5872,2.3949,2.6002,2.6426,2.4515,2.6262,2.7309,2.7309,2.5507,0.0,0.0,0.0,0.0,1.3774,1.4022,1.3433,1.2111,1.2036,1.3038,0.0,2.0474,2.1343,1.941,2.2549,2.4078,2.4462,2.4386,2.6201,2.8803,2.8803,2.8803,2.878,2.8676,2.8699,2.878,2.8676,2.8734,2.863,2.7835,2.8094,2.849,2.7788,2.7589,2.7636,2.7731,2.7281,2.6366,2.4684,2.3814,2.2654,2.0217,1.9731,0.0,0.0,0.0,0.0,0.0,0.0,0.0,0.0,0.0,0.0,0.0,0.0,0.0,0.0,1.723,1.6999,0.0,0.0,0.0,0.0,0.0,0.0,2.8148,2.8839,3.0523,3.3299,0.0,3.1168,3.3344,3.3803,3.3472,3.2496,3.2434,3.2142,3.1695,3.1618,3.1593,3.1593,3.1593,3.1465,3.1197,3.051,2.9638,2.8668,2.7904,2.7645,2.7538,0.0,0.0,0.0,0.0,0.0,1.6561,1.8257,1.841,1.9296,2.1925,2.1909,2.2536,2.4904,2.5883,2.6384,2.6467,2.6915,0.0,0.0,0.0,0.0,2.6743,2.7097,2.7309,2.7309,2.5093,2.2627,0.0,0.0,0.0,1.2596,1.2764,1.2424,1.1681,1.1177,1.258,1.5363,1.6588,0.0,1.9554,2.2967,2.412,2.4081,2.6856,2.8289,2.8803,2.8803,2.8803,2.8699,2.8023,2.8245,2.8676,2.8023,2.8269,2.863,2.7835,2.7707,2.7788,2.7636,2.7589,2.7765,2.8409,2.849,2.8138,2.7155,2.6818,2.6429,2.5361,2.4618,2.3894,2.298,0.0,0.0,0.0,0.0,0.0,0.0,0.0,0.0,0.0,0.0,0.0,0.0,0.0,0.0,0.0,0.0,0.0,0.0,0.0,0.0,0.0,3.153,0.0,0.0,0.0,3.2059,2.9826,3.2651,3.3669,3.3047,3.2597,3.2345,3.2243,3.1797,3.1593,3.1593,3.1593,3.0785,2.9513,2.9381,2.8395,2.7035,2.6881,2.6818,2.6791,0.0,0.0,0.0,0.0,0.0,0.0,0.0,2.1623,0.0,2.3092,2.2637,2.2931,2.4645,2.5887,2.6708,2.6933,2.7185,2.7309,2.7309,2.7309,2.7309,2.7309,2.7309,0.0,2.7309,0.0,2.359,1.9435,0.0,0.0,0.0,1.2038,1.1895,1.1439,1.2471,1.3729,0.0,0.0,0.0,2.1839,2.5318,2.6562,2.6475,2.8157,2.8803,2.8803,2.8803,2.8803,2.8746,2.8339,2.849,2.8723,2.8339,2.849,2.856,2.7376,2.7305,2.7518,2.7139,2.702,2.7305,2.849,2.849,2.8198,2.8222,2.7906,2.7494,2.7139,2.6446,2.5491,2.406,2.1807,0.0,0.0,0.0,0.0,0.0,0.0,0.0,0.0,0.0,0.0,0.0,0.0,0.0,0.0,0.0,0.0,0.0,0.0,0.0,0.0,0.0,0.0,0.0,0.0,0.0,3.1567,3.3209,3.3855,3.3595,3.306,3.2647,3.2359,3.1823,3.1593,3.1567,3.1157,3.051,2.9681,2.8774,2.7941,2.7179,2.6745,2.6591,2.6591,0.0,1.1269,0.0,0.0,1.6543,0.0,2.1268,2.3883,2.5218,2.4142,2.3455,2.3449,2.4523,2.5888,2.6915,2.7278,2.7309,2.7309,2.7309,2.7309,2.7309,2.7309,2.7309,2.7309,2.7309,2.7309,2.4915,0.0,0.0,0.0,0.0,0.0,0.0,0.0,0.0,0.0,0.0,0.0,2.4217,2.4942,2.7687,2.8803,2.8803,2.8803,2.8803,2.878,2.8606,2.8536,2.8513,2.8362,2.842,2.8513,2.8373,2.842,2.8315,2.7091,2.7139,2.7471,2.6877,2.6733,2.7078,2.8443,2.8315,2.8023,2.8653,2.8315,2.7859,2.7859,2.7387,2.6331,2.4155,2.2939,0.0,0.0,0.0,0.0,0.0,0.0,0.0,0.0,0.0,0.0,0.0,0.0,0.0,0.0,0.0,0.0,0.0,0.0,0.0,0.0,0.0,2.8305,3.0584,0.0,3.0231,0.0,3.3586,3.3994,3.3974,3.3562,3.3135,3.2686,3.2041,3.1618,3.1285,3.0651,3.0183,2.9701,2.8332,2.7699,2.7466,2.6818,2.6591,2.6591,0.0,0.0,0.0,0.0,0.0,0.0,0.0,2.3922,2.5624,2.568,2.5772,2.5961,2.6322,2.6887,2.7258,2.7299,2.7309,2.7309,2.7309,2.7309,2.7309,2.7309,2.7309,2.7309,2.7309,2.7309,2.586,0.0,0.0,0.0,0.0,0.0,0.0,0.0,0.0,0.0,0.0,2.3969,2.5824,2.8332,2.8672,2.8803,2.8803,2.8803,2.8803,2.8699,2.7977,2.7707,2.7613,2.6935,2.7173,2.7589,2.6924,2.7163,2.7683,2.7542,2.7542,2.7589,2.7518,2.7494,2.7707,2.8583,2.8746,2.8699,2.878,2.8746,2.8687,2.8687,2.863,2.7582,2.4229,2.3866,2.3424,0.0,0.0,0.0,0.0,0.0,0.0,0.0,0.0,0.0,0.0,0.0,0.0,0.0,0.0,0.0,0.0,0.0,0.0,2.7714,0.0,2.6313,2.4441,2.951,3.092,2.8702,3.2282,3.3994,3.4007,3.3951,3.3892,3.3782,3.2773,3.1633,3.0521,3.0417,2.9454,2.8038,2.7851,2.7341,2.6691,2.6646,2.6591,2.6591,0.0,0.0,0.0,0.0,0.0,0.0,0.0,2.4877,2.5584,2.6232,2.6264,2.6405,2.6946,2.7195,2.7309,2.7309,2.7309,2.7309,2.7309,2.7309,2.7309,2.7309,2.7309,2.7309,2.7309,2.7309,2.5962,0.0,0.0,0.0,0.0,0.0,0.0,0.0,0.0,2.1912,2.4445,2.6065,2.7551,2.8803,2.8803,2.8803,2.8803,2.8803,2.8803,2.8746,2.8432,2.8315,2.8245,2.7744,2.7579,2.7542,2.7258,2.7895,2.8654,2.8166,2.8026,2.8026,2.8026,2.7484,2.7305,2.8828,2.8642,2.8281,2.9047,2.9012,2.8803,2.8803,2.8803,2.837,2.6977,2.5572,2.4835,0.0,0.0,0.0,0.0,0.0,0.0,0.0,0.0,0.0,0.0,0.0,0.0,0.0,0.0,0.0,0.0,0.0,0.0,2.5394,0.0,2.8759,2.6384,3.013,3.1603,3.0774,3.2338,3.3417,3.3994,3.3681,3.3526,3.3471,3.2723,3.1826,3.0811,2.9969,2.889,2.7743,2.726,2.6872,2.6591,2.6591,2.6591,2.6591,1.8975,0.0,1.8659,0.0,2.2263,2.2724,2.5479,2.5506,2.5541,2.6476,2.6313,2.641,2.7206,2.7309,2.7309,2.7309,2.7309,2.7309,2.7309,2.7309,2.7309,2.7309,2.7309,0.0,2.7309,2.7309,2.6356,2.4406,2.1874,0.0,0.0,0.0,0.0,0.0,2.3167,2.4602,2.5769,2.7702,2.8617,2.8803,2.8803,2.8896,2.9001,2.9001,2.9001,2.9012,2.8908,2.8792,2.8585,2.8296,2.8109,2.8036,2.8036,2.855,2.9118,2.8922,2.8865,2.8865,2.8865,2.8236,2.7942,2.9359,2.9025,2.8597,2.9497,2.9347,2.9001,2.9001,2.9117,2.9209,2.9209,2.7657,2.6765,2.7911,0.0,0.0,0.0,0.0,0.0,0.0,0.0,2.2627,2.4544,0.0,0.0,0.0,0.0,0.0,0.0,0.0,0.0,0.0,0.0,0.0,0.0,3.0495,3.1887,3.2285,3.2418,3.2864,3.355,3.347,3.3437,3.3396,3.2611,3.1866,3.1073,2.9398,2.8359,2.7726,2.6899,2.6591,2.6591,2.6591,2.6591,2.6591,2.1015,1.9415,1.9337,2.4887,2.3603,2.2724,2.5479,2.5506,2.5541,2.6476,2.6201,2.625,2.7206,2.7309,2.7309,2.7309,2.7309,2.7309,2.7309,2.7309,2.7309,0.0,0.0,2.7309,2.7309,2.7309,2.7289,2.7258,0.0,0.0,2.4235,0.0,2.1478,2.4052,2.3805,2.5445,2.8364,2.8676,2.8803,2.8803,2.8803,2.9071,2.9485,2.9485,2.9485,2.9462,2.9187,2.8749,2.8272,2.7994,2.8425,2.9084,2.9084,2.8725,2.8563,2.9818,3.0193,3.0193,3.0193,3.017,3.017,3.0193,3.0193,3.017,3.0193,2.9829,2.9485,2.9485,2.9852,3.0193,3.0193,3.017,2.9311,2.6835,0.0,0.0,0.0,0.0,0.0,0.0,2.4134,2.3779,2.685,0.0,0.0,0.0,0.0,0.0,0.0,0.0,0.0,2.7777,2.7457,0.0,2.7898,3.0423,3.1705,3.1729,3.226,3.2515,3.2551,3.3549,3.3982,3.3917,3.2588,3.1702,3.1021,2.8748,2.7797,2.7726,2.6899,2.6591,2.6591,2.6591,2.6591,2.6591,2.4364,2.3845,2.3821,2.5579,2.5182,2.5006,2.618,2.598,2.5997,2.6954,2.6672,2.6602,2.7237,2.7309,2.7309,0.0,2.7309,2.7309,0.0,2.7309,2.7309,2.7309,2.7309,2.7309,2.7309,2.7309,2.7381,2.7489,0.0,0.0,0.0,2.3599,2.4646,2.7292,2.7206,2.773,2.8687,2.8757,2.8803,2.8803,2.8803,2.8896,2.9024,2.9024,2.9209,2.9485,2.9405,2.9474,2.9623,2.9863,2.9897,2.9977,3.0656,3.0509,3.0147,3.0555,3.0679,3.0679,3.0679,3.0442,3.0284,3.0612,3.0442,3.0284,3.06,3.0306,2.9988,2.9988,3.0102,3.0193,3.0193,3.0193,2.9929,2.9126,0.0,0.0,0.0,0.0,0.0,0.0,2.0504,2.0072,0.0,2.1795,0.0,0.0,0.0,0.0,0.0,0.0,0.0,0.0,2.8451,0.0,2.8128,3.0495,3.1705,3.1705,3.1863,3.2152,3.2539,3.3549,3.3995,3.3922,3.2592,3.1564,3.0706,2.8658,2.7466,2.6954,2.6691,2.6591,2.6591,2.6591,2.6591,2.6591,2.5895,2.5895,2.5895,2.5895,2.6059,2.6256,2.6562,2.6356,2.6433,2.7198,2.6903,2.6768,2.7258,2.7309,0.0,2.7309,2.7309,2.7309,2.7309,2.7309,2.7309,2.7309,2.7309,2.7333,2.7404,0.0,0.0,2.7749,2.6265,2.5742,2.6186,2.6185,2.7129,2.8803,2.8803,2.8803,2.8803,2.8803,2.8803,2.8803,2.8803,2.8919,2.9047,2.9047,2.9232,2.9554,2.9897,3.0102,3.0306,3.0959,3.1004,3.087,3.1506,3.1461,3.1195,3.1195,3.1195,3.1195,3.1195,3.0994,3.0825,3.1128,3.0982,3.078,3.0881,3.0837,3.0713,3.051,3.0623,3.0758,3.0758,3.0758,3.0758,3.0758,3.0758,3.0338,0.0,0.0,0.0,0.0,0.0,0.0,0.0,2.3532,0.0,0.0,0.0,0.0,0.0,0.0,0.0,2.672,2.9938,0.0,2.9529,3.0982,3.1705,3.1705,3.1705,3.1984,3.2527,3.3141,3.3421,3.3312,3.195,3.1047,3.0385,2.8339,2.7305,2.7026,2.6718,2.6591,2.6591,2.6591,2.6591,2.6591,2.595,2.5929,0.0,0.0,2.6355,0.0,2.6682,2.6657,2.6816,2.7271,2.6932,2.6809,2.7234,2.7309,2.7309,2.7309,0.0,0.0,0.0,2.7309,2.7309,2.7309,2.7309,2.7428,2.7631,2.7631,2.7773,2.8021,2.829,2.8558,2.8803,2.8803,2.8803,2.8803,2.8803,2.8803,2.8803,2.8803,2.8803,2.8803,2.8803,2.9047,2.9462,2.9462,2.9462,2.9623,3.0532,3.0578,3.0397,3.1373,3.1705,3.1705,3.1705,3.1705,3.1705,3.1705,3.1705,3.1705,3.1705,3.1705,3.1705,3.1705,3.1705,3.1572,3.1083,3.135,3.155,3.1061,3.135,3.1705,3.1705,3.1705,3.1705,3.1705,3.1502,3.0281,2.7222,0.0,0.0,0.0,0.0,0.0,0.0,2.7818,2.8819,0.0,0.0,0.0,0.0,0.0,2.7533,3.156,3.1705,3.1705,3.1705,3.1705,3.1705,3.1705,3.1705,3.1915,3.234,3.2388,3.2323,3.2121,3.0788,3.0187,3.0016,2.7885,2.7278,2.7645,2.6899,2.6591,2.6591,2.6591,2.6591,2.6591,0.0,0.0,2.6314,2.6868,2.6932,2.7039,2.7385,2.7265,2.7236,2.7481,2.7309,2.7185,2.7299,2.7309,2.7309,2.7309,2.7309,2.7309,2.7309,2.7309,2.7381,2.7513,2.7523,2.7655,2.7904,2.7904,2.8055,2.8301,2.8571,2.8734,2.8803,2.8803,2.8803,2.8803,2.8803,2.8803,2.8803,2.8803,2.8803,2.8803,2.8803,2.8873,2.8966,2.8966,2.9186,2.9577,3.017,3.051,3.0825,3.1484,3.1705,3.1705,3.1705,3.1705,3.1705,3.1705,3.1705,3.1705,3.1705,3.1705,3.1705,3.1705,3.1705,3.1661,3.1528,3.1617,3.1661,3.1528,3.1617,3.1705,3.1705,3.1705,3.1705,3.1705,2.9599,2.7684,2.6911,2.4634,0.0,0.0,2.2162,2.3451,2.674,2.7071,2.7613,0.0,0.0,0.0,0.0,2.8051,2.879,3.1609,3.1705,3.1705,3.1705,3.1705,3.1705,3.1705,3.1705,3.1354,3.0763,3.1158,3.0925,3.0153,2.9507,2.9086,2.8744,2.7512,2.6935,2.6872,2.6664,2.6591,2.6591,2.6591,2.6591,2.6591,2.6759,2.6671,2.6648,2.6918,2.7076,2.7222,2.7491,2.7475,2.7475,2.7576,2.7428,2.7309,2.7309,2.7309,2.7309,2.7309,2.7309,2.7309,2.7309,2.7102,2.7105,2.7441,2.7267,2.734,2.7809,2.782,2.8008,2.8395,2.8664,2.8803,2.8803,2.8803,2.8803,2.8803,2.8803,2.8803,2.8803,2.8803,2.8803,2.8803,2.8803,2.8803,2.8803,2.8803,2.8966,2.9278,2.9943,3.0352,3.069,3.1439,3.1705,3.1705,3.1705,3.1705,3.1705,3.1705,3.1705,3.1705,3.1705,3.1705,3.1705,3.1705,3.1705,3.1705,3.1705,3.1705,3.1705,3.1705,3.1705,3.1705,3.1705,3.1705,3.1705,3.1705,2.8943,2.6796,2.6796,2.3973,0.0,2.3961,2.4128,2.5421,2.8706,2.9039,2.9249,2.976,0.0,0.0,2.9804,2.9767,3.035,3.1669,3.1705,3.1705,3.1705,3.1705,3.1705,3.1705,3.1705,3.1171,3.0204,3.0491,2.9955,2.8759,2.8545,2.8046,2.737,2.7038,2.6665,2.6343,2.6545,2.6591,2.6591,2.6591,2.6591,2.6591,2.705,2.7004,2.6935,2.6874,2.7145,2.7342,2.7342,2.7483,2.7594,2.757,2.7404,2.7309,2.7309,2.7309,2.7309,2.7309,2.7309,2.7309,2.7309,2.6936,2.6864,2.7243,2.6869,2.6941,2.7539,2.767,2.7961,2.8465,2.8687,2.8734,2.863,2.8746,2.8734,2.863,2.8757,2.8803,2.8803,2.8803,2.8803,2.8803,2.8803,2.8803,2.8803,2.8803,2.8803,2.8919,2.9783,3.008,3.0261,3.1239,3.1572,3.1594,3.1661,3.1705,3.1705,3.1705,3.1705,3.1705,3.1705,3.1705,3.1705,3.1705,3.1705,3.1705,3.1705,3.1705,3.1705,3.1705,3.1705,3.1705,3.1705,3.1705,3.1526,3.1002,2.8195,2.6061,2.6042,0.0,2.3118,2.6414,2.7234,2.8635,3.1418,3.1705,3.1705,3.1705,3.1705,3.1705,0.0,3.1705,3.1705,3.1705,3.1705,3.1705,3.1705,3.1705,3.1705,3.1705,3.155,3.0958,2.9977,2.9818,2.8944,2.7563,2.7649,2.7078,2.6141,2.6541,2.6443,2.6022,2.638,2.6563,2.6591,2.6591,2.6591,2.6591,2.7096,2.6927,2.696,2.7946,2.7813,2.755,2.755,2.7589,2.7536,2.7381,2.7309,2.7309,2.7309,2.7309,2.7309,2.7309,2.7309,2.7309,2.7309,2.7237,2.7155,2.7062,2.6978,2.7073,2.7345,2.797,2.8441,2.8734,2.878,2.8456,2.7801,2.849,2.8432,2.7835,2.849,2.8803,2.8803,2.8803,2.8803,2.8803,2.8803,2.8803,2.8803,2.8803,2.8803,2.8873,2.9416,2.96,2.976,3.069,3.1016,3.1105,3.155,3.1705,3.1705,3.1705,3.1705,3.1705,3.1705,3.1705,3.1705,3.1705,3.1705,3.1705,3.1705,3.1705,3.1705,3.1705,3.1705,3.1705,3.1705,3.1705,3.0762,2.7854,2.4725,2.2618,2.2509,0.0,2.3118,2.6414,2.9243,3.1153,3.1657,3.1705,3.1705,3.1705,3.1705,3.1705,3.1705,3.1705,3.1705,3.1705,3.1705,3.1705,3.1705,3.1705,3.1705,3.1683,3.0846,2.9909,2.8912,2.8051,2.7074,2.6069,2.6468,2.6247,2.5645,2.6096,2.6171,2.6021,2.6058,2.6297,2.6591,2.6591,2.6591,2.6591,2.7073,2.6838,2.6731,2.7133,2.6932,2.6762,2.7012,2.7053,2.7113,2.7278,2.7309,2.7309,2.7309,2.7309,2.7309,2.7309,2.7309,2.7309,2.7309,2.7047,2.689,2.6798,2.6547,2.6492,2.6709,2.7565,2.8076,2.8214,2.8174,2.7953,2.7589,2.7576,2.7363,2.7044,2.7812,2.8151,2.8175,2.8606,2.8803,2.8803,2.8803,2.8803,2.8803,2.8803,2.8803,2.8873,2.9324,2.9669,2.9988,3.0679,3.1083,3.1373,3.1617,3.1705,3.1705,3.1705,3.1705,3.1705,3.1705,3.1705,3.1705,3.1705,3.1705,3.1705,3.1705,3.1705,3.1705,3.1705,3.1705,3.1705,3.1705,3.1705,3.0605,2.7248,2.5481,0.0,0.0,2.4492,2.5762,2.9051,3.0771,3.1705,3.1705,3.1705,3.1705,3.1705,3.1705,3.1705,3.1705,3.1705,3.1705,3.1705,3.1705,3.1705,3.1705,3.1705,3.1427,3.0891,3.0418,2.9395,2.7887,2.7416,2.6638,2.5703,2.5923,2.5705,2.5219,2.5636,2.5631,2.5388,2.582,2.6104,2.6306,2.6536,2.6591,2.65,2.6854,2.6666,2.6465,2.627,2.6078,2.609,2.6397,2.6426,2.656,2.6936,2.6964,2.7029,2.7133,2.7143,2.7185,2.737,2.7381,2.7404,2.7465,2.7131,2.6868,2.6695,2.6293,2.6104,2.6222,2.7093,2.7488,2.7364,2.7431,2.7267,2.6913,2.6645,2.6408,2.6264,2.7186,2.7589,2.766,2.8466,2.8803,2.8803,2.8803,2.8803,2.8803,2.8803,2.8803,2.885,2.9209,2.9646,3.0102,3.0578,3.1083,3.1528,3.1661,3.1705,3.1705,3.1705,3.1705,3.1705,3.1705,3.1705,3.1705,3.1705,3.1705,3.1705,3.1705,3.1705,3.1705,3.1705,3.1705,3.1705,3.1705,3.1705,3.0605,2.7299,0.0,0.0,0.0,2.6778,2.8027,3.131,3.1705,3.1705,3.1705,3.1705,3.1705,3.1705,3.1705,3.1705,3.1705,3.1705,3.1705,3.1705,3.1705,3.1705,3.1705,3.1705,3.1193,3.0192,2.9954,2.8935,2.7189,2.6962,2.6442,2.5693,2.5693,2.543,2.5009,2.5248,2.517,2.4932,2.5497,2.5765,2.5902,2.6315,2.6472,2.6309,2.6314,2.6303,2.6247,2.6295,2.6223,2.6133,2.5962,2.5949,2.596,2.6001,2.6001,2.6167,2.6592,2.6643,2.6913,2.7529,2.7584,2.7678,2.7927,2.7919,2.7613,2.7003,2.6689,2.6468,2.6303,2.6788,2.6847,2.6402,2.6772,2.625,2.4941,2.6002,2.6085,2.5465,2.6938,2.7589,2.766,2.8466,2.8803,2.8803,2.8803,2.8803,2.8803,2.8803,2.8803,2.8803,2.885,2.914,2.9623,3.008,3.0555,3.1061,3.1528,3.1705,3.1705,3.1705,3.1705,3.1705,3.1705,3.1705,3.1705,3.1705,3.1705,3.1705,3.1705,3.1705,3.1705,3.1705,3.1705,3.1705,3.1705,3.1705,3.0584,2.7171,0.0,0.0,2.664,2.6728,2.8027,3.131,3.1705,3.1705,3.1705,3.1705,3.1705,3.1705,3.1705,3.1705,3.1705,3.1705,3.1705,3.1705,3.1705,3.1705,3.1705,3.1705,3.1193,3.0192,2.9258,2.8227,2.7166,2.6235,2.5781,2.5693,2.5693,2.5538,2.5235,2.5043,2.4998,2.5068,2.4932,2.5122,2.5489,2.5911,2.6031,2.5916,2.603,2.5935,2.584,2.5851,2.5591,2.5458,2.5685,2.556,2.5619,2.6036,2.6078,2.6219,2.6566,2.6609,2.6695,2.6954,2.6987,2.716,2.7538,2.756,2.7452,2.7192,2.6683,2.6378,2.6314,2.6596,2.6453,2.5882,2.5805,2.5264,2.4327,2.455,2.4486,2.4253,2.5581,2.6446,2.6972,2.7741,2.8339,2.8803,2.8803,2.8803,2.8803,2.8803,2.8803,2.8803,2.8803,2.9094,2.9577,3.0034,3.051,3.0994,3.1528,3.1705,3.1705,3.1705,3.1705,3.1705,3.1705,3.1705,3.1705,3.1705,3.1705,3.1705,3.1705,3.1705,3.1705,3.1705,3.1705,3.1705,3.1705,3.1705,3.0605,2.726,0.0,2.9102,2.7021,2.8531,3.0293,3.1539,3.1705,3.1705,3.1705,3.1705,3.1705,3.1705,3.1705,3.1705,3.1705,3.1705,3.1705,3.1705,3.1705,3.1705,3.1705,3.1082,3.026,2.9258,2.8262,2.7237,2.6259,2.5868,2.5693,2.5693,2.5693,2.5538,2.5284,2.5005,2.4928,2.4964,2.4852,2.496,2.5254,2.5523,2.5306,2.4735,2.5812,2.5749,2.5644,2.5496,2.5274,2.5211,2.5442,2.5332,2.5371,2.5829,2.5893,2.6012,2.6337,2.6369,2.6478,2.6704,2.6737,2.6899,2.7254,2.7309,2.734,2.7422,2.6907,2.6563,2.639,2.6174,2.5851,2.5387,2.484,2.4336,2.3894,2.3721,2.3537,2.3373,2.4789,2.5753,2.6384,2.7219,2.8047,2.8803,2.8803,2.8803,2.8803,2.8803,2.8803,2.8803,2.8803,2.9094,2.9577,3.0034,3.051,3.0994,3.1528,3.1705,3.1705,3.1705,3.1705,3.1705,3.1705,3.1705,3.1705,3.1705,3.1705,3.1705,3.1705,3.1705,3.1705,3.1705,3.1705,3.1705,3.1705,3.1705,3.0951,2.8694,3.0233,3.0903,2.8647,3.0281,3.1705,3.1705,3.1705,3.1705,3.1705,3.1705,3.1705,3.1705,3.1705,3.1705,3.1705,3.1705,3.1705,3.1705,3.1405,3.1238,3.1238,3.0869,3.0011,2.868,2.8004,2.6972,2.5693,2.5693,2.5693,2.5693,2.5693,2.5586,2.5416,2.5137,2.5039,2.5009,2.4889,2.4867,2.4945,2.5219,2.4691,2.3693,2.5644,2.5749,2.5749,2.5285,2.5422,2.5517,2.5242,2.52,2.52,2.52,2.52,2.5381,2.5849,2.5902,2.6192,2.6928,2.6993,2.7071,2.7282,2.7293,2.7422,2.7696,2.7433,2.7075,2.6627,2.5498,2.4903,2.4882,2.3888,2.3387,2.3396,2.3787,2.3602,2.2993,2.4853,2.5769,2.5973,2.7108,2.8036,2.8803,2.8792,2.8803,2.8803,2.8803,2.8803,2.8803,2.8803,2.9105,2.9577,3.0034,3.051,3.0994,3.1516,3.1705,3.1693,3.1693,3.1693,3.1693,3.1693,3.1693,3.1705,3.1705,3.1705,3.1705,3.1705,3.1705,3.1693,3.1693,3.1693,3.1693,3.1693,3.1693,3.1705,3.1705,3.1705,3.1705,3.1705,3.1705,3.1705,3.1705,3.1705,3.1705,3.1705,3.1705,3.1705,3.1705,3.1705,3.1705,3.1683,3.1683,3.1683,3.1683,3.07,3.0192,3.0192,3.1171,3.0655,2.868,2.868,2.7626,2.5693,2.5693,2.5693,2.5693,2.5693,2.5693,2.5684,2.5406,2.5308,2.5284,2.5005,2.4735,2.456,2.4926,2.4228,2.297,2.5812,2.5864,2.5864,2.5728,2.5644,2.5559,2.5485,2.5317,2.5264,2.5464,2.5475,2.5592,2.5881,2.5902,2.5978,2.6215,2.6237,2.6389,2.6791,2.7119,2.7336,2.7411,2.7042,2.69,2.7086,2.6119,2.5115,2.4124,2.3822,2.3178,2.2238,2.3161,2.3465,2.3311,2.4611,2.526,2.5398,2.6252,2.6961,2.759,2.8038,2.8451,2.8803,2.8803,2.8803,2.8803,2.8803,2.8896,2.9117,2.9943,3.0284,3.0497,3.0976,3.0877,3.0576,3.0576,3.0576,3.0576,3.0576,3.0576,3.0756,3.1524,3.1406,3.1129,3.1129,3.0841,3.0576,3.0576,3.0576,3.0576,3.0576,3.0576,3.0696,3.1069,3.1129,3.1262,3.1657,3.1705,3.1705,3.1705,3.1705,3.1705,3.1705,3.1827,3.1849,3.1705,3.1705,3.1383,3.0689,3.0836,3.0611,2.9886,2.9589,2.9418,2.9418,2.8843,2.8238,2.7628,2.6924,2.6284,2.5693,2.5693,2.5693,2.5693,2.5693,2.5693,2.5684,2.5406,2.5406,2.5513,2.4883,2.4686,2.4671,2.3663,2.2664,2.1697,2.5895,2.5895,2.5895,2.5895,2.5801,2.5707,2.5707,2.5359,2.5221,2.5665,2.5496,2.5475,2.5864,2.5895,2.5895,2.5895,2.5895,2.6026,2.63,2.6594,2.6846,2.7009,2.6573,2.654,2.7009,2.6033,2.5221,2.4627,2.4081,2.3497,2.2982,2.3663,2.3848,2.3592,2.4406,2.4957,2.5327,2.5624,2.6292,2.7155,2.7561,2.7927,2.8212,2.8212,2.8212,2.8212,2.8212,2.8212,2.8337,2.9284,2.9863,3.0213,3.0491,3.0516,3.0419,3.0419,3.0419,3.0419,3.0419,3.0263,3.0263,3.0901,3.0817,3.0576,3.0576,3.0335,3.0107,3.0107,3.0107,3.0107,3.0107,3.0107,3.0215,3.0528,3.0576,3.0696,3.1021,3.1238,3.137,3.137,3.123,3.1149,3.125,3.1026,3.0858,3.0825,3.0723,3.0577,3.0362,3.0023,2.9749,2.9532,2.8761,2.8342,2.8342,2.7186,2.6805,2.7189,2.6576,2.6076,2.5693,2.5693,2.5693,2.5693,2.5693,2.5693,2.5693,2.5538,2.5562,2.5635,2.5064,2.4603,2.414,2.3061,2.1722,2.0379,2.5885,2.5895,2.5895,2.5895,2.5895,2.5895,2.5895,2.538,2.52,2.5812,2.5359,2.5232,2.5833,2.5895,2.5895,2.5895,2.5895,2.5895,2.5895,2.5895,2.6103,2.6518,2.6136,2.6103,2.654,2.552,2.5232,2.5707,2.4498,2.4177,2.4711,2.4839,2.4551,2.3928,2.4343,2.4876,2.5434,2.5241,2.5908,2.7062,2.7184,2.7249,2.7293,2.7293,2.7293,2.7293,2.7293,2.7293,2.7448,2.8455,2.9382,3.0116,3.0158,3.048,3.0829,3.0829,3.0829,3.0829,3.0829,3.0468,3.0107,3.0107,3.0107,3.0095,3.0046,2.9998,2.9962,2.9962,2.9962,2.9962,2.9962,2.9962,2.9998,3.0074,3.0107,3.0143,3.0239,3.066,3.0951,3.0886,3.0498,3.0317,3.0476,2.9635,2.9233,2.9497,2.9256,2.9452,3.0295,2.9246,2.9004,2.9795,2.8051,2.7094,2.7094,2.6173,2.6163,2.7081,2.7081,2.66,2.5693,2.5693,2.5693,2.5693,2.5693,2.5693,2.5693,2.5693,2.5693,2.5659,2.526,2.4387,2.3235,2.276,2.1134,1.9176,2.5791,2.5895,2.5895,2.5895,2.5895,2.5895,2.5895,2.577,2.5728,2.5874,2.577,2.5728,2.5874,2.5895,2.5895,2.5895,2.5895,2.5895,2.5895,2.5895,2.595,2.6059,2.5961,2.595,2.6059,2.5803,2.52,2.4252,2.453,2.4187,2.3276,2.4391,2.4818,2.469,2.5307,2.5072,2.4255,2.5284,2.5494,2.5194,2.6302,2.6966,2.7293,2.7293,2.7293,2.7293,2.7293,2.7293,2.7502,2.8863,2.9703,3.0249,3.0604,3.0516,3.0275,3.0275,3.0275,3.0275,3.0275,3.0191,3.0107,3.0107,3.0107,2.9998,2.9569,2.9148,2.8847,2.8847,2.8847,2.8847,2.8847,2.8847,2.9124,2.9953,3.0107,3.0395,3.1226,3.1442,3.1316,3.0728,3.0575,3.0318,2.9783,2.9348,2.9291,2.9704,2.9337,2.8852,2.8294,2.8188,2.7788,2.6996,2.6576,2.6346,2.6346,2.5917,2.5805,2.6028,2.6028,2.5917,2.5693,2.5693,2.5693,2.5693,2.5693,2.5693,2.5693,2.5693,2.5693,2.5562,2.4254,2.3567,2.3035,2.0828,1.9661,1.9072,2.5274,2.5422,2.5506,2.5833,2.5644,2.5422,2.5422,2.5115,2.502,2.538,2.5422,2.5528,2.5874,2.5895,2.5895,2.5895,2.5895,2.5895,2.5895,2.5895,2.5895,2.5895,2.5895,2.5895,2.5895,2.5895,2.5528,2.4807,2.5179,2.4999,2.4283,2.5041,2.538,2.538,2.5401,2.52,2.4829,2.5242,2.5317,2.5239,2.5969,2.6409,2.6638,2.6638,2.6638,2.6638,2.6638,2.691,2.7446,2.8439,2.9255,2.9863,3.011,3.0333,3.048,3.048,3.048,3.048,3.048,3.0299,3.0107,3.0107,3.0107,3.0034,2.9737,2.946,2.9256,2.9256,2.9256,2.9256,2.9256,2.9256,2.9448,3.0001,3.0107,3.0299,3.0853,3.0737,3.066,3.0858,2.9874,2.8933,2.8326,2.8139,2.8151,2.8409,2.7942,2.766,2.7589,2.7159,2.6812,2.6624,2.6163,2.5917,2.5917,2.5781,2.5693,2.5693,2.5693,2.5693,2.5693,2.5693,2.5693,2.5693,2.5693,2.5693,2.5693,2.5693,2.5406,2.4839,2.3716,2.2651,2.1532,1.9808,1.8864,1.8356,2.4754,2.4903,2.5073,2.5644,2.5274,2.4903,2.4903,2.4477,2.437,2.4988,2.5073,2.5274,2.5833,2.5895,2.5895,2.5895,2.5895,2.5895,2.5895,2.5895,2.5895,2.5895,2.5895,2.5895,2.5895,2.5895,2.5833,2.5728,2.5833,2.5833,2.5728,2.5853,2.5895,2.5874,2.5317,2.5317,2.5707,2.5253,2.5338,2.5728,2.5853,2.5895,2.5895,2.5895,2.5895,2.5917,2.5994,2.6621,2.7485,2.7963,2.871,2.9441,2.9613,3.0243,3.0925,3.1011,3.1033,3.1033,3.1033,3.0708,3.0371,3.0371,3.0371,3.0371,3.0371,3.0239,3.0107,3.0107,3.0107,3.0107,3.0107,3.0107,3.0143,3.0227,3.0239,3.0275,3.0414,2.9943,2.9948,3.0855,2.8932,2.7397,2.702,2.6924,2.69,2.69,2.6448,2.6514,2.7305,2.6342,2.6115,2.6914,2.6115,2.5693,2.5693,2.5693,2.5693,2.5693,2.5693,2.5693,2.5693,2.5693,2.5693,2.5693,2.5693,2.5586,2.543,2.543,2.4781,2.3766,2.3026,2.1608,1.9904,1.9195,1.8382,1.7661,2.4754,2.4903,2.4924,2.5009,2.4967,2.4903,2.4903,2.5317,2.5654,2.5749,2.577,2.5791,2.5885,2.5895,2.5895,2.5895,2.5895,2.5895,2.5895,2.5895,2.5895,2.5895,2.5895,2.5895,2.5895,2.5895,2.5623,2.5031,2.5623,2.5601,2.5052,2.5644,2.5895,2.5895,2.5812,2.5485,2.5073,2.5559,2.5485,2.5105,2.5665,2.5895,2.5895,2.5895,2.5895,2.595,2.6355,2.7097,2.7996,2.8522,2.9038,2.9625,3.0447,3.0784,3.0999,3.1464,3.1597,3.1597,3.1597,3.1548,3.1466,3.1466,3.1466,3.1466,3.1466,3.0768,3.0107,3.0107,3.0107,3.0107,3.0107,3.0107,3.0263,3.072,3.0792,3.1014,3.1659,3.0996,3.0326,3.0033,2.8425,2.7323,2.7238,2.7034,2.69,2.69,2.6626,2.639,2.6308,2.6149,2.6004,2.5917,2.5781,2.5693,2.5693,2.5693,2.5693,2.5693,2.5693,2.5693,2.5693,2.5693,2.5693,2.5693,2.5693,2.5167,2.4319,2.4319,2.3667,2.2559,2.1049,2.0256,1.9826,1.8349,1.7871,1.7938,2.357,2.3722,2.3852,2.422,2.3972,2.3852,2.422,2.4541,2.4871,2.5295,2.5338,2.5485,2.5853,2.5895,2.5895,2.5895,2.5895,2.5895,2.5895,2.5895,2.5895,2.5895,2.5895,2.5895,2.5895,2.5895,2.5749,2.5464,2.5749,2.5749,2.5464,2.577,2.5895,2.5895,2.5895,2.5728,2.5485,2.577,2.5728,2.5485,2.577,2.5895,2.5895,2.5895,2.5895,2.6005,2.6726,2.7435,2.8125,2.8923,2.95,3.0011,3.069,3.1105,3.1395,3.1639,3.1705,3.1705,3.1705,3.1705,3.1705,3.1705,3.1705,3.1705,3.1705,3.1322,3.0985,3.0985,3.0985,3.0985,3.0985,3.0985,3.1069,3.1298,3.1334,3.1253,3.1024,3.0272,2.9371,2.8315,2.7977,2.7704,2.7333,2.7058,2.6853,2.6699,2.6424,2.6159,2.5893,2.5868,2.583,2.5693,2.5693,2.5693,2.5693,2.5693,2.5693,2.5693,2.5693,2.5693,2.5693,2.5693,2.5693,2.5693,2.5693,2.543,2.4937,2.4344,2.3468,2.2358,2.0869,1.9797,1.9001,1.8134,1.7983,1.822]},{"header":{"parameterUnit":"m.s-1","parameterCategory":1,"la1":30.6,"la2":28.766,"lo1":-90.7593,"lo2":-88.6598,"dy":0.0162,"dx":0.0183,"nx":116,"ny":114,"refTime":"2023-04-04T06:00:00:Z","depth":0,"parameterNumber":3,"parameterNumberName":"V-component_of_WINDS"},"data":[0.0,0.0,0.0,0.0,0.0,0.0,0.0,0.0,0.0,0.0,0.0,0.0,0.0,0.0,0.0,0.0,0.0,0.0,0.0,0.0,0.0,0.0,0.0,0.0,0.0,0.0,0.0,0.0,0.0,0.0,0.0,0.0,0.0,0.0,0.0,0.0,0.0,0.0,0.0,0.0,0.0,0.0,0.0,0.0,0.0,0.0,0.0,0.0,0.0,0.0,0.0,0.0,0.0,0.0,0.0,0.0,0.0,0.0,0.0,0.0,0.0,0.0,0.0,0.0,0.0,0.0,0.0,0.0,0.0,0.0,0.0,0.0,0.0,0.0,0.0,0.0,0.0,0.0,0.0,0.0,0.0,0.0,0.0,0.0,0.0,0.0,0.0,0.0,0.0,0.0,0.0,0.0,0.0,0.0,0.0,0.0,0.0,0.0,0.0,0.0,0.0,0.0,0.0,0.0,0.0,0.0,0.0,0.0,0.0,0.0,0.0,0.0,0.0,0.0,0.0,0.0,0.0,0.0,0.0,0.0,0.0,0.0,0.0,0.0,0.0,0.0,0.0,0.0,0.0,0.0,0.0,0.0,0.0,0.0,0.0,0.0,0.0,0.0,0.0,0.0,0.0,0.0,0.0,0.0,0.0,0.0,0.0,0.0,0.0,0.0,0.0,0.0,0.0,0.0,0.0,0.0,0.0,0.0,0.0,0.0,0.0,0.0,0.0,0.0,0.0,0.0,0.0,0.0,0.0,0.0,0.0,0.0,0.0,0.0,0.0,0.0,0.0,0.0,0.0,0.0,0.0,0.0,0.0,0.0,0.0,0.0,0.0,0.0,0.0,0.0,0.0,0.0,0.0,0.0,0.0,0.0,0.0,0.0,0.0,0.0,0.0,0.0,0.0,0.0,0.0,0.0,0.0,0.0,0.0,0.0,0.0,0.0,0.0,0.0,0.0,0.0,0.0,0.0,0.0,0.0,0.0,0.0,0.0,0.0,0.0,0.0,0.0,0.0,0.0,0.0,0.0,0.0,0.0,0.0,0.0,0.0,0.0,0.0,0.0,0.0,0.0,0.0,0.0,0.0,0.0,0.0,0.0,0.0,0.0,0.0,0.0,0.0,0.0,0.0,0.0,0.0,0.0,0.0,0.0,0.0,0.0,0.0,0.0,0.0,0.0,0.0,0.0,0.0,0.0,0.0,0.0,0.0,0.0,0.0,0.0,0.0,0.0,0.0,0.0,0.0,0.0,0.0,0.0,0.0,0.0,0.0,0.0,0.0,0.0,0.0,0.0,0.0,0.0,0.0,0.0,0.0,0.0,0.0,0.0,0.0,0.0,0.0,0.0,0.0,0.0,0.0,0.0,0.0,0.0,0.0,0.0,0.0,0.0,0.0,0.0,0.0,0.0,0.0,0.0,0.0,0.0,0.0,0.0,0.0,0.0,0.0,0.0,0.0,0.0,0.0,0.0,0.0,0.0,0.0,0.0,0.0,0.0,0.0,0.0,0.0,0.0,0.0,0.0,0.0,0.0,0.0,0.0,0.0,0.0,0.0,0.0,0.0,0.0,0.0,0.0,0.0,0.0,0.0,0.0,0.0,0.0,0.0,0.0,0.0,0.0,0.0,0.0,0.0,0.0,0.0,0.0,0.0,0.0,0.0,0.0,0.0,0.0,0.0,0.0,0.0,0.0,0.0,0.0,0.0,0.0,0.0,0.0,0.0,0.0,0.0,0.0,0.0,0.0,0.0,0.0,0.0,0.0,0.0,0.0,0.0,0.0,0.0,0.0,0.0,0.0,0.0,0.0,0.0,0.0,0.0,0.0,0.0,0.0,0.0,0.0,0.0,0.0,0.0,0.0,0.0,0.0,0.0,0.0,0.0,0.0,0.0,0.0,0.0,0.0,0.0,0.0,0.0,0.0,0.0,0.0,0.0,0.0,0.0,0.0,0.0,0.0,0.0,0.0,0.0,0.0,0.0,0.0,0.0,0.0,0.0,0.0,0.0,0.0,0.0,0.0,0.0,0.0,0.0,0.0,0.0,0.0,0.0,0.0,0.0,0.0,0.0,0.0,0.0,0.0,0.0,0.0,0.0,0.0,0.0,0.0,0.0,0.0,0.0,0.0,0.0,0.0,0.0,0.0,0.0,0.0,0.0,0.0,0.0,0.0,0.0,0.0,0.0,0.0,0.0,0.0,0.0,0.0,0.0,0.0,0.0,0.0,0.0,0.0,0.0,0.0,0.0,0.0,0.0,0.0,0.0,0.0,0.0,0.0,0.0,0.0,0.0,0.0,0.0,0.0,0.0,0.0,0.0,0.0,0.0,0.0,0.0,0.0,0.0,0.0,0.0,0.0,0.0,0.0,0.0,0.0,0.0,0.0,0.0,0.0,0.0,0.0,0.0,0.0,0.0,0.0,0.0,0.0,0.0,0.0,0.0,0.0,0.0,0.0,0.0,0.0,0.0,0.0,0.0,0.0,0.0,0.0,0.0,0.0,0.0,0.0,0.0,0.0,0.0,0.0,0.0,0.0,0.0,0.0,0.0,0.0,0.0,0.0,0.0,0.0,0.0,0.0,0.0,0.0,0.0,0.0,0.0,0.0,0.0,0.0,0.0,0.0,0.0,0.0,0.0,0.0,0.0,0.0,0.0,0.0,0.0,0.0,0.0,0.0,0.0,0.0,0.0,0.0,0.0,0.0,0.0,0.0,0.0,0.0,0.0,0.0,0.0,0.0,0.0,0.0,0.0,0.0,0.0,0.0,0.0,0.0,0.0,0.0,0.0,0.0,0.0,0.0,0.0,0.0,0.0,0.0,0.0,0.0,0.0,0.0,0.0,0.0,0.0,0.0,0.0,0.0,0.0,0.0,0.0,0.0,0.0,0.0,0.0,0.0,0.0,0.0,0.0,0.0,0.0,0.0,0.0,0.0,0.0,0.0,0.0,0.0,0.0,0.0,0.0,0.0,0.0,0.0,0.0,0.0,0.0,0.0,0.0,0.0,0.0,0.0,0.0,0.0,0.0,0.0,0.0,0.0,0.0,0.0,0.0,0.0,0.0,0.0,0.0,0.0,0.0,0.0,0.0,0.0,0.0,0.0,0.0,0.0,0.0,0.0,0.0,0.0,0.0,0.0,0.0,0.0,0.0,0.0,0.0,0.0,0.0,0.0,0.0,0.0,0.0,0.0,0.0,0.0,0.0,0.0,0.0,0.0,0.0,0.0,0.0,0.0,0.0,0.0,0.0,0.0,0.0,0.0,0.0,0.0,0.0,0.0,0.0,0.0,0.0,0.0,0.0,0.0,0.0,0.0,0.0,0.0,0.0,0.0,0.0,0.0,0.0,0.0,0.0,0.0,0.0,0.0,0.0,0.0,0.0,0.0,0.0,0.0,0.0,0.0,0.0,0.0,0.0,0.0,0.0,0.0,0.0,0.0,0.0,0.0,0.0,0.0,0.0,0.0,0.0,0.0,0.0,0.0,0.0,0.0,0.0,0.0,0.0,0.0,0.0,0.0,0.0,0.0,0.0,0.0,0.0,0.0,0.0,0.0,0.0,0.0,0.0,0.0,0.0,0.0,0.0,0.0,0.0,0.0,0.0,0.0,0.0,0.0,0.0,0.0,0.0,0.0,0.0,0.0,0.0,0.0,0.0,0.0,0.0,0.0,0.0,0.0,0.0,0.0,0.0,0.0,0.0,0.0,0.0,0.0,0.0,0.0,0.0,0.0,0.0,0.0,0.0,0.0,0.0,0.0,0.0,0.0,0.0,0.0,0.0,0.0,0.0,0.0,0.0,0.0,0.0,0.0,0.0,0.0,0.0,0.0,0.0,0.0,0.0,0.0,0.0,0.0,0.0,0.0,0.0,0.0,0.0,0.0,0.0,0.0,0.0,0.0,0.0,0.0,0.0,0.0,0.0,0.0,0.0,0.0,0.0,0.0,0.0,0.0,0.0,0.0,0.0,0.0,0.0,0.0,0.0,0.0,0.0,0.0,0.0,0.0,0.0,0.0,0.0,0.0,0.0,0.0,0.0,0.0,0.0,0.0,0.0,0.0,0.0,0.0,0.0,0.0,0.0,0.0,0.0,0.0,0.0,0.0,0.0,0.0,0.0,0.0,0.0,0.0,0.0,0.0,0.0,0.0,0.0,0.0,0.0,0.0,0.0,0.0,0.0,0.0,0.0,0.0,0.0,0.0,0.0,0.0,0.0,0.0,0.0,0.0,0.0,0.0,0.0,0.0,0.0,0.0,0.0,0.0,0.0,0.0,0.0,0.0,0.0,0.0,0.0,0.0,0.0,0.0,0.0,0.0,0.0,0.0,0.0,0.0,0.0,0.0,0.0,0.0,0.0,0.0,0.0,0.0,0.0,0.0,0.0,0.0,0.0,0.0,0.0,0.0,0.0,0.0,0.0,0.0,0.0,0.0,0.0,0.0,0.0,0.0,0.0,0.0,0.0,0.0,0.0,0.0,0.0,0.0,0.0,0.0,0.0,0.0,0.0,0.0,0.0,0.0,0.0,0.0,0.0,0.0,0.0,0.0,0.0,0.0,0.0,0.0,0.0,0.0,0.0,0.0,0.0,0.0,0.0,0.0,0.0,0.0,0.0,0.0,0.0,0.0,0.0,0.0,0.0,0.0,0.0,0.0,0.0,0.0,0.0,0.0,0.0,0.0,0.0,0.0,0.0,0.0,0.0,0.0,0.0,0.0,0.0,0.0,0.0,0.0,0.0,0.0,0.0,0.0,0.0,0.0,0.0,0.0,0.0,0.0,0.0,0.0,0.0,0.0,0.0,0.0,0.0,0.0,0.0,0.0,0.0,0.0,0.0,0.0,0.0,0.0,0.0,0.0,0.0,0.0,0.0,0.0,0.0,0.0,0.0,0.0,0.0,0.0,0.0,0.0,0.0,0.0,0.0,0.0,0.0,0.0,0.0,0.0,0.0,0.0,0.0,0.0,0.0,0.0,0.0,0.0,0.0,0.0,0.0,0.0,0.0,0.0,0.0,0.0,0.0,0.0,0.0,0.0,0.0,0.0,0.0,0.0,0.0,0.0,0.0,0.0,0.0,0.0,0.0,0.0,0.0,0.0,0.0,0.0,0.0,0.0,0.0,0.0,0.0,0.0,0.0,0.0,0.0,0.0,0.0,0.0,0.0,0.0,0.0,0.0,0.0,0.0,0.0,0.0,0.0,0.0,0.0,0.0,0.0,0.0,0.0,0.0,0.0,0.0,0.0,0.0,0.0,0.0,0.0,0.0,0.0,0.0,0.0,0.0,0.0,0.0,0.0,0.0,0.0,0.0,0.0,0.0,0.0,0.0,0.0,0.0,0.0,0.0,0.0,0.0,0.0,0.0,0.0,0.0,0.0,0.0,0.0,0.0,0.0,0.0,0.0,0.0,0.0,0.0,0.0,0.0,0.0,0.0,0.0,0.0,0.0,0.0,0.0,0.0,0.0,0.0,0.0,0.0,0.0,0.0,0.0,0.0,0.0,0.0,0.0,0.0,0.0,0.0,0.0,0.0,0.0,0.0,0.0,0.0,0.0,0.0,0.0,0.0,0.0,0.0,0.0,0.0,0.0,0.0,0.0,0.0,0.0,0.0,0.0,0.0,0.0,0.0,0.0,0.0,0.0,0.0,0.0,0.0,0.0,0.0,0.0,0.0,0.0,0.0,0.0,0.0,0.0,0.0,0.0,0.0,0.0,0.0,0.0,0.0,0.0,0.0,0.0,0.0,0.0,0.0,0.0,0.0,0.0,0.0,0.0,0.0,0.0,0.0,0.0,0.0,0.0,0.0,0.0,0.0,0.0,0.0,0.0,0.0,0.0,0.0,0.0,0.0,0.0,0.0,0.0,0.0,0.0,0.0,0.0,0.0,0.0,0.0,0.0,0.0,0.0,0.0,0.0,0.0,0.0,0.0,0.0,0.0,0.0,0.0,0.0,0.0,0.0,0.0,0.0,0.0,0.0,0.0,0.0,0.0,0.0,0.0,0.0,0.0,0.0,0.0,0.0,0.0,0.0,0.0,0.0,0.0,0.0,0.0,0.0,0.0,0.0,0.0,0.0,0.0,0.0,0.0,0.0,0.0,0.0,0.0,0.0,0.0,0.0,2.5256,0.0,0.0,0.0,0.0,0.0,0.0,0.0,0.0,0.0,0.0,0.0,0.0,0.0,0.0,0.0,0.0,0.0,0.0,0.0,0.0,0.0,0.0,0.0,0.0,0.0,0.0,0.0,0.0,0.0,0.0,0.0,0.0,0.0,0.0,0.0,0.0,0.0,0.0,0.0,1.7376,1.7735,1.844,1.8767,1.8057,1.6503,0.0,0.0,0.0,0.0,0.0,0.0,0.0,0.0,0.0,0.0,0.0,0.0,0.0,0.0,0.0,0.0,0.0,0.0,0.0,0.0,0.0,0.0,0.0,0.0,0.0,0.0,0.0,0.0,0.0,0.0,0.0,0.0,0.0,0.0,0.0,0.0,0.0,0.0,0.0,0.0,0.0,0.0,0.0,0.0,0.0,0.0,0.0,0.0,0.0,0.0,0.0,0.0,0.0,0.0,0.0,0.0,0.0,0.0,0.0,0.0,0.0,0.0,0.0,0.0,0.0,0.0,0.0,0.0,0.0,0.0,0.0,2.6764,0.0,0.0,0.0,0.0,0.0,0.0,0.0,0.0,0.0,0.0,0.0,0.0,0.0,0.0,0.0,0.0,0.0,0.0,0.0,0.0,0.0,0.0,0.0,0.0,0.0,0.0,0.0,0.0,0.0,0.0,0.0,0.0,0.0,0.0,0.0,1.6875,1.693,1.7212,1.8124,1.9261,2.056,2.0541,1.9017,1.6338,1.681,0.0,0.0,0.0,0.0,0.0,0.0,0.0,0.0,0.0,0.0,0.0,0.0,0.0,0.0,0.0,0.0,0.0,0.0,0.0,0.0,0.0,0.0,0.0,0.0,0.0,0.0,0.0,0.0,0.0,0.0,0.0,0.0,0.0,0.0,0.0,0.0,0.0,0.0,0.0,0.0,0.0,0.0,0.0,0.0,0.0,0.0,0.0,0.0,0.0,0.0,0.0,0.0,0.0,0.0,0.0,0.0,0.0,0.0,0.0,0.0,0.0,0.0,0.0,3.3739,3.4023,3.4038,3.4622,3.4529,3.3943,3.3376,3.0863,2.719,0.0,0.0,0.0,0.0,0.0,0.0,0.0,0.0,0.0,0.0,0.0,0.0,0.0,0.0,0.0,0.0,0.0,0.0,0.0,0.0,0.0,0.0,1.5957,1.6065,1.6768,1.6626,1.6799,0.0,0.0,0.0,0.0,0.0,0.0,1.5585,1.5832,1.6641,1.8039,1.9432,2.0225,2.0413,2.0315,2.0003,1.9599,1.978,1.9054,1.7719,0.0,0.0,0.0,0.0,0.0,0.0,0.0,0.0,0.0,0.0,0.0,0.0,0.0,0.0,0.0,0.0,0.0,0.0,0.0,0.0,0.0,0.0,0.0,0.0,0.0,0.0,0.0,0.0,0.0,0.0,0.0,0.0,0.0,0.0,0.0,0.0,0.0,0.0,0.0,0.0,0.0,2.4685,2.2684,0.0,0.0,0.0,0.0,0.0,0.0,0.0,0.0,0.0,0.0,0.0,0.0,0.0,3.0774,3.028,3.119,3.1677,3.1795,3.4711,3.6104,3.6209,3.9053,4.031,4.0217,4.0127,0.0,3.1176,2.8499,0.0,0.0,0.0,0.0,0.0,0.0,0.0,0.0,0.0,0.0,0.0,0.0,0.0,0.0,0.0,0.0,0.0,0.0,0.0,0.0,0.0,1.7082,1.762,1.7883,1.8336,1.8441,1.8012,0.0,0.0,0.0,0.0,1.5119,1.4746,1.6146,1.8287,2.1182,2.2131,2.2899,2.3482,2.3434,2.3341,2.3256,2.3606,2.2072,1.9175,1.8765,0.0,0.0,0.0,0.0,0.0,0.0,0.0,0.0,0.0,0.0,0.0,0.0,0.0,0.0,0.0,0.0,0.0,0.0,0.0,0.0,0.0,0.0,0.0,0.0,0.0,0.0,0.0,0.0,0.0,0.0,0.0,0.0,0.0,0.0,0.0,0.0,0.0,0.0,0.0,2.3576,2.4166,2.1621,2.3444,2.3833,0.0,0.0,0.0,0.0,0.0,0.0,0.0,0.0,0.0,2.8727,3.2427,3.4275,3.4008,3.6033,3.706,3.709,3.8542,3.9442,3.9865,4.1317,4.2152,4.2457,4.2457,4.092,3.8141,3.4444,3.2079,3.0733,0.0,0.0,0.0,0.0,3.1657,3.2163,0.0,0.0,0.0,0.0,0.0,0.0,0.0,0.0,0.0,0.0,0.0,0.0,1.7186,1.8467,1.9276,1.917,1.9838,1.9685,1.8262,1.7686,0.0,0.0,1.5076,1.4706,1.4351,1.7013,2.0031,2.3313,2.4353,2.5218,2.5966,2.6136,2.6156,2.6031,2.6487,2.4589,2.1024,2.0429,1.9805,1.9123,0.0,0.0,0.0,0.0,0.0,0.0,0.0,0.0,0.0,0.0,0.0,0.0,0.0,0.0,0.0,0.0,0.0,0.0,0.0,0.0,0.0,0.0,0.0,0.0,0.0,0.0,0.0,0.0,0.0,0.0,0.0,0.0,0.0,0.0,0.0,0.0,0.0,2.3733,2.4517,2.121,2.3403,2.415,0.0,0.0,0.0,0.0,0.0,0.0,2.6173,3.0117,3.2353,3.2282,3.5886,3.7805,3.7751,4.034,4.1658,4.1658,4.1822,4.2152,4.2631,4.2631,4.292,4.3404,4.3404,4.3443,4.3183,3.9209,3.6159,3.4007,3.4237,3.4623,3.5071,3.552,3.6116,3.6584,0.0,0.0,0.0,0.0,0.0,0.0,0.0,0.0,0.0,0.0,0.0,1.797,1.8547,1.9694,2.0492,2.0672,2.0558,1.9802,1.8209,1.7137,1.6077,1.4979,1.4487,1.4326,1.4484,1.8359,2.1173,2.2843,2.5156,2.6221,2.6106,2.6809,2.7126,2.7126,2.7348,2.5945,2.3468,2.4116,2.3478,2.1879,2.0494,0.0,0.0,0.0,0.0,0.0,0.0,0.0,0.0,0.0,0.0,0.0,0.0,0.0,0.0,0.0,0.0,0.0,0.0,0.0,0.0,0.0,0.0,0.0,0.0,0.0,0.0,0.0,0.0,0.0,0.0,0.0,0.0,0.0,0.0,0.0,0.0,0.0,0.0,2.3365,2.4973,0.0,0.0,0.0,0.0,2.9068,2.9513,2.9891,3.0528,3.4284,3.6379,3.6322,3.9463,4.1149,4.1149,4.1961,4.2351,4.2366,4.294,4.3215,4.3265,4.3265,4.3413,4.369,4.369,4.3788,4.3676,3.9887,3.8543,3.8591,3.5961,3.513,3.5461,3.6179,3.6784,3.7175,0.0,0.0,0.0,0.0,0.0,0.0,0.0,0.0,0.0,1.6207,1.746,1.8505,1.8869,2.0932,2.2414,2.2703,2.3263,2.2967,2.1484,1.961,1.7948,1.6572,1.4983,1.545,1.825,2.109,2.3591,2.5708,2.6905,2.7463,2.7378,2.7661,2.7711,2.7601,2.8021,2.7619,2.656,2.5522,2.4738,2.4091,2.2705,2.1705,0.0,0.0,0.0,0.0,0.0,0.0,0.0,0.0,0.0,0.0,0.0,0.0,0.0,0.0,0.0,0.0,0.0,0.0,0.0,0.0,0.0,0.0,0.0,0.0,0.0,0.0,0.0,0.0,0.0,0.0,0.0,0.0,0.0,0.0,0.0,0.0,0.0,2.663,2.8802,0.0,2.681,2.7664,2.8539,2.8917,3.2198,3.3986,3.3563,3.7478,3.9906,4.0321,4.1456,4.2226,4.2607,4.2865,4.2985,4.2985,4.3205,4.3628,4.4188,4.4188,4.4569,4.5183,4.5183,4.5223,4.5172,4.384,4.3154,4.2893,4.2292,4.2444,4.298,4.2843,4.3577,4.4541,0.0,0.0,0.0,0.0,0.0,0.0,0.0,0.0,1.6525,1.6954,1.8412,1.9657,2.031,2.2658,2.4237,2.4401,2.5135,2.4711,2.2604,2.0602,1.8553,1.6449,1.5458,1.7011,2.1423,2.3096,2.5058,2.7365,2.7969,2.8225,2.8164,2.8425,2.8463,2.835,2.8811,2.8928,2.8727,2.7387,2.673,2.6463,2.5164,2.3603,2.1995,0.0,0.0,0.0,0.0,0.0,0.0,0.0,0.0,0.0,0.0,0.0,0.0,0.0,0.0,0.0,0.0,0.0,0.0,0.0,0.0,0.0,0.0,0.0,0.0,0.0,0.0,0.0,0.0,0.0,0.0,0.0,0.0,0.0,0.0,0.0,2.796,2.8595,3.0427,3.1174,3.0,3.0879,3.1753,3.2312,3.593,3.7946,3.7513,4.0375,4.2237,4.269,4.2705,4.2895,4.329,4.3613,4.3773,4.3788,4.4078,4.4544,4.5143,4.5143,4.5506,4.6098,4.6098,4.6143,4.6219,4.6463,4.628,4.5893,4.6047,4.6597,4.7289,4.7164,4.8162,4.9561,0.0,0.0,0.0,0.0,0.0,0.0,0.0,1.6779,1.6991,1.8412,1.9873,2.1379,2.2925,2.478,2.5811,2.5623,2.5963,2.4727,2.1287,1.982,1.769,1.4536,1.5967,1.9005,2.3623,2.4261,2.5531,2.7533,2.8275,2.8541,2.8356,2.9105,2.9457,2.9457,2.9708,2.983,2.983,2.9811,2.9546,2.9054,2.7863,2.6278,2.4453,0.0,0.0,0.0,0.0,0.0,0.0,0.0,0.0,0.0,0.0,0.0,0.0,0.0,0.0,0.0,0.0,0.0,0.0,0.0,0.0,0.0,0.0,0.0,0.0,0.0,0.0,0.0,0.0,0.0,0.0,0.0,0.0,0.0,2.4245,2.8828,3.1299,2.9313,2.9837,3.1219,3.3408,3.3065,3.4794,3.9799,4.0789,4.1542,4.2387,4.2985,4.3305,4.3319,4.3319,4.3354,4.3369,4.4283,4.472,4.4755,4.5592,4.5996,4.6047,4.6047,4.6148,4.6365,4.6405,4.6525,4.6771,4.7438,4.7716,4.7618,4.6751,4.69,4.7706,4.8557,4.9872,5.1453,0.0,0.0,0.0,0.0,0.0,0.0,0.0,1.6377,1.6812,1.8263,1.9735,2.13,2.2981,2.4679,2.5723,2.5811,2.5928,2.4966,2.2548,2.041,1.8374,1.6421,2.0147,2.2951,2.4461,2.6586,2.7938,2.8531,2.915,2.9438,2.9399,3.0139,3.0481,3.0481,3.0551,3.0601,3.0564,3.0037,3.0024,3.0323,2.9473,2.8399,2.7236,0.0,0.0,0.0,0.0,0.0,0.0,0.0,0.0,0.0,0.0,0.0,0.0,0.0,0.0,0.0,0.0,0.0,0.0,0.0,0.0,0.0,0.0,0.0,0.0,0.0,0.0,0.0,0.0,0.0,0.0,0.0,0.0,2.9969,3.0442,3.0551,3.1696,3.4759,3.5893,3.6903,3.814,3.9092,4.0233,4.1674,4.2342,4.2808,4.304,4.322,4.3514,4.4012,4.4027,4.4353,4.5026,4.5303,4.5495,4.5642,4.5885,4.6321,4.6936,4.6936,4.7318,4.7989,4.8642,4.8926,4.904,4.9824,5.0135,5.0061,4.9225,4.94,5.0131,5.0378,5.1112,5.2132,0.0,0.0,0.0,0.0,0.0,0.0,0.0,1.6132,1.6873,1.9257,2.0315,2.1735,2.4075,2.523,2.591,2.6015,2.5453,2.4194,2.2043,1.9684,1.8831,1.9864,2.2633,2.49,2.648,2.8091,2.9032,2.927,2.9628,2.9972,3.0279,3.0702,3.1082,3.1397,3.1397,3.1397,3.1378,3.0953,3.1201,3.1769,3.0677,2.9519,2.8351,2.7927,2.6528,2.4804,2.4804,2.4852,2.4819,2.4192,0.0,0.0,0.0,0.0,0.0,0.0,0.0,0.0,0.0,0.0,0.0,0.0,0.0,0.0,0.0,0.0,0.0,0.0,0.0,0.0,0.0,0.0,0.0,0.0,2.9969,3.3303,3.4967,3.4013,3.4326,3.7514,3.8658,3.9625,4.0769,4.1704,4.2372,4.2756,4.31,4.3409,4.3698,4.3728,4.4027,4.4706,4.4817,4.5156,4.5705,4.6162,4.6427,4.6549,4.6905,4.7344,4.785,4.785,4.8127,0.0,4.9494,4.9872,4.9967,5.0767,5.1107,0.0,0.0,0.0,0.0,0.0,5.2397,5.2868,0.0,0.0,0.0,0.0,0.0,0.0,0.0,1.6087,1.7155,2.0713,2.1188,2.2422,2.5588,2.6097,2.6213,2.6218,2.4798,2.2907,2.0568,1.8821,1.9654,2.3648,2.4188,2.5794,2.8825,2.9045,2.934,2.9792,2.9972,3.0355,3.0895,3.1068,3.1531,3.2218,3.2218,3.2218,3.2218,3.2128,3.2523,3.3073,3.1623,3.0143,2.8794,2.8621,2.7233,2.5369,2.5369,2.5369,2.5356,2.5293,0.0,0.0,0.0,0.0,0.0,0.0,0.0,0.0,0.0,0.0,0.0,0.0,0.0,0.0,0.0,0.0,0.0,0.0,0.0,0.0,0.0,0.0,0.0,0.0,3.1333,3.4457,3.8127,3.8189,3.8095,3.8742,3.9487,4.0536,4.1994,4.2155,4.2505,4.3354,4.3409,4.3713,4.4371,0.0,0.0,0.0,0.0,4.5882,4.5978,4.6945,4.742,4.7456,4.8224,4.8599,4.8599,4.8599,4.8599,4.8646,4.9543,4.9994,5.0088,5.0995,5.1369,5.135,5.1257,5.1733,5.2519,5.3246,5.3501,5.3501,0.0,0.0,0.0,0.0,0.0,0.0,0.0,1.6185,1.7436,2.0614,2.1131,2.2466,2.5772,2.6179,2.627,2.643,2.4499,2.2318,2.0086,2.1652,2.3055,2.3923,2.6501,2.8217,2.8894,2.9957,3.0284,2.9792,3.1046,3.141,3.0932,3.2169,3.2844,3.2985,3.2985,3.2985,3.295,3.2344,3.2523,3.3108,3.2236,3.1672,3.1249,2.9987,2.9233,2.8825,2.8825,2.8825,2.8762,2.8267,2.7815,2.7356,2.6691,0.0,0.0,0.0,0.0,0.0,0.0,0.0,0.0,0.0,0.0,0.0,0.0,0.0,0.0,0.0,0.0,0.0,0.0,0.0,0.0,2.9885,3.403,3.7934,3.9897,4.0067,4.0323,4.1194,4.1437,4.1948,4.2941,4.3036,4.3339,4.4037,4.4102,4.4386,4.5065,4.531,0.0,4.6325,4.662,4.708,4.78,4.7985,4.8186,4.8357,0.0,0.0,4.8599,4.8599,4.8599,4.8687,5.0193,5.0862,5.0976,5.2433,5.3041,5.2972,5.2325,5.2572,5.328,5.3433,5.3501,5.3501,0.0,0.0,0.0,0.0,0.0,0.0,0.0,1.6145,1.7101,1.9847,1.9786,2.0517,2.3203,2.3265,2.3005,2.2761,2.1663,2.0701,2.0028,2.2815,2.4963,2.6017,2.8262,2.9638,2.9894,3.0564,3.0927,3.0953,3.1723,3.2092,3.2078,3.283,3.3402,3.3794,3.3794,3.3794,3.3776,3.3413,3.3465,3.3725,3.2964,3.2434,3.1965,3.0803,3.012,2.9849,3.0105,3.0206,3.0206,3.0168,2.998,2.9603,2.88,2.7837,2.6736,0.0,0.0,0.0,0.0,0.0,0.0,0.0,0.0,0.0,0.0,0.0,0.0,0.0,0.0,2.7142,0.0,0.0,3.3064,3.2276,3.6294,3.9925,4.1127,4.1672,4.1976,4.199,4.2395,4.2953,4.3733,4.3803,4.4072,4.4751,4.4913,4.528,4.5926,4.6194,4.6635,4.7271,4.7526,4.7867,4.8286,4.8391,4.8495,4.8599,4.8599,4.8599,4.8599,4.8599,4.8599,4.8687,5.0384,5.1107,5.122,5.2834,5.3534,5.3551,5.3162,5.3213,5.3501,5.3584,5.3601,5.3601,0.0,0.0,0.0,0.0,0.0,0.0,0.0,1.6208,1.6788,1.893,1.8499,1.8657,2.0459,2.0256,1.9586,1.8582,1.9309,1.9913,2.008,2.356,2.6429,2.825,2.9428,3.039,3.1124,3.1137,3.1452,3.2092,3.2412,3.2755,3.3196,3.3367,3.3776,3.4397,3.4397,3.4397,3.4397,3.4397,3.4397,3.4332,3.352,3.2824,3.2177,3.1352,3.0592,3.003,3.057,3.0538,3.04,3.126,3.1356,3.0997,3.059,3.0218,2.9365,2.6322,2.6449,0.0,0.0,0.0,0.0,0.0,0.0,0.0,0.0,0.0,2.9483,3.0743,3.141,3.1375,3.0022,3.3009,3.5494,3.4852,3.8193,4.124,4.2309,4.2911,4.3092,4.2685,4.3142,4.3758,4.4436,4.4491,4.4801,4.5501,4.5748,4.6173,4.6849,4.7103,4.7486,4.8034,4.8244,4.8349,4.8349,4.8516,4.8599,4.8599,4.8599,4.8702,4.8852,4.8852,4.8939,4.9168,5.0691,5.1443,5.1718,5.3007,5.3635,5.3767,5.3767,5.3701,5.3601,5.3717,5.3767,5.3766,0.0,0.0,0.0,0.0,0.0,0.0,0.0,0.0,1.7224,1.8432,1.8602,1.8976,1.9991,2.0041,1.9106,1.6887,2.0664,2.2181,1.9909,2.4793,2.8183,2.912,2.9603,3.05,3.1928,3.1965,3.2001,3.2092,3.3465,3.3825,3.3227,3.3928,3.4298,3.4397,3.4397,3.4397,3.4397,3.4397,3.4397,3.4332,3.352,3.3038,3.2712,3.192,3.1151,3.0575,3.1122,3.0337,2.9408,3.1416,3.116,3.0313,3.2148,3.17,3.0136,2.8285,0.0,2.5097,2.318,2.3852,2.5123,2.5149,2.6573,2.8023,0.0,0.0,2.9324,2.9502,2.9777,2.9999,3.0055,3.3535,3.6451,3.6652,3.9591,4.2359,4.3844,4.3452,4.3512,4.4783,4.4495,4.4446,4.5125,4.5185,4.5537,4.6391,4.6493,4.6885,4.7791,4.8033,4.8189,4.8265,4.8474,4.8578,4.8578,4.8599,4.8599,4.8599,4.8599,4.9015,4.9749,4.9749,5.0147,5.0881,5.1769,5.2644,5.3416,5.36,5.3783,5.3964,5.3964,5.3965,5.3948,5.3948,5.3964,5.3964,0.0,0.0,0.0,0.0,0.0,0.0,0.0,0.0,0.0,1.7093,1.6672,1.6439,1.676,1.6316,1.5691,1.4946,1.8783,2.0849,1.9871,2.5135,2.8376,2.8579,2.9933,3.09,3.1384,3.229,3.2737,3.2737,3.3859,3.423,3.3911,3.4247,3.4397,3.4397,3.4397,3.4397,3.4414,3.4515,3.4498,3.438,3.4165,3.3607,3.2898,3.2875,3.2299,3.1428,3.0588,2.9636,0.0,0.0,3.0468,3.0077,3.2378,3.1746,2.9761,2.7835,2.676,0.0,2.7197,2.7374,0.0,0.0,3.0524,3.1842,3.1597,3.2253,3.3324,3.4761,3.5144,3.5425,3.6089,3.7678,3.9113,0.0,4.1426,4.2977,4.415,4.4323,4.4715,4.5771,4.5738,4.5704,4.5858,4.5999,4.6359,4.7135,4.744,4.7751,4.8145,4.837,4.8474,4.8474,4.8557,4.8599,4.8599,4.8599,4.8599,4.862,4.9102,4.9546,4.9924,5.038,5.1072,5.1938,5.2383,5.3077,5.3882,5.3882,5.398,5.4127,5.4127,5.4191,5.4289,5.4159,5.4127,5.4127,0.0,0.0,0.0,0.0,0.0,0.0,0.0,0.0,0.0,0.0,1.5436,1.4693,1.4274,1.3849,1.3605,1.3608,1.6986,1.9316,1.9811,2.4709,2.7857,2.8409,3.0228,3.1338,3.1536,3.242,3.309,3.3537,3.3894,3.4182,3.4397,3.4397,3.4397,3.4397,3.4397,3.4397,3.4414,3.4563,3.4414,3.4094,3.4401,3.3842,3.2884,3.3416,3.2769,3.1427,3.0115,2.9081,0.0,0.0,2.8819,2.8542,3.0707,3.0286,2.8621,2.6693,2.5818,2.6033,2.8617,0.0,0.0,3.1701,3.3796,3.5279,3.5107,3.5635,3.6756,3.8776,3.9002,3.9202,4.0375,4.0603,4.0986,4.2176,4.2922,4.367,4.4571,4.5258,4.5918,4.6565,4.6858,4.6885,4.6676,4.6858,4.7208,4.7749,4.8112,4.8328,4.837,4.8516,4.8599,4.8599,4.8599,4.8599,4.8599,4.8599,4.8708,4.8975,4.9606,5.0143,5.0592,5.1443,5.2223,5.2906,5.3077,5.3466,5.4062,5.4062,5.4143,5.4287,5.4287,5.4367,5.448,5.4335,5.4287,5.4303,0.0,0.0,0.0,0.0,0.0,0.0,0.0,0.0,0.0,0.0,0.0,0.0,0.0,1.4318,1.4379,1.3224,1.6207,1.8588,1.9634,2.3396,2.6695,2.9157,3.0454,3.1729,3.3094,3.247,3.2871,3.4349,3.3621,3.3638,3.4397,3.4397,3.4397,3.4397,3.4397,3.4397,3.4397,3.4414,3.3945,3.3287,3.3884,3.351,3.2666,3.3187,3.2021,3.0055,3.0004,2.8929,0.0,0.0,2.5906,2.4854,2.6544,2.7041,0.0,2.5116,2.3333,0.0,0.0,0.0,2.9294,3.2166,3.4921,3.7152,3.8057,3.8025,3.8082,3.901,3.854,3.8476,4.0281,4.0603,4.1197,4.2975,4.3823,4.4582,4.5523,4.6177,4.6804,4.7475,4.7785,4.7849,0.0,4.7807,4.8055,4.8265,4.8286,4.8391,4.8578,4.8599,4.8599,4.8599,4.8599,4.8599,4.8599,4.8599,4.902,4.9848,4.9904,5.0707,5.2272,5.3196,5.3733,5.3948,5.3964,5.4045,5.419,5.419,5.4303,5.4496,5.4496,5.4496,5.4496,5.4496,5.4496,5.4496,0.0,0.0,0.0,0.0,0.0,0.0,0.0,0.0,0.0,0.0,0.0,0.0,0.0,0.0,0.0,0.0,1.642,1.8072,1.88,2.2267,2.4915,2.6254,2.8612,3.0041,3.0351,3.1503,3.2092,3.2078,3.2826,3.3332,3.3621,3.4147,3.4465,3.4597,3.4465,3.4465,3.4599,3.4685,3.4136,3.3287,3.4239,3.3808,3.2561,3.2257,3.1247,2.9688,0.0,2.5686,2.4751,0.0,0.0,0.0,2.6208,0.0,0.0,2.2974,0.0,0.0,0.0,0.0,3.2614,3.5018,3.6624,3.7836,3.874,3.8844,3.9193,4.0731,3.8946,3.7715,3.9709,3.9446,3.9579,4.152,4.374,4.5544,4.645,4.7122,4.7622,4.7828,4.807,0.0,0.0,0.0,0.0,4.8286,4.8412,4.8537,4.8599,4.8599,4.8599,4.8599,4.8599,4.8872,4.9466,4.9466,4.9888,5.0691,5.1334,5.2205,5.3247,5.3799,5.4078,5.4143,5.4271,5.4369,5.4399,5.4399,5.4448,5.4496,5.4496,5.4496,5.4496,5.4496,5.4496,5.4496,0.0,0.0,0.0,0.0,0.0,0.0,0.0,0.0,0.0,0.0,0.0,0.0,0.0,0.0,0.0,0.0,0.0,1.7043,1.7911,2.0312,2.2223,2.3389,2.6022,2.7355,2.7079,2.8809,2.9573,2.9322,3.0702,3.1656,3.2219,3.3481,3.4249,3.4597,3.4582,3.4582,3.4582,3.4438,3.3546,3.2266,3.289,3.2183,3.0682,3.0213,2.9196,0.0,2.5202,2.3484,2.2421,0.0,0.0,0.0,0.0,0.0,0.0,0.0,0.0,0.0,0.0,3.2633,3.4765,3.7175,3.808,3.8517,3.9055,3.921,3.9637,4.1191,3.8855,3.7008,3.8668,3.7464,3.6852,3.8784,4.0887,4.3027,4.5116,4.601,4.6854,4.796,4.8286,4.837,0.0,0.0,0.0,4.8412,4.8537,4.8599,4.8599,4.8599,4.8599,4.8599,4.8913,4.9183,4.9425,5.003,5.0767,5.161,5.2506,5.3264,5.3899,5.4093,5.4255,5.4319,5.4431,5.4496,5.4496,5.4496,5.4496,5.4496,5.4496,5.4496,5.4496,5.4496,5.4496,5.4496,0.0,0.0,0.0,0.0,0.0,0.0,0.0,0.0,0.0,0.0,0.0,0.0,0.0,0.0,0.0,0.0,0.0,0.0,1.7025,1.77,1.8873,2.0732,2.2867,2.3914,2.3688,2.4723,2.5605,2.6327,2.7429,2.8695,3.0153,3.2198,3.3459,3.4022,3.4323,3.4306,3.3974,3.3411,3.2001,3.0141,2.9922,2.8828,2.7303,2.7246,2.608,2.4394,2.3862,2.2393,2.0699,2.0699,2.0728,2.0795,0.0,0.0,0.0,0.0,0.0,2.6965,3.2699,3.4722,3.5843,3.8592,3.9263,3.9285,3.9329,3.9307,3.9552,4.035,3.815,3.6315,0.0,0.0,3.3554,3.5384,3.6275,3.8204,4.2333,4.3457,4.496,0.0,0.0,0.0,0.0,0.0,0.0,4.8599,0.0,4.8599,4.8599,4.8599,4.8599,4.8599,4.9405,4.9466,4.8687,5.0364,5.1665,5.2594,5.3349,5.3881,5.419,5.4206,5.4319,5.4496,5.4496,5.4496,5.4496,5.4496,5.4496,5.4496,5.4496,5.4496,5.4496,5.4496,5.4496,5.4496,0.0,0.0,0.0,0.0,0.0,0.0,0.0,0.0,0.0,0.0,0.0,0.0,0.0,0.0,0.0,0.0,0.0,0.0,1.5948,1.6846,1.7633,1.8295,2.0335,2.1648,2.2076,2.2935,2.3556,2.3886,2.5315,2.6035,2.6108,2.7597,2.8426,2.8652,2.8653,2.8738,2.8878,2.8723,2.7967,2.6939,2.7372,2.6954,2.5986,2.5223,2.4547,2.3811,2.2552,2.142,2.0574,2.0674,2.2205,2.4477,2.6874,2.765,2.8003,0.0,0.0,3.3272,3.5751,3.776,3.9313,4.0051,4.0246,4.0418,4.1134,4.1007,4.0465,3.9477,3.6714,3.4203,0.0,0.0,0.0,3.7714,4.1643,0.0,4.6814,4.7219,0.0,4.8429,0.0,4.8578,4.8537,4.8578,0.0,0.0,4.8599,4.8599,4.8599,4.8599,4.8599,4.8599,4.8811,4.9284,5.0002,5.1771,5.2991,5.3617,5.3931,5.4127,5.4223,5.4351,5.4464,5.4496,5.4496,5.4496,5.4496,5.4496,5.4496,5.4496,5.4496,5.4496,5.4496,5.4496,5.4496,5.4496,0.0,0.0,0.0,0.0,0.0,0.0,0.0,0.0,0.0,0.0,0.0,0.0,0.0,0.0,0.0,0.0,0.0,0.0,0.0,1.5951,1.6117,1.6082,1.7481,1.8305,1.8382,1.9484,2.0088,2.0144,2.2246,2.3191,2.3071,2.5144,2.615,2.6229,2.6564,2.6791,2.6896,2.6538,2.5865,0.0,0.0,2.4436,2.3951,2.2883,2.2657,2.2777,2.1576,2.1772,2.2777,2.3875,2.5397,2.7175,2.9159,2.9889,3.0441,3.2688,0.0,3.5302,3.8138,3.973,4.071,4.1113,4.1281,4.0993,3.9659,3.9601,3.9187,3.7052,3.4464,0.0,3.1798,3.2991,0.0,0.0,0.0,0.0,4.6217,4.653,4.7046,0.0,4.8599,0.0,4.8599,4.8599,4.8599,0.0,4.8599,4.8599,4.8599,4.8599,4.8599,4.8599,4.9142,5.0167,5.1659,5.231,5.3128,5.4094,5.4158,5.4255,5.4335,5.4448,5.4496,5.4496,0.0,5.4496,5.4496,5.4496,5.4496,5.4496,5.4496,5.4496,5.4496,5.4496,5.4496,5.4496,0.0,0.0,0.0,0.0,0.0,0.0,0.0,0.0,0.0,0.0,1.7241,0.0,0.0,0.0,0.0,0.0,0.0,0.0,0.0,0.0,1.4784,1.4481,1.5011,1.5036,1.4477,1.5791,1.6437,1.6346,1.8891,2.0221,2.0458,2.3193,2.4498,2.4511,2.5336,2.5658,2.552,2.4815,2.4058,2.3216,2.2025,2.1596,2.158,0.0,2.0889,2.1677,2.1029,2.2737,2.5611,2.7869,2.8976,2.9566,3.0403,3.0853,3.1741,3.505,3.5506,3.5863,4.0262,4.1239,4.1218,4.2073,4.2386,4.1461,3.7353,3.7234,3.7109,3.4007,0.0,3.1001,3.1253,3.1779,3.2591,3.3844,0.0,4.0045,4.3965,4.4524,4.5545,4.8286,4.8599,4.8599,4.8599,4.8599,4.864,4.8702,4.8702,4.8661,4.8599,4.8599,4.864,4.8702,4.9892,5.135,5.3059,5.2436,5.2855,5.4255,5.4255,5.4335,5.4496,5.4496,5.4496,5.4496,0.0,0.0,5.4496,5.4496,5.4496,5.4496,5.4496,5.4496,5.4496,5.4496,5.4496,5.4496,0.0,0.0,0.0,0.0,0.0,0.0,0.0,0.0,0.0,0.0,1.7446,1.7199,0.0,0.0,0.0,0.0,0.0,0.0,0.0,0.0,0.0,1.4812,1.4821,1.4821,1.4812,1.5181,1.5455,1.5593,1.6641,1.7192,1.7297,1.8225,1.8651,1.8662,1.8827,1.8987,1.91,1.8957,1.8834,1.8739,1.8653,1.8985,1.9542,1.9556,0.0,0.0,2.1406,2.2955,2.5321,2.7107,2.9933,3.3154,3.5845,3.674,3.7241,3.9621,4.0221,4.0556,4.2677,4.3215,4.325,4.3566,4.3665,4.2809,3.9339,3.852,0.0,0.0,3.1102,3.0595,2.9038,3.1419,3.4574,3.7467,4.0665,4.3942,4.7295,4.7788,4.7983,0.0,0.0,0.0,0.0,0.0,0.0,0.0,0.0,4.9011,4.862,4.8599,4.8785,4.9174,5.0151,5.1208,5.235,5.306,5.3733,5.4448,5.4448,5.4464,5.4496,5.4496,5.4496,5.4496,5.4496,0.0,5.4496,5.4496,5.4496,5.4496,5.4496,5.4496,5.4496,5.4496,5.4496,5.4496,0.0,0.0,0.0,0.0,0.0,0.0,0.0,1.7629,1.7582,1.7452,1.7295,1.7295,1.7542,1.735,1.7199,0.0,0.0,0.0,0.0,0.0,0.0,0.0,1.5251,1.5114,1.4896,1.5163,1.5341,0.0,0.0,1.6858,1.6469,0.0,0.0,1.7141,1.718,1.7307,1.751,1.7684,1.7985,1.8326,1.8213,1.8791,0.0,0.0,0.0,0.0,2.2049,2.3799,2.6098,2.618,2.9647,3.4263,3.6267,3.7174,3.7935,4.0085,4.0407,4.0582,4.3024,4.3329,4.3135,4.3836,4.4085,4.2858,3.7849,0.0,0.0,0.0,2.8927,2.8979,2.8685,3.1672,3.4722,3.6301,4.0725,4.4514,4.6032,4.7597,4.8599,4.8599,4.8599,4.8599,0.0,0.0,0.0,0.0,0.0,4.9295,4.9295,4.9275,4.9481,4.992,5.0669,5.1537,5.249,5.3298,5.398,5.4496,5.4496,5.4496,5.4496,5.4496,5.4496,5.4496,5.4496,0.0,5.4496,5.4496,5.4496,5.4496,5.4496,5.4496,5.4496,5.4496,5.4496,5.4496,0.0,0.0,0.0,0.0,0.0,0.0,0.0,1.7305,1.7276,1.7065,1.7204,1.7497,1.8013,1.7553,1.7167,0.0,0.0,0.0,0.0,0.0,0.0,0.0,0.0,0.0,0.0,0.0,0.0,0.0,0.0,0.0,0.0,0.0,0.0,0.0,0.0,0.0,1.7496,1.7759,1.8174,0.0,0.0,0.0,0.0,0.0,0.0,0.0,0.0,2.421,2.5981,2.5259,2.8176,3.234,3.3558,3.5137,3.6916,3.8865,3.9126,3.9519,4.2909,4.3294,4.2951,4.3899,4.4243,4.2637,3.606,3.4875,0.0,2.8067,2.7264,2.7838,2.8826,3.1431,3.3638,3.4344,3.8622,4.2375,4.3891,4.6001,4.7695,0.0,4.8702,0.0,4.8764,0.0,0.0,0.0,0.0,0.0,4.9876,4.9896,5.0077,5.0486,5.1199,5.19,5.2627,5.3466,5.4029,5.4319,5.4448,5.4496,5.4496,5.4496,5.4496,5.4496,5.4496,0.0,0.0,5.4496,5.4496,5.4496,5.4496,5.4496,5.4496,5.4496,5.4496,5.4496,0.0,0.0,0.0,0.0,0.0,0.0,0.0,1.7639,1.7678,1.7236,1.7454,1.7894,1.8563,1.7765,1.7031,0.0,0.0,0.0,0.0,0.0,0.0,0.0,0.0,0.0,0.0,0.0,0.0,0.0,0.0,0.0,0.0,0.0,0.0,0.0,0.0,0.0,0.0,0.0,0.0,0.0,0.0,0.0,0.0,0.0,0.0,0.0,0.0,2.317,2.3048,2.4511,2.5017,2.541,2.7561,3.153,3.5603,3.6916,3.7972,3.9526,4.324,4.4185,4.4189,4.4458,4.4568,4.2856,3.6274,0.0,3.4219,2.771,2.759,2.8666,2.8731,2.9555,3.1213,3.419,3.4598,3.6796,4.3196,4.3772,4.4784,4.8194,0.0,0.0,4.9235,0.0,0.0,0.0,0.0,0.0,4.9935,4.9896,5.0077,5.0486,5.1574,5.2117,5.2077,5.3633,5.4207,5.3766,5.4255,5.4496,5.4496,5.4496,5.4496,5.4496,5.4496,0.0,0.0,5.4496,5.4496,5.4496,5.4496,5.4496,5.4496,5.4496,5.4496,5.4496,0.0,0.0,0.0,0.0,0.0,0.0,1.7282,1.7329,1.731,1.7166,1.7144,1.7185,1.724,1.7185,1.7222,1.7443,0.0,0.0,0.0,0.0,0.0,0.0,0.0,0.0,0.0,0.0,0.0,0.0,0.0,0.0,0.0,0.0,0.0,0.0,0.0,0.0,0.0,0.0,0.0,0.0,0.0,0.0,0.0,0.0,0.0,0.0,0.0,0.0,2.3472,2.3799,2.4747,2.5559,2.4296,2.7109,3.157,3.5204,3.6876,3.8545,4.3069,4.4301,4.4339,4.4549,4.3485,4.1045,3.6006,0.0,3.2544,2.7912,2.7869,2.8818,2.9232,2.9713,3.0473,3.179,3.3035,3.4816,3.762,3.8951,4.1015,4.4784,4.5637,0.0,0.0,0.0,0.0,0.0,0.0,0.0,5.0692,5.0986,5.1234,5.1401,5.2523,5.2889,5.2487,5.3832,5.4223,5.3717,5.4239,5.4496,5.4496,5.4496,5.4496,5.4496,5.4496,0.0,0.0,5.4496,5.4496,5.4496,5.4496,5.4496,5.4496,5.4496,5.4496,5.4496,0.0,0.0,0.0,0.0,0.0,1.7228,1.7017,1.7006,1.6998,1.6931,1.6834,1.6771,1.6767,1.6878,1.7227,1.791,1.7369,0.0,0.0,0.0,0.0,0.0,0.0,0.0,0.0,0.0,0.0,0.0,0.0,0.0,0.0,0.0,0.0,0.0,0.0,0.0,0.0,0.0,0.0,0.0,0.0,0.0,0.0,0.0,0.0,0.0,0.0,0.0,0.0,0.0,0.0,2.5145,2.2365,2.3933,2.7649,3.2094,3.4683,3.7113,4.1707,4.3503,4.4189,4.4667,4.2829,3.9925,0.0,0.0,3.1944,2.8249,2.8474,2.9389,2.9545,2.9919,3.021,3.0242,3.1397,3.2679,3.3794,3.4982,3.7131,4.0891,0.0,4.335,0.0,0.0,0.0,0.0,0.0,0.0,5.1183,5.171,5.1931,5.1767,5.2853,5.3145,5.2575,5.3683,5.4078,5.3717,5.4239,5.4496,5.4496,5.4496,5.4496,5.4496,0.0,0.0,0.0,5.4496,5.4496,5.4496,5.4496,5.4496,5.4512,5.4622,5.459,5.4512,0.0,0.0,0.0,0.0,0.0,0.0,1.6601,1.6833,1.6966,1.657,1.6614,1.6997,1.7796,1.7128,1.6898,1.7642,1.7509,0.0,0.0,0.0,0.0,0.0,0.0,0.0,0.0,0.0,1.6897,1.6697,1.6699,1.6881,0.0,0.0,0.0,0.0,0.0,0.0,0.0,0.0,0.0,0.0,0.0,0.0,0.0,0.0,0.0,0.0,0.0,0.0,0.0,0.0,0.0,0.0,0.0,2.2618,2.4448,2.7041,3.0977,3.5292,3.88,4.1629,4.3864,4.4915,4.3043,4.0148,0.0,3.5536,3.3272,2.864,2.9507,3.0707,2.9523,2.9804,3.0242,3.0386,2.9206,2.9563,3.3274,3.2683,3.3252,3.7004,3.7283,3.9068,4.3871,4.8492,0.0,0.0,0.0,0.0,5.1202,5.171,5.1765,5.1221,5.2255,5.254,5.2005,5.3128,5.3717,5.3717,5.4239,5.4496,5.4496,5.4496,5.4496,0.0,0.0,0.0,0.0,5.4496,5.4496,5.4496,5.4496,5.4496,5.4543,5.4869,5.4776,5.4543,0.0,0.0,0.0,0.0,0.0,0.0,0.0,1.695,1.6993,1.6852,1.6718,1.6917,1.7678,1.7188,1.704,1.7652,1.735,0.0,0.0,0.0,0.0,0.0,0.0,0.0,0.0,0.0,1.7065,1.6907,1.6771,1.6755,1.6868,1.7272,0.0,0.0,0.0,0.0,0.0,0.0,0.0,0.0,0.0,0.0,0.0,0.0,0.0,0.0,0.0,0.0,0.0,0.0,0.0,0.0,0.0,0.0,0.0,2.4844,2.8068,3.2089,3.5442,3.6788,3.7513,3.863,3.6786,3.4526,3.3934,3.2907,3.1391,2.8946,2.9859,3.0826,2.9945,3.0009,3.0242,3.0386,2.9156,2.8655,2.9926,3.1329,3.3595,3.7358,4.2798,4.6991,0.0,0.0,0.0,0.0,0.0,0.0,5.1202,5.171,5.1915,5.1749,5.2434,5.2732,5.2557,5.3315,5.37,5.3717,5.4239,5.4496,5.4496,5.4496,0.0,0.0,0.0,0.0,0.0,5.4838,5.4976,5.5189,5.5189,5.5189,5.5204,5.5309,5.5279,5.5204,0.0,0.0,0.0,0.0,0.0,0.0,0.0,1.7106,1.7136,1.7185,1.6925,1.6977,1.7562,1.7216,1.7125,1.7579,1.7359,0.0,0.0,0.0,0.0,0.0,0.0,0.0,0.0,1.6799,1.7071,1.7334,1.697,1.6875,1.7048,1.7402,1.7807,1.823,0.0,0.0,0.0,0.0,0.0,0.0,0.0,0.0,2.1837,0.0,0.0,0.0,0.0,0.0,0.0,0.0,0.0,0.0,0.0,0.0,0.0,0.0,2.609,2.8841,3.2131,3.3683,3.4633,3.5729,3.384,0.0,3.2603,3.1828,3.0596,2.9388,3.0377,3.1138,3.019,3.0055,3.0043,2.9923,2.8874,2.8595,3.0035,3.1473,3.3733,3.7455,0.0,0.0,0.0,0.0,0.0,0.0,0.0,0.0,5.1202,5.171,5.2005,5.2005,5.2522,5.2802,5.2802,5.3399,5.3799,5.4013,5.4335,5.4496,5.4496,5.4496,0.0,0.0,0.0,0.0,0.0,5.4946,5.5129,5.5324,5.5458,5.5502,5.5517,5.5601,5.559,5.5517,0.0,0.0,0.0,0.0,0.0,0.0,0.0,1.7306,1.7365,1.7479,1.7221,1.717,1.7501,1.7235,1.7173,1.7501,1.7488,0.0,0.0,0.0,0.0,0.0,0.0,0.0,1.6382,1.6468,1.6936,1.7799,1.7196,1.7112,1.756,1.7932,1.814,1.823,1.9283,0.0,0.0,0.0,0.0,0.0,0.0,0.0,0.0,0.0,0.0,0.0,0.0,0.0,0.0,0.0,0.0,0.0,0.0,0.0,0.0,0.0,0.0,0.0,0.0,3.1772,3.4059,3.5102,3.3275,3.1504,3.2605,3.1889,0.0,2.9847,3.0905,3.157,3.0239,2.9897,2.9664,2.9181,2.8368,2.9109,3.2793,3.3235,3.4558,0.0,4.2624,0.0,4.4577,0.0,0.0,0.0,0.0,0.0,5.1202,5.1674,5.1933,5.1933,5.2469,5.2784,5.2871,5.3382,5.3931,5.4496,5.4464,5.448,5.4543,5.4512,0.0,0.0,0.0,0.0,0.0,5.4946,5.5083,5.5144,5.5443,5.5561,5.559,5.5847,5.5775,5.5604,0.0,0.0,0.0,0.0,0.0,0.0,0.0,0.0,0.0,0.0,1.7368,1.7523,1.7919,1.7611,1.7506,0.0,0.0,0.0,0.0,0.0,0.0,0.0,0.0,0.0,1.5435,1.613,1.6617,1.6829,1.6876,1.6963,1.707,1.7155,1.7568,1.8228,1.8835,1.9666,0.0,0.0,0.0,0.0,0.0,0.0,0.0,0.0,0.0,0.0,2.4035,2.4579,0.0,0.0,0.0,0.0,0.0,0.0,0.0,0.0,2.5753,2.6169,2.6721,0.0,2.7454,2.872,2.8256,2.7831,0.0,3.0192,3.054,2.9467,3.0629,0.0,0.0,0.0,0.0,0.0,2.7963,2.8598,3.2784,3.832,0.0,4.7531,4.9037,4.9667,0.0,0.0,0.0,0.0,0.0,5.1202,5.1202,5.1317,5.1392,5.1392,5.1913,5.261,5.3483,5.3179,5.3516,5.4496,5.4078,5.4255,5.4869,5.4622,0.0,0.0,0.0,0.0,5.5587,5.566,5.5847,5.6077,5.6162,5.6189,5.6189,5.6259,5.6245,5.6189,0.0,0.0,0.0,0.0,0.0,0.0,0.0,0.0,0.0,0.0,1.7576,1.7717,1.8061,1.7799,0.0,0.0,0.0,0.0,0.0,0.0,0.0,0.0,0.0,1.5303,1.5334,1.589,1.6537,1.7224,1.7002,1.7099,1.7484,1.7238,1.7544,1.8335,1.9554,2.0282,0.0,0.0,0.0,0.0,2.1459,0.0,0.0,0.0,0.0,0.0,2.4137,2.4679,0.0,2.53,2.5522,2.5619,0.0,0.0,0.0,0.0,2.6043,2.619,2.6177,2.5869,2.5711,2.6371,2.629,2.6376,2.7578,2.8804,2.9603,2.9264,3.0234,3.0915,0.0,0.0,0.0,0.0,2.8946,3.0726,3.5089,3.902,4.315,4.7719,4.798,4.8711,0.0,0.0,0.0,0.0,0.0,5.1202,5.1202,5.1431,5.158,5.158,5.2094,5.254,5.2922,5.2836,5.3298,5.4316,5.4009,5.4363,5.5234,5.5037,5.5159,0.0,0.0,0.0,5.5718,5.5861,5.6003,5.6189,5.6328,5.6401,5.6401,5.6401,5.6401,5.6401,0.0,0.0,0.0,0.0,0.0,0.0,0.0,0.0,0.0,0.0,0.0,0.0,0.0,0.0,0.0,0.0,0.0,0.0,0.0,0.0,0.0,0.0,1.5586,1.5402,1.5665,1.5803,1.6552,1.7928,1.7241,1.729,1.7993,1.7582,1.7828,1.8691,2.0664,2.1248,0.0,0.0,0.0,0.0,2.1736,0.0,0.0,0.0,0.0,0.0,0.0,0.0,0.0,2.5439,2.5633,2.5605,2.5729,0.0,0.0,0.0,0.0,0.0,2.643,2.6813,2.696,2.6317,2.6043,2.615,2.6955,2.7848,2.8609,2.8974,2.9805,3.0321,2.987,2.8611,0.0,0.0,0.0,0.0,3.8778,3.9453,4.1074,4.529,4.5291,0.0,0.0,0.0,0.0,0.0,0.0,5.1202,5.1202,5.1619,5.1895,5.1895,5.231,5.2327,5.1895,5.2487,5.318,5.3958,5.3958,5.4454,5.5396,5.5351,5.544,0.0,0.0,0.0,5.5663,5.5876,5.5975,5.6003,5.6286,5.6401,5.6401,5.6401,5.6401,5.6401,0.0,0.0,0.0,0.0,0.0,0.0,0.0,0.0,0.0,0.0,0.0,0.0,0.0,0.0,0.0,0.0,0.0,0.0,0.0,0.0,0.0,1.6823,1.574,1.5406,1.601,1.6152,1.6532,1.717,1.706,1.702,1.7099,1.7316,1.816,1.9566,2.1139,2.1642,2.1357,0.0,0.0,0.0,0.0,0.0,0.0,0.0,0.0,0.0,0.0,0.0,0.0,2.5494,2.5743,2.6016,2.6029,0.0,0.0,0.0,0.0,0.0,2.6379,2.8606,3.0089,2.7164,2.6245,2.6116,2.6323,2.7735,2.8799,2.8088,2.9478,3.0405,2.9065,2.8282,2.7634,0.0,0.0,3.8979,0.0,0.0,4.9355,5.0133,0.0,5.0344,0.0,0.0,0.0,0.0,0.0,5.1202,5.1202,5.128,5.1317,5.1317,5.141,5.141,5.1317,5.2308,5.294,5.3247,5.3247,5.3862,5.4983,5.4705,5.5177,0.0,0.0,5.5989,5.6277,5.63,5.6314,5.6328,5.6387,5.6401,5.6401,5.6401,5.6401,5.6401,0.0,0.0,0.0,0.0,0.0,0.0,0.0,0.0,0.0,0.0,0.0,0.0,0.0,0.0,0.0,0.0,0.0,0.0,0.0,0.0,1.6811,1.7144,1.6432,1.6055,1.615,1.6256,1.6618,1.7267,1.7231,1.7316,1.7509,1.8057,1.8821,1.9836,2.1592,2.1936,2.1286,2.2973,0.0,0.0,0.0,0.0,0.0,0.0,0.0,0.0,0.0,0.0,0.0,0.0,2.6002,2.6111,2.6191,0.0,0.0,0.0,0.0,0.0,2.6364,2.7591,2.8827,2.917,3.0461,3.1717,3.1887,3.2925,3.3303,3.1337,3.1992,3.2052,2.9237,2.9744,3.1746,3.5221,0.0,4.0071,4.4253,4.4205,0.0,0.0,0.0,0.0,0.0,0.0,0.0,0.0,0.0,0.0,5.1202,5.1202,5.1202,5.1202,5.1202,5.1202,5.1202,5.1985,5.2505,5.2768,5.3247,5.4022,5.5024,5.534,5.5812,5.6401,0.0,5.6259,5.6401,5.6401,5.6401,5.6401,5.6401,5.6401,5.6401,5.6401,5.6401,5.6401,0.0,0.0,0.0,0.0,0.0,0.0,0.0,0.0,0.0,0.0,0.0,0.0,0.0,0.0,0.0,0.0,0.0,0.0,0.0,1.7151,1.7034,1.7219,1.6975,1.676,1.6527,1.6607,1.6941,1.7522,1.7529,1.7756,1.8204,1.8885,1.9469,2.0054,2.2017,2.2296,2.1441,2.346,2.396,0.0,0.0,0.0,0.0,0.0,0.0,0.0,0.0,0.0,0.0,0.0,0.0,0.0,0.0,0.0,0.0,2.6161,2.5976,2.5709,2.6387,2.7064,2.8164,3.0552,3.256,3.4419,0.0,0.0,0.0,0.0,0.0,3.4548,3.0503,3.1375,0.0,4.1405,4.1165,4.1583,0.0,0.0,0.0,0.0,0.0,0.0,0.0,0.0,0.0,0.0,0.0,0.0,5.1202,5.1202,5.1202,5.1202,5.1202,5.1221,5.1258,5.1822,5.2275,5.2577,5.3364,5.4243,5.5186,5.5854,5.6259,5.6401,5.6401,5.6401,5.6401,5.6401,5.6401,5.6401,5.6401,5.6401,5.6401,5.6401,5.6401,5.6401,0.0,0.0,0.0,0.0,0.0,0.0,0.0,0.0,0.0,0.0,0.0,0.0,0.0,0.0,0.0,0.0,0.0,0.0,0.0,1.765,1.7255,1.7027,1.7001,1.7152,1.7497,1.7622,1.7657,1.7592,1.7781,1.8167,1.8752,1.9238,1.9824,2.0527,2.2364,2.281,2.2321,2.4164,2.4584,2.4028,0.0,0.0,0.0,0.0,0.0,0.0,0.0,0.0,0.0,0.0,0.0,0.0,0.0,0.0,2.5146,2.6191,2.571,2.5158,2.6431,2.9044,3.1151,3.0108,2.8226,2.8342,3.4769,3.4405,0.0,3.7072,0.0,0.0,0.0,3.2313,3.3599,3.8285,4.2103,4.5925,5.0151,0.0,0.0,0.0,0.0,0.0,0.0,0.0,0.0,0.0,0.0,0.0,5.1202,5.1202,5.1202,5.1202,5.1202,5.1277,5.148,5.2131,5.256,5.2786,5.3365,5.423,5.537,5.5429,5.5812,5.6401,5.6401,5.6401,5.6401,5.6401,5.6401,5.6401,5.6401,5.6401,5.6401,5.6401,5.6401,5.6401,0.0,0.0,0.0,0.0,0.0,0.0,0.0,0.0,0.0,0.0,0.0,0.0,0.0,0.0,0.0,0.0,0.0,0.0,0.0,1.7957,1.7716,1.7024,1.7248,1.7381,1.741,1.7678,1.7862,1.7976,1.8082,1.8635,1.9548,1.9636,2.0173,2.1128,2.2552,2.2863,2.2427,2.4232,2.4448,2.354,2.354,0.0,0.0,0.0,0.0,0.0,0.0,0.0,0.0,0.0,2.6526,2.6575,2.6326,2.5712,2.5233,2.597,2.5644,2.5284,2.6337,2.9093,3.1509,3.0815,2.978,3.0605,3.6991,3.8384,3.8946,4.1139,4.2246,0.0,0.0,0.0,4.0434,4.2253,4.6071,4.9392,5.0975,0.0,0.0,0.0,0.0,0.0,0.0,0.0,0.0,0.0,0.0,0.0,5.1202,5.1202,5.1202,5.1202,5.1202,5.1312,5.1499,5.2167,5.2873,5.3614,5.4246,5.4761,5.5234,5.5765,5.6158,5.6401,5.6401,5.6401,5.6401,5.6401,5.6401,5.6401,5.6401,5.6401,5.6401,5.6401,5.6401,5.6401,0.0,0.0,0.0,0.0,0.0,0.0,0.0,0.0,0.0,0.0,0.0,0.0,0.0,0.0,0.0,0.0,0.0,0.0,1.7472,1.7983,1.7862,1.6789,1.726,1.7449,1.7275,1.7663,1.7935,1.8065,1.8426,1.9069,2.0012,2.0059,2.0552,2.1453,2.266,2.2971,2.2686,2.4109,2.4259,2.3525,2.3335,2.3494,0.0,0.0,0.0,0.0,0.0,0.0,0.0,0.0,2.6607,2.6491,2.6253,2.5619,2.5088,2.5832,2.5406,2.5,2.6228,2.801,2.9713,3.0444,3.0703,3.2345,3.8416,3.9968,4.113,4.464,4.5129,0.0,0.0,0.0,0.0,0.0,4.8437,5.1202,5.1202,5.1202,0.0,0.0,0.0,0.0,0.0,0.0,0.0,0.0,0.0,0.0,0.0,5.1202,5.1202,5.1202,5.1373,5.1598,5.191,5.2524,5.3298,5.4199,5.487,5.5308,5.5531,5.5897,5.6199,5.6401,5.6401,5.6401,5.6401,5.6401,5.6401,5.6401,5.6401,5.6401,5.6401,5.6401,5.6401,5.6401,0.0,0.0,0.0,0.0,0.0,0.0,0.0,0.0,0.0,0.0,0.0,0.0,0.0,0.0,0.0,0.0,0.0,0.0,1.7087,1.7758,1.7592,1.6259,1.6967,1.7333,1.7212,1.7739,1.7943,1.7797,1.8741,1.9467,2.0012,2.0484,2.0959,2.1453,2.266,2.3202,2.3229,2.3838,2.4164,2.4231,2.3644,2.3767,0.0,0.0,0.0,0.0,0.0,0.0,0.0,0.0,2.6274,2.6019,2.609,2.5313,2.4637,2.5754,2.4954,2.4146,2.6159,2.5982,2.5891,2.8709,3.0108,3.2389,3.8433,3.791,3.8588,4.723,4.6949,4.5098,4.4935,0.0,0.0,0.0,0.0,0.0,5.1202,5.1202,0.0,0.0,0.0,0.0,0.0,0.0,0.0,0.0,0.0,0.0,0.0,5.1202,5.1202,5.1202,5.1729,5.2258,5.2803,5.3315,5.3861,5.4407,5.5069,5.574,5.6373,5.5711,5.5769,5.6401,5.6401,5.6401,5.6401,5.6401,5.6401,5.6401,5.6401,5.6401,5.6401,5.6401,5.6401,5.6401,0.0,0.0,0.0,0.0,0.0,0.0,0.0,0.0,0.0,0.0,0.0,0.0,0.0,0.0,0.0,0.0,0.0,0.0,1.6922,1.7747,1.776,1.66,1.7148,1.7528,1.7618,1.8004,1.8186,1.8147,1.8817,1.9372,1.9869,2.0439,2.0959,2.1453,2.266,2.2971,2.2631,2.3662,2.3701,2.3054,2.3354,2.3689,0.0,0.0,0.0,0.0,0.0,0.0,0.0,0.0,0.0,0.0,2.6007,2.5366,2.4867,2.5441,2.5242,2.5086,2.6297,2.9835,3.2786,3.114,3.4571,3.8861,4.07,4.0276,4.1291,0.0,4.9195,4.8472,4.5455,0.0,0.0,0.0,0.0,0.0,5.1202,5.1202,5.1202,0.0,0.0,0.0,0.0,0.0,0.0,0.0,0.0,0.0,0.0,5.1202,5.1202,5.1202,5.1355,5.1653,5.2092,5.2716,5.3515,5.4407,5.4595,5.5056,5.5711,5.5972,5.6199,5.6401,5.6401,5.6401,5.6401,5.6401,5.6401,5.6401,5.6401,5.6401,5.6401,5.6401,5.6401,5.6401,0.0,0.0,0.0,0.0,0.0,0.0,0.0,0.0,0.0,0.0,0.0,0.0,0.0,0.0,0.0,0.0,0.0,0.0,0.0,1.7564,1.7774,1.6735,1.7333,1.7733,1.7797,1.8101,1.8375,1.8625,1.9134,1.9521,1.9828,2.0616,2.113,2.1453,2.266,2.2863,2.2373,2.3442,2.3396,2.262,2.3144,2.3601,2.4061,0.0,0.0,0.0,0.0,0.0,0.0,0.0,0.0,0.0,2.5682,2.515,2.4676,2.4927,2.4655,2.4841,2.7406,3.074,3.3819,3.5072,3.8538,4.1998,4.3442,0.0,0.0,0.0,4.9991,5.0178,4.7822,0.0,0.0,0.0,0.0,0.0,0.0,0.0,5.1202,0.0,0.0,0.0,0.0,0.0,0.0,0.0,0.0,0.0,0.0,5.1202,5.124,5.1331,5.1448,5.1765,5.2307,5.2592,5.3146,5.3991,5.3991,5.4216,5.4641,5.5578,5.6144,5.6401,5.6401,5.6401,5.6401,5.6401,5.6401,5.6401,5.6401,5.6401,5.6401,5.6401,5.6401,5.6401,0.0,0.0,0.0,0.0,0.0,0.0,0.0,0.0,0.0,0.0,0.0,0.0,0.0,0.0,0.0,0.0,0.0,0.0,0.0,1.7277,1.7642,1.6831,1.7595,1.7948,1.7787,1.8059,1.8492,1.9079,1.9557,1.9819,1.9888,2.0929,2.1399,2.144,2.2592,2.2767,2.2234,2.3076,2.3094,2.2588,2.2914,2.3472,2.4187,2.4819,0.0,0.0,0.0,0.0,0.0,0.0,0.0,0.0,2.5264,2.4797,2.4244,2.4436,2.3959,2.4441,2.9219,3.0243,3.1851,3.9653,4.1884,4.2987,4.6181,4.741,4.8105,4.885,0.0,5.0548,5.111,5.135,0.0,0.0,0.0,0.0,0.0,0.0,5.1202,0.0,0.0,0.0,0.0,0.0,0.0,0.0,0.0,0.0,0.0,5.1202,5.1277,5.148,5.1765,5.2274,5.2991,5.2679,5.2818,0.0,5.3399,5.3433,5.3533,5.4749,5.5665,5.6314,5.6369,5.6401,5.6401,5.6401,5.6401,5.6401,5.6401,5.6401,5.6401,5.6401,5.6401,5.6401,0.0,0.0,0.0,0.0,0.0,0.0,0.0,0.0,0.0,0.0,0.0,0.0,0.0,0.0,0.0,0.0,0.0,0.0,0.0,1.7029,1.7421,1.7485,1.7968,1.8068,1.774,1.8039,1.8442,1.8943,1.9464,1.994,2.0365,2.1072,2.1399,2.1426,2.217,2.2012,2.1237,2.1914,2.1936,2.158,2.2271,2.3241,2.4352,2.5156,0.0,0.0,0.0,0.0,0.0,0.0,0.0,0.0,2.5296,2.4835,2.4404,2.5018,2.6867,2.9099,3.0795,3.5015,3.9378,4.121,4.375,4.5971,4.6731,4.7023,4.7491,4.8736,4.9615,5.0381,5.1072,5.124,5.124,0.0,0.0,0.0,0.0,0.0,0.0,0.0,0.0,0.0,0.0,0.0,0.0,0.0,0.0,0.0,5.1202,5.1202,5.1277,5.148,5.1427,5.167,5.2303,5.2087,5.2449,0.0,5.3399,5.3682,5.4184,5.4485,5.4978,5.5636,5.6172,5.6401,5.6401,5.6401,5.6401,5.6401,5.6401,5.6401,5.6401,5.6401,5.6401,5.6401,0.0,0.0,0.0,0.0,0.0,0.0,0.0,0.0,0.0,0.0,0.0,0.0,0.0,0.0,0.0,0.0,0.0,0.0,0.0,0.0,1.7629,1.8065,1.8319,1.8289,1.7945,1.8135,1.8596,1.9325,1.9729,2.0129,2.0506,2.1114,2.1471,2.1606,2.1798,2.1551,2.1079,2.1654,2.1639,2.1296,2.247,2.3316,2.4008,2.4887,0.0,0.0,0.0,0.0,0.0,0.0,0.0,0.0,0.0,0.0,2.4338,2.4482,2.586,2.8172,3.2072,3.5812,3.9538,4.3265,4.5566,4.6893,4.6893,4.6893,4.7217,4.8299,4.9076,4.9807,5.0536,5.0975,5.1202,5.1202,0.0,0.0,0.0,0.0,0.0,0.0,0.0,0.0,0.0,0.0,0.0,0.0,0.0,5.1202,5.1202,5.1202,5.1333,5.1647,5.1462,5.1647,5.2247,5.2032,5.2285,5.2921,5.2921,5.3094,5.3483,5.4438,5.5072,5.5446,5.6116,5.6401,5.6401,5.6401,5.6401,5.6401,5.6401,5.6401,5.6401,5.6401,5.6401,5.6401,0.0,0.0,0.0,0.0,0.0,0.0,0.0,0.0,0.0,0.0,0.0,0.0,0.0,0.0,0.0,0.0,0.0,0.0,0.0,0.0,0.0,1.8517,1.8586,1.8509,1.8292,1.8401,1.8896,1.9801,2.013,2.0411,2.0669,2.1216,2.1537,2.1631,2.1404,2.124,2.1145,2.1536,2.1556,2.1412,2.2697,2.3345,2.365,0.0,0.0,0.0,0.0,0.0,0.0,0.0,0.0,0.0,0.0,0.0,2.4246,2.3993,2.4345,2.6216,3.2586,3.5347,3.8096,4.5144,4.6893,4.6893,4.6893,4.6893,4.7072,4.7686,4.8348,4.9093,4.9953,5.06,5.1056,5.1186,5.1202,0.0,0.0,0.0,0.0,0.0,0.0,0.0,0.0,0.0,0.0,0.0,0.0,5.1202,5.1202,5.1202,5.1371,5.1741,5.1555,5.1721,5.2284,5.2102,5.2104,5.2338,5.2499,5.257,5.264,5.4532,5.534,5.5266,5.5943,5.63,5.6401,5.6401,5.6401,5.6401,5.6401,5.6401,5.6401,5.6401,5.6401,5.6401,0.0,0.0,0.0,0.0,0.0,0.0,0.0,0.0,0.0,0.0,0.0,0.0,0.0,0.0,0.0,0.0,0.0,0.0,0.0,0.0,0.0,1.8663,1.8682,1.8673,1.8624,1.8939,1.9311,1.9801,2.0354,2.0858,2.1289,2.1611,2.1498,2.1015,2.0988,2.089,2.0763,2.0601,2.0981,2.1743,2.1934,2.2757,0.0,0.0,0.0,0.0,0.0,0.0,0.0,0.0,2.4956,0.0,0.0,0.0,2.4405,2.4993,2.6587,2.8711,3.1262,3.6306,4.1817,4.589,4.6893,4.6893,4.6893,4.6893,4.6926,0.0,4.7637,4.8526,4.9872,5.0179,5.0455,5.1105,5.1202,0.0,0.0,0.0,0.0,0.0,0.0,0.0,0.0,0.0,0.0,0.0,5.1202,5.1202,5.1202,5.1202,5.1296,5.1536,5.1333,5.1445,5.1886,5.1684,5.1758,5.2157,5.2921,5.3264,5.3298,5.4749,5.5069,5.4563,5.5236,5.5854,5.6401,5.6401,5.6401,5.6401,5.6401,5.6401,5.6401,5.6401,5.6401,5.6401,0.0,0.0,0.0,0.0,0.0,0.0,0.0,0.0,0.0,0.0,0.0,0.0,0.0,0.0,0.0,0.0,0.0,0.0,0.0,0.0,0.0,1.8764,1.8827,1.8921,1.9033,1.9286,1.9744,2.0419,2.0526,2.095,2.1626,2.1211,2.1047,2.1102,2.0606,2.051,2.0677,2.0454,0.0,0.0,0.0,0.0,0.0,0.0,0.0,0.0,0.0,0.0,0.0,0.0,0.0,0.0,2.4349,0.0,0.0,0.0,2.5787,2.8009,3.3186,3.8127,4.2672,4.6187,4.6978,4.6893,4.6893,4.6893,4.6893,4.6893,4.7169,4.7702,4.8738,4.958,5.0212,5.0519,5.0943,5.1202,0.0,0.0,0.0,0.0,0.0,0.0,0.0,0.0,0.0,0.0,5.1202,5.1202,5.1202,5.1202,5.1277,5.148,5.1406,5.1517,5.1796,5.1721,5.1813,5.2102,5.2483,5.2922,5.3416,5.4008,5.4532,5.4994,5.5682,5.613,5.6401,5.6401,5.6401,5.6401,5.6401,5.6401,5.6401,5.6401,5.6401,5.6401,0.0,0.0,0.0,0.0,0.0,0.0,0.0,0.0,0.0,0.0,0.0,0.0,0.0,0.0,0.0,0.0,0.0,0.0,0.0,0.0,0.0,1.8855,1.9056,1.9254,1.9406,1.9802,2.0301,2.093,2.0742,2.0969,2.1545,2.077,2.0551,2.079,2.0133,2.0161,2.0687,0.0,0.0,0.0,0.0,0.0,0.0,0.0,0.0,0.0,0.0,0.0,0.0,0.0,0.0,0.0,0.0,0.0,0.0,0.0,0.0,2.6942,3.3343,3.7108,4.0324,4.4788,4.5732,4.5809,4.6768,4.6944,4.6893,4.6893,4.6893,4.7072,4.7621,4.8738,4.9629,4.9791,5.0438,5.0927,5.0927,0.0,0.0,0.0,0.0,0.0,0.0,0.0,0.0,0.0,5.1202,5.1202,5.1202,5.1202,5.1258,5.1424,5.1424,5.1499,5.1649,5.1686,5.1831,5.203,5.225,5.28,5.3649,5.383,5.4548,5.565,5.5812,5.5986,5.6144,5.6144,5.6259,5.6401,5.6401,5.6401,5.6401,5.6401,5.6401,5.6401,0.0,0.0,0.0,0.0,0.0,0.0,0.0,0.0,0.0,0.0,0.0,0.0,0.0,0.0,1.7448,1.6818,1.6848,1.7209,1.7948,1.863,1.9003,1.8993,1.9419,0.0,1.9682,2.0619,2.1078,2.0986,2.1038,2.1029,2.0937,2.0572,2.008,1.9498,1.9446,1.9904,2.0687,0.0,0.0,0.0,0.0,0.0,0.0,0.0,0.0,0.0,0.0,0.0,0.0,0.0,0.0,0.0,0.0,0.0,0.0,0.0,0.0,0.0,2.9101,3.0878,3.3698,4.0629,4.2176,4.2887,4.6384,4.703,4.6893,4.6893,4.6893,4.691,4.6958,4.7589,4.8316,4.8947,4.9675,5.0163,5.0163,0.0,0.0,0.0,0.0,0.0,0.0,0.0,0.0,0.0,5.1202,5.1202,5.1202,5.1202,5.1202,5.1221,5.1221,5.1221,5.124,5.1424,5.161,5.1815,5.2644,5.3499,5.4375,5.5011,5.5682,5.6286,5.5039,5.4857,5.5443,5.5443,5.5826,5.6401,5.6401,5.6401,5.6401,5.6401,5.6401,5.6401,0.0,0.0,0.0,0.0,0.0,0.0,0.0,0.0,0.0,0.0,0.0,0.0,0.0,1.7203,1.719,1.7201,1.77,1.8048,1.8177,1.8697,1.9138,1.9433,1.9608,2.0047,2.0787,2.1054,2.119,2.1178,2.0742,2.0539,2.0564,1.9628,1.9256,1.9428,1.9856,2.0218,2.0543,2.1065,0.0,0.0,0.0,0.0,0.0,0.0,0.0,0.0,0.0,0.0,0.0,0.0,0.0,0.0,0.0,0.0,0.0,0.0,2.4969,2.641,2.9777,3.1112,3.2723,3.7603,4.0373,4.2195,4.3405,4.5439,4.7047,4.6944,4.6893,4.6893,4.6893,4.7508,4.8073,4.8316,4.8931,4.9384,4.9384,5.0034,0.0,0.0,0.0,0.0,0.0,0.0,0.0,0.0,0.0,5.1202,5.1202,5.1202,5.1202,5.1202,5.1202,5.1202,5.1202,5.1258,5.1406,5.161,5.1926,5.2522,5.3382,5.3614,5.3859,5.4052,5.3581,5.4388,5.6028,5.6028,5.6186,5.6401,5.6401,5.6401,5.6401,5.6401,5.6401,5.6401,0.0,0.0,0.0,0.0,0.0,0.0,0.0,0.0,0.0,0.0,0.0,0.0,0.0,0.0,1.7034,1.7362,1.8085,1.8541,1.8565,1.8945,1.9375,1.9807,2.0013,2.0468,2.1209,2.1133,2.1111,2.1167,2.0312,1.9922,1.9932,1.8959,1.8689,1.9055,1.973,2.0168,0.0,0.0,0.0,2.2838,0.0,0.0,3.2479,0.0,0.0,0.0,0.0,0.0,0.0,0.0,0.0,0.0,0.0,0.0,0.0,0.0,0.0,2.6276,2.8909,2.9768,3.0794,3.4423,3.6904,3.9067,4.1312,4.3664,4.5651,4.6701,4.6893,4.6893,4.6893,4.7297,4.7637,4.7637,4.8202,4.8672,4.8672,4.9271,4.9724,0.0,0.0,0.0,0.0,0.0,0.0,0.0,0.0,0.0,5.1202,5.1202,5.1202,5.1202,5.1202,5.1202,5.1202,5.1202,5.1312,5.1499,5.1499,5.1964,5.2803,5.2803,5.2907,5.3129,5.3129,5.3956,5.5311,5.5549,5.5797,5.6088,5.6314,5.6401,5.6387,5.6273,5.63,5.6369,0.0,0.0,0.0,0.0,0.0,0.0,0.0,0.0,0.0,0.0,0.0,0.0,0.0,0.0,0.0,1.7199,1.7946,1.8584,1.9041,1.9328,1.9653,2.0057,2.0581,2.0854,2.0882,2.0882,2.0868,2.084,1.9809,1.9225,1.9069,1.8675,1.8421,1.8323,1.9004,1.9709,2.0393,0.0,2.1169,2.2451,0.0,3.1961,3.2224,0.0,0.0,0.0,2.9038,2.7853,0.0,0.0,0.0,0.0,0.0,0.0,0.0,0.0,0.0,0.0,0.0,0.0,0.0,3.0959,3.168,3.3321,4.0214,4.1667,4.2515,4.6036,4.6749,4.6748,4.6877,4.6893,4.6893,4.6893,4.7508,4.796,4.796,4.8542,4.8979,0.0,0.0,0.0,0.0,0.0,0.0,0.0,5.0714,5.1137,5.1137,5.1153,5.1186,5.1202,5.1202,5.1202,5.1202,5.1202,5.1312,5.148,5.148,5.1929,5.2751,5.2751,5.3095,5.3727,5.3727,5.3465,5.3111,5.3795,5.4608,5.5476,5.6102,5.6373,5.6328,5.5968,5.6052,5.6292,0.0,0.0,0.0,0.0,0.0,0.0,1.7549,0.0,0.0,0.0,0.0,0.0,0.0,0.0,1.7297,1.7537,1.8112,1.841,1.8309,1.8686,1.9114,1.9576,1.9695,1.9944,2.0376,2.0202,1.9995,1.9746,1.9255,1.8845,1.852,1.8559,1.8475,1.8343,1.93,1.9768,1.9874,2.0554,0.0,0.0,2.8556,3.1661,0.0,0.0,0.0,0.0,0.0,3.4723,0.0,0.0,3.3088,2.8055,0.0,0.0,0.0,0.0,0.0,0.0,2.6086,0.0,0.0,0.0,0.0,0.0,3.4079,3.6096,3.8668,4.249,4.2868,4.3391,4.6343,4.6893,4.6893,4.6893,4.7072,4.72,4.72,4.7831,4.8267,4.8267,0.0,0.0,0.0,0.0,0.0,0.0,4.9481,4.9611,4.9611,5.0115,5.0649,5.1186,5.1202,5.1202,5.1202,5.1202,5.1221,5.1277,5.1277,5.141,5.1637,5.1637,5.1749,5.1916,5.1916,5.1931,5.2036,5.3348,5.4498,5.5437,5.5189,5.5355,5.5679,5.4979,5.4924,5.505,0.0,0.0,0.0,0.0,0.0,1.7282,1.7136,1.7212,1.7151,0.0,0.0,0.0,0.0,0.0,1.7571,1.7844,1.8335,1.8679,1.8835,1.8966,1.9262,1.9778,1.966,1.9756,2.0117,1.9717,1.9371,1.9131,1.8817,1.853,1.8319,1.8524,1.8577,1.8494,1.9051,1.9271,0.0,0.0,0.0,0.0,2.8244,0.0,0.0,3.5547,3.8217,0.0,0.0,0.0,3.7462,3.9322,3.5102,0.0,0.0,0.0,0.0,0.0,0.0,0.0,0.0,0.0,0.0,0.0,0.0,0.0,3.3149,3.5093,3.7758,4.2916,4.3635,4.4074,4.6457,4.6893,4.6893,4.6893,4.6893,4.6893,4.6893,4.7265,4.754,4.754,0.0,0.0,0.0,4.8397,4.8575,4.8575,4.885,4.9012,4.9012,4.94,4.9839,5.0276,5.0584,5.073,5.073,5.1056,5.1202,5.1202,5.1202,5.1202,5.1202,5.1202,5.104,5.073,5.073,5.079,5.0879,5.1539,5.2767,5.4237,5.4169,5.4301,5.4466,5.3847,5.3833,5.3975,0.0,0.0,1.7818,1.7323,1.7372,1.739,1.7058,1.7224,1.7121,0.0,0.0,0.0,0.0,0.0,0.0,0.0,1.8508,1.9075,1.9641,1.9523,1.9663,2.0196,1.9995,1.9869,1.9869,1.9322,1.8983,1.8879,1.8494,1.8356,1.8456,1.8638,1.8764,0.0,0.0,0.0,0.0,0.0,0.0,2.1341,2.8147,3.1008,0.0,0.0,3.7848,0.0,3.8081,3.8019,3.8163,4.1453,3.8348,0.0,0.0,0.0,0.0,0.0,2.5919,0.0,0.0,0.0,0.0,0.0,0.0,0.0,3.4289,3.5568,3.7327,4.3863,4.5162,4.5243,4.5697,4.5778,4.5778,4.5778,4.6102,4.6457,4.6845,4.6893,4.6893,4.6893,4.6893,0.0,4.6893,4.7491,4.788,4.788,4.8429,4.8801,4.8882,4.8898,4.8931,4.9012,4.9645,4.9985,4.9985,5.0633,5.0959,5.0959,5.0959,5.0959,5.0959,5.0959,5.06,4.9985,4.9985,4.9921,4.9758,4.9211,5.0348,5.2439,5.2958,5.314,5.3035,5.2663,5.2729,5.2983,0.0,0.0,1.776,1.7485,1.7465,1.741,1.7123,1.7267,1.7208,0.0,0.0,0.0,0.0,0.0,0.0,0.0,1.8298,1.8679,1.7808,1.8485,1.8994,1.9116,1.9017,1.8948,1.8948,1.8727,1.8661,1.8739,1.8554,1.8756,1.9335,1.9069,1.9108,0.0,0.0,0.0,0.0,0.0,0.0,2.4485,2.8498,0.0,3.1909,3.8316,4.115,4.1737,4.1851,4.1893,4.1615,0.0,3.8414,3.6737,0.0,0.0,0.0,0.0,0.0,0.0,0.0,0.0,0.0,0.0,0.0,0.0,2.8372,2.8208,2.9092,3.3778,3.4266,3.4867,3.8165,3.8764,3.8764,3.8764,4.1079,4.3813,4.6522,4.6893,4.6893,4.6893,4.6893,0.0,4.6893,4.7039,4.7103,4.7103,4.725,4.7572,4.8154,4.8202,4.8445,4.8979,4.9141,4.9206,4.9206,4.9352,4.9432,4.9432,4.9432,4.9432,4.9432,4.9432,4.9352,4.9206,4.9206,4.9197,4.9157,4.905,5.005,5.1659,5.1303,5.1682,5.2329,5.1664,5.1598,5.1711,0.0,1.8345,1.8228,1.7859,1.7851,1.772,1.7139,1.7194,1.7175,0.0,0.0,0.0,0.0,0.0,0.0,0.0,0.0,0.0,0.0,1.7942,1.8382,1.854,1.8655,1.8721,1.8755,1.8687,1.8668,1.8692,1.8668,1.8892,1.9348,1.9109,1.905,0.0,0.0,0.0,0.0,0.0,2.1396,2.5402,2.8962,0.0,3.4633,4.0,4.2333,4.2759,4.2868,4.3053,4.3002,4.1261,3.8861,0.0,0.0,3.3908,3.2652,0.0,3.0059,3.1098,0.0,0.0,0.0,2.6453,0.0,0.0,0.0,2.8971,2.981,3.3525,3.4049,3.4457,3.6421,3.6807,3.6807,3.6807,3.9661,4.1885,4.1867,4.4773,4.6893,4.6893,4.6893,4.6893,4.6893,4.6893,4.6893,4.6893,4.6893,4.7072,4.7427,4.7443,4.7605,4.7945,4.8299,4.8494,4.8494,4.8834,4.9012,4.9012,4.9012,4.9012,4.9012,4.9012,4.8817,4.8494,4.8494,4.8283,4.7961,4.7961,4.8605,4.9621,4.9923,5.0466,5.1065,5.0686,5.0633,5.0694,0.0,1.8881,1.8831,1.8235,1.8297,1.8171,1.7399,1.7413,1.7395,1.7094,0.0,0.0,0.0,0.0,0.0,0.0,0.0,0.0,0.0,0.0,1.8571,1.8086,1.8276,1.8427,1.8492,1.8492,1.8517,1.8565,1.8646,1.8883,1.9247,1.9075,1.8987,0.0,0.0,1.9523,1.8846,0.0,0.0,2.6614,0.0,3.3266,3.7329,4.1136,4.2618,4.2681,4.2868,4.3144,4.335,4.2744,0.0,3.5719,3.7914,3.6102,0.0,0.0,0.0,0.0,0.0,0.0,0.0,0.0,0.0,2.7392,0.0,0.0,0.0,0.0,0.0,0.0,3.4495,0.0,0.0,3.4593,0.0,0.0,0.0,4.0769,0.0,4.4902,4.6101,4.6634,4.5955,4.589,4.6164,4.6845,4.6262,4.6131,4.6757,4.679,4.679,4.679,4.7354,4.7712,4.7799,4.8316,4.8591,4.8591,4.8591,4.8591,4.8591,4.8591,4.8299,4.7799,4.7799,4.7443,4.6893,4.6893,4.7218,4.7803,4.8859,4.9522,4.9845,4.995,5.0011,5.0022,1.9032,1.9144,1.919,1.8402,1.8582,1.8707,1.8293,1.8463,1.8457,1.8003,0.0,0.0,0.0,0.0,0.0,0.0,0.0,0.0,2.0787,0.0,0.0,1.7389,1.7277,1.7314,1.7375,1.7375,1.7606,1.8079,1.8207,1.8804,1.9801,1.9248,1.9277,0.0,2.2816,0.0,0.0,0.0,2.6633,0.0,3.0624,3.3109,0.0,4.1136,4.2712,4.2884,4.3021,4.328,4.3157,0.0,3.9564,3.885,0.0,3.6208,0.0,0.0,0.0,0.0,0.0,0.0,0.0,0.0,2.6436,0.0,0.0,0.0,0.0,0.0,0.0,0.0,0.0,0.0,0.0,0.0,0.0,0.0,3.1201,3.4086,3.6584,3.7713,4.3212,4.5696,4.258,4.2242,4.3508,4.6667,4.3978,4.3412,4.6213,4.6372,4.6372,4.6372,4.6452,4.6659,4.7006,4.7104,4.7153,4.7153,4.7153,4.7153,4.7153,4.7153,4.7104,4.7023,4.7023,4.6991,4.6893,4.6893,4.7218,4.7754,4.8309,4.8846,4.9364,4.9816,5.0011,4.9993,2.0333,2.0106,0.0,1.9106,1.9137,1.9075,1.859,1.8474,1.8344,1.8032,0.0,0.0,0.0,0.0,0.0,0.0,0.0,2.3193,0.0,0.0,0.0,0.0,0.0,0.0,1.7311,1.7531,1.7829,1.8175,1.8495,1.8977,1.9541,1.9175,1.9114,0.0,2.3125,0.0,2.259,0.0,2.7062,0.0,0.0,0.0,0.0,4.1066,4.2712,4.2915,4.3052,4.3265,4.3362,0.0,3.9805,0.0,0.0,0.0,0.0,0.0,0.0,0.0,0.0,0.0,0.0,0.0,0.0,0.0,0.0,0.0,2.5128,0.0,0.0,0.0,0.0,0.0,0.0,0.0,2.7388,0.0,0.0,0.0,3.5106,0.0,0.0,0.0,4.097,0.0,0.0,0.0,4.3248,4.2572,4.6112,4.6303,4.6213,4.6014,4.6195,4.6373,4.6547,4.6772,4.6893,4.6893,4.6893,4.6893,4.6893,4.6893,4.6893,4.6893,4.6893,4.6893,4.6893,4.6893,4.7031,4.7286,4.7787,4.8481,4.9241,4.9453,4.9725,5.0011,2.1078,0.0,0.0,0.0,1.9442,1.9314,1.8713,0.0,0.0,0.0,0.0,0.0,1.7038,1.8273,0.0,0.0,0.0,2.4844,0.0,0.0,2.1899,0.0,0.0,0.0,0.0,0.0,1.7983,1.8264,1.8627,1.8947,1.9209,1.9036,1.8947,0.0,0.0,2.4742,2.5017,0.0,0.0,3.2458,3.2257,3.3739,3.6558,4.0934,4.2712,4.2915,4.3022,4.329,4.3589,4.3401,4.0062,0.0,4.2188,0.0,0.0,0.0,0.0,0.0,2.9286,0.0,0.0,0.0,0.0,0.0,0.0,0.0,0.0,0.0,0.0,0.0,0.0,0.0,0.0,0.0,0.0,2.6733,0.0,0.0,0.0,0.0,0.0,0.0,0.0,3.811,3.9541,4.4848,4.1466,4.1245,4.6048,4.6213,4.605,4.5796,4.605,4.6213,4.6303,4.6703,4.6893,4.6893,4.6893,4.6893,4.6893,4.6893,4.6893,4.6893,4.6893,4.6893,4.6893,4.6893,4.6893,4.6928,4.7336,4.8016,4.8825,4.9087,4.9439,4.9801,2.0624,2.0337,0.0,0.0,0.0,0.0,0.0,0.0,0.0,0.0,0.0,0.0,0.0,0.0,0.0,0.0,0.0,3.3961,2.6617,0.0,2.5733,0.0,0.0,0.0,0.0,0.0,0.0,1.8202,1.8285,1.8557,1.9012,1.8865,1.8917,0.0,2.2822,2.4952,2.6034,2.8773,3.2847,3.7385,3.6481,3.5798,3.5876,0.0,4.2712,4.2899,4.2899,0.0,0.0,4.0836,4.0402,0.0,0.0,0.0,0.0,0.0,0.0,0.0,0.0,0.0,0.0,0.0,0.0,0.0,0.0,0.0,2.3472,0.0,0.0,0.0,0.0,0.0,0.0,0.0,0.0,0.0,0.0,0.0,0.0,0.0,0.0,0.0,0.0,3.1814,3.2417,4.0496,3.7588,3.8642,4.592,4.5997,4.5814,4.5796,4.5814,4.5961,4.6301,4.6703,4.6893,4.6893,4.6893,4.6893,4.6893,4.6893,4.6893,4.6893,4.6893,4.6893,4.6893,4.6893,4.6893,4.6893,4.6911,4.7252,4.7869,4.8841,4.9209,4.9301,0.0,0.0,0.0,0.0,0.0,0.0,0.0,1.7321,0.0,0.0,0.0,0.0,0.0,0.0,2.7853,0.0,0.0,3.2583,2.7482,2.7584,0.0,0.0,0.0,1.8874,0.0,0.0,0.0,0.0,0.0,1.9036,1.9205,1.9153,1.9185,0.0,0.0,2.6269,0.0,0.0,0.0,0.0,0.0,3.3558,3.6076,0.0,0.0,3.8302,4.1695,4.3402,0.0,4.356,4.2032,4.0713,4.3048,4.1321,3.8583,3.9416,3.9186,0.0,0.0,0.0,3.6488,2.954,0.0,0.0,0.0,0.0,0.0,0.0,0.0,0.0,0.0,0.0,0.0,0.0,0.0,0.0,0.0,0.0,0.0,0.0,0.0,0.0,0.0,0.0,0.0,4.0925,3.939,4.0429,4.5695,4.5868,4.556,4.5024,4.5265,4.5468,4.558,4.6195,4.6495,4.6512,4.6772,4.6893,4.6893,4.6893,4.6893,4.6893,4.6893,4.6893,4.6893,4.6893,4.6893,4.6893,4.6893,4.6997,4.7252,4.7951,4.8623,4.9286,1.853,0.0,0.0,0.0,0.0,0.0,0.0,0.0,0.0,0.0,2.1498,0.0,2.6662,0.0,3.0206,0.0,3.4684,3.339,2.793,2.9639,0.0,2.523,2.3097,0.0,0.0,0.0,0.0,0.0,0.0,1.9321,1.9302,1.9302,1.9299,1.9382,0.0,2.5611,3.1275,3.0593,3.3643,0.0,0.0,3.1087,0.0,0.0,3.4386,3.6288,0.0,4.3261,4.3992,4.4544,4.3368,4.2256,4.5506,4.33,3.9883,4.1837,4.1123,3.9287,3.7331,3.8895,0.0,0.0,3.2902,0.0,0.0,0.0,0.0,0.0,0.0,0.0,0.0,0.0,0.0,0.0,0.0,0.0,0.0,2.4373,0.0,0.0,0.0,0.0,0.0,0.0,3.1593,3.7725,3.7679,3.9147,0.0,0.0,4.5292,4.5027,4.5136,4.521,4.521,4.5817,4.6177,4.6303,4.6565,4.6772,4.6893,4.6893,4.6893,4.6893,4.6893,4.6893,4.6893,4.6893,4.6893,4.6893,4.6893,4.6893,4.6962,4.7504,4.8338,4.9286,0.0,0.0,0.0,0.0,1.7017,0.0,0.0,0.0,1.6983,0.0,2.1622,2.3249,2.7073,3.0947,3.3263,3.3275,3.7497,0.0,2.8457,3.3166,0.0,0.0,3.049,3.2905,3.6565,0.0,0.0,0.0,0.0,0.0,1.929,1.929,1.9242,1.9105,1.8679,0.0,3.0833,3.0369,3.4902,4.1609,3.2432,2.8769,2.8812,2.9001,0.0,3.684,4.1081,4.3071,4.3703,4.3703,4.4318,4.5049,4.487,4.4968,4.5082,4.4837,4.5097,4.4641,4.088,4.0063,3.9344,3.5532,0.0,0.0,0.0,0.0,2.7162,0.0,0.0,0.0,0.0,0.0,0.0,0.0,0.0,0.0,0.0,0.0,0.0,0.0,0.0,0.0,0.0,2.4713,2.4981,3.1464,3.2782,3.5107,0.0,0.0,4.4826,4.5681,4.5329,4.5142,4.5173,4.556,4.5943,4.6283,4.6285,4.6512,4.6893,4.6893,4.6893,4.6893,4.6893,4.6893,4.6893,4.6893,4.6893,4.6893,4.6944,4.6945,4.7031,4.7554,4.8354,4.9286,1.7074,1.6613,1.628,0.0,1.6077,1.5877,0.0,0.0,0.0,0.0,2.562,2.8399,3.5025,3.7251,3.831,3.846,4.0073,0.0,0.0,0.0,0.0,3.4995,3.2494,3.3057,3.7177,2.908,0.0,2.4884,0.0,0.0,1.9235,1.9235,1.9345,1.9508,1.8547,2.1173,2.6265,2.5731,2.8303,3.2508,3.0377,2.9259,0.0,0.0,3.5059,3.684,4.1081,4.3071,4.3703,4.3703,4.4221,4.4886,4.4984,4.5195,4.524,4.443,4.4473,4.4408,4.282,4.2439,4.1614,3.8038,3.7103,3.6133,0.0,0.0,0.0,0.0,0.0,0.0,0.0,0.0,0.0,0.0,0.0,0.0,0.0,0.0,0.0,0.0,0.0,0.0,2.5993,2.5534,2.7609,3.3719,3.3485,0.0,0.0,0.0,0.0,4.446,4.4188,4.4251,4.4761,4.5154,4.556,4.5925,4.6177,4.6512,4.6893,4.6893,4.6893,4.6893,4.6893,4.6893,4.6893,4.6893,4.6893,4.6928,4.7353,4.7704,4.8032,4.8161,4.8654,4.9286,1.6544,0.0,0.0,1.5276,0.0,0.0,1.7577,0.0,0.0,2.5584,2.6836,0.0,3.5939,3.8799,4.0384,4.0796,4.1477,0.0,0.0,0.0,0.0,3.688,3.6645,3.7696,4.0118,3.3654,0.0,2.7418,0.0,0.0,1.8802,1.8722,1.8781,1.8978,1.834,2.0422,2.4643,2.8014,2.9298,2.9248,3.1329,0.0,0.0,3.4762,3.7104,3.9365,4.1745,4.2861,4.3217,4.3217,4.3492,4.3864,4.3961,4.4104,4.4148,4.3787,4.3688,4.3621,4.3361,4.3306,4.2827,4.0868,4.0522,3.9721,3.6119,3.5477,3.5144,0.0,0.0,0.0,0.0,0.0,0.0,0.0,0.0,0.0,0.0,0.0,0.0,0.0,0.0,0.0,2.4338,2.4054,2.5843,3.0737,3.044,0.0,0.0,0.0,0.0,4.1028,4.11,4.21,4.4129,4.3027,4.3486,4.5541,4.5744,4.6106,4.6651,4.6651,4.6738,4.6893,4.6893,4.6893,4.6893,4.6893,4.6893,4.6945,4.7504,4.7983,4.8416,4.8668,4.8932,4.9286,0.0,0.0,0.0,0.0,0.0,0.0,0.0,1.826,0.0,2.6307,0.0,2.9372,3.4185,3.8287,4.0912,4.1494,0.0,4.0856,3.6659,4.0913,4.1731,3.7526,4.1372,4.3598,4.3598,3.9513,0.0,0.0,0.0,0.0,1.8258,1.8069,1.805,1.8146,1.8055,2.0294,0.0,3.1906,3.267,2.9359,3.3628,3.5613,3.6012,3.6111,3.8845,4.2602,4.2602,4.2602,4.2618,4.2665,4.2649,4.2618,4.2665,4.2649,4.2696,4.3171,4.3004,4.2789,4.3202,4.3306,4.3276,4.3216,4.3501,4.292,3.955,3.91,3.8315,3.4537,3.4435,0.0,0.0,0.0,0.0,0.0,0.0,0.0,0.0,0.0,0.0,0.0,0.0,0.0,0.0,2.1832,2.2456,0.0,0.0,0.0,0.0,0.0,0.0,3.7824,3.8184,3.9824,4.2813,0.0,4.1174,4.445,4.496,4.5546,4.6248,4.6268,4.6495,4.6824,4.6876,4.6893,4.6893,4.6893,4.6979,4.7134,4.7605,4.8129,4.8668,4.9133,4.9301,4.9361,0.0,0.0,0.0,0.0,0.0,2.1389,2.4588,2.4936,2.6467,3.1023,3.2481,3.462,3.8578,4.0873,4.2173,4.2305,4.2969,0.0,0.0,0.0,0.0,4.2385,4.3155,4.3598,4.3598,3.9153,3.4677,0.0,0.0,0.0,1.8052,1.7957,1.8099,1.8402,1.7843,1.9914,2.3884,2.5301,0.0,2.9334,3.4171,3.5843,3.587,3.9816,4.1842,4.2602,4.2602,4.2602,4.2649,4.305,4.2928,4.2665,4.305,4.2912,4.2696,4.3171,4.3231,4.3202,4.3276,4.3306,4.3217,4.282,4.2789,4.2765,4.2471,4.2453,4.2398,4.1999,4.2372,4.1594,3.7824,0.0,0.0,0.0,0.0,0.0,0.0,0.0,0.0,0.0,0.0,0.0,0.0,0.0,0.0,0.0,0.0,0.0,0.0,0.0,0.0,0.0,4.1045,0.0,0.0,0.0,4.1969,4.0446,4.3675,4.545,4.5905,4.6177,4.6354,4.6425,4.6755,4.6893,4.6893,4.6893,4.7404,4.8161,4.8241,4.8873,4.9728,4.9833,4.9845,4.986,0.0,0.0,0.0,0.0,0.0,0.0,0.0,3.1352,0.0,3.321,3.3522,3.4851,3.7814,4.0732,4.2638,4.305,4.34,4.3598,4.3598,4.3598,4.3598,4.3598,4.3598,0.0,4.3598,0.0,3.6984,3.0252,0.0,0.0,0.0,1.7393,1.7491,1.7978,1.9982,2.1706,0.0,0.0,0.0,3.2646,3.7579,3.9379,3.9343,4.1696,4.2602,4.2602,4.2602,4.2602,4.2618,4.2866,4.2789,4.2633,4.2866,4.2789,4.2743,4.3441,4.3486,4.3351,4.359,4.3663,4.3486,4.2789,4.2789,4.2959,4.2943,4.3126,4.3366,4.359,4.4013,4.306,3.888,3.3183,0.0,0.0,0.0,0.0,0.0,0.0,0.0,0.0,0.0,0.0,0.0,0.0,0.0,0.0,0.0,0.0,0.0,0.0,0.0,0.0,0.0,0.0,0.0,0.0,0.0,4.1607,4.3474,4.4774,4.5505,4.5871,4.6141,4.6321,4.6738,4.6893,4.6911,4.7184,4.7605,4.8081,4.8606,4.9135,4.9605,4.9906,5.0011,5.0011,0.0,1.5229,0.0,0.0,2.4014,0.0,3.1383,3.5743,3.7741,3.5333,3.4855,3.5469,3.7404,4.0685,4.2969,4.3549,4.3598,4.3598,4.3598,4.3598,4.3598,4.3598,4.3598,4.3598,4.3598,4.3598,3.9728,0.0,0.0,0.0,0.0,0.0,0.0,0.0,0.0,0.0,0.0,0.0,3.6718,3.7197,4.1047,4.2602,4.2602,4.2602,4.2602,4.2618,4.2711,4.2758,4.2774,4.2851,4.2836,4.2774,4.2867,4.2836,4.2881,4.3619,4.359,4.3381,4.3752,4.3839,4.3651,4.282,4.2881,4.305,4.268,4.2881,4.3156,4.3156,4.3458,4.2551,3.8844,3.5196,0.0,0.0,0.0,0.0,0.0,0.0,0.0,0.0,0.0,0.0,0.0,0.0,0.0,0.0,0.0,0.0,0.0,0.0,0.0,0.0,0.0,3.6971,3.9234,0.0,3.9309,0.0,4.3134,4.4053,4.488,4.5408,4.5817,4.609,4.6565,4.6876,4.7099,4.7538,4.7836,4.8114,4.8887,4.9271,4.9424,4.9845,5.0011,5.0011,0.0,0.0,0.0,0.0,0.0,0.0,0.0,3.5717,3.876,3.9262,3.997,4.08,4.1819,4.2872,4.3515,4.3582,4.3598,4.3598,4.3598,4.3598,4.3598,4.3598,4.3598,4.3598,4.3598,4.3598,4.1234,0.0,0.0,0.0,0.0,0.0,0.0,0.0,0.0,0.0,0.0,3.6085,3.8557,4.1954,4.2408,4.2602,4.2602,4.2602,4.2602,4.2649,4.308,4.3231,4.3291,4.3739,4.3591,4.3306,4.3722,4.3575,4.3246,4.3336,4.3336,4.3306,4.3351,4.3366,4.3231,4.2727,4.2618,4.2649,4.2618,4.2618,4.2681,4.2681,4.2696,4.1821,3.8821,3.7016,3.5181,0.0,0.0,0.0,0.0,0.0,0.0,0.0,0.0,0.0,0.0,0.0,0.0,0.0,0.0,0.0,0.0,0.0,0.0,3.5155,0.0,3.4487,3.1566,3.7941,3.9888,3.7405,4.1599,4.3658,4.3772,4.48,4.5284,4.5342,4.6052,4.6843,4.7621,4.7688,4.8242,4.9057,4.9163,4.9515,4.9935,4.9982,5.0011,5.0011,0.0,0.0,0.0,0.0,0.0,0.0,0.0,3.7452,3.9161,4.0394,4.0931,4.1698,4.3019,4.3416,4.3598,4.3598,4.3598,4.3598,4.3598,4.3598,4.3598,4.3598,4.3598,4.3598,4.3598,4.3598,4.1446,0.0,0.0,0.0,0.0,0.0,0.0,0.0,0.0,3.2949,3.6542,3.9194,4.1185,4.2602,4.2602,4.2602,4.2602,4.2602,4.2602,4.2618,4.2804,4.2881,4.2928,4.3184,4.329,4.3336,4.3515,4.3109,4.2632,4.291,4.3001,4.3001,4.3001,4.335,4.3486,4.2539,4.2664,4.2881,4.2413,4.2461,4.2602,4.2602,4.2602,4.2259,4.1097,3.8818,3.7433,0.0,0.0,0.0,0.0,0.0,0.0,0.0,0.0,0.0,0.0,0.0,0.0,0.0,0.0,0.0,0.0,0.0,0.0,3.2284,0.0,3.6892,3.3244,3.8349,4.0495,3.9655,4.1531,4.282,4.3608,4.4293,4.4948,4.5596,4.6088,4.6688,4.7388,4.7902,4.856,4.9224,4.956,4.9816,5.0011,5.0011,5.0011,5.0011,2.7934,0.0,2.7181,0.0,3.2737,3.3297,3.773,3.8628,3.9329,4.0818,4.1155,4.1857,4.3433,4.3598,4.3598,4.3598,4.3598,4.3598,4.3598,4.3598,4.3598,4.3598,4.3598,0.0,4.3598,4.3598,4.2075,3.901,3.4418,0.0,0.0,0.0,0.0,0.0,3.4836,3.6907,3.843,4.1507,4.2728,4.2602,4.2602,4.2539,4.2444,4.2444,4.2444,4.2461,4.2508,4.2586,4.2679,4.2801,4.2924,4.3018,4.3018,4.2678,4.2317,4.2428,4.2443,4.2443,4.2443,4.2863,4.3079,4.2174,4.238,4.2647,4.2077,4.2206,4.2444,4.2444,4.2365,4.2302,4.2302,4.0382,3.9218,4.0563,0.0,0.0,0.0,0.0,0.0,0.0,0.0,3.2128,3.3056,0.0,0.0,0.0,0.0,0.0,0.0,0.0,0.0,0.0,0.0,0.0,0.0,3.8683,4.0768,4.1276,4.1494,4.2112,4.3039,4.3717,4.4625,4.5651,4.6143,4.6637,4.7169,4.8208,4.8872,4.9256,4.9801,5.0011,5.0011,5.0011,5.0011,5.0011,3.1082,2.8415,2.8136,3.681,3.4707,3.3297,3.773,3.8628,3.9329,4.0818,4.1226,4.1957,4.3433,4.3598,4.3598,4.3598,4.3598,4.3598,4.3598,4.3598,4.3598,0.0,0.0,4.3598,4.3598,4.3598,4.3565,4.3515,0.0,0.0,3.7498,0.0,3.2182,3.6382,3.5584,3.8036,4.2803,4.2665,4.2602,4.2602,4.2602,4.2397,4.2109,4.2109,4.2109,4.2126,4.2269,4.2522,4.2816,4.2952,4.2692,4.2317,4.2317,4.2537,4.2647,4.1851,4.1605,4.1605,4.1605,4.1621,4.1621,4.1605,4.1605,4.1621,4.1605,4.1867,4.2109,4.2109,4.1851,4.1605,4.1605,4.1573,4.0435,3.702,0.0,0.0,0.0,0.0,0.0,0.0,3.3332,3.2431,3.555,0.0,0.0,0.0,0.0,0.0,0.0,0.0,0.0,3.5156,3.5702,0.0,3.5309,3.8765,4.0489,4.052,4.1245,4.1617,4.1663,4.2989,4.4186,4.5265,4.6111,4.6725,4.7203,4.8621,4.9194,4.9256,4.9801,5.0011,5.0011,5.0011,5.0011,5.0011,3.6079,3.5227,3.515,3.7922,3.7247,3.6942,3.8859,3.9391,4.008,4.1555,4.1968,4.252,4.3482,4.3598,4.3598,0.0,4.3598,4.3598,0.0,4.3598,4.3598,4.3598,4.3598,4.3598,4.3598,4.3598,4.3553,4.3462,0.0,0.0,0.0,3.4946,3.6454,4.0653,4.0382,4.1159,4.2681,4.2634,4.2602,4.2602,4.2602,4.2539,4.2429,4.2429,4.2302,4.2109,4.2142,4.2093,4.1965,4.177,4.177,4.1737,4.1241,4.1325,4.159,4.134,4.1272,4.1272,4.1272,4.1423,4.1539,4.1322,4.1423,4.1539,4.1306,4.1522,4.1753,4.1753,4.1671,4.1605,4.1605,4.1605,4.1241,4.0135,0.0,0.0,0.0,0.0,0.0,0.0,2.8846,2.7882,0.0,2.7834,0.0,0.0,0.0,0.0,0.0,0.0,0.0,0.0,3.6538,0.0,3.5125,3.8683,4.0489,4.0489,4.0737,4.1107,4.1648,4.2989,4.3806,4.4208,4.5798,4.6795,4.7339,4.8652,4.9424,4.9772,4.9935,5.0011,5.0011,5.0011,5.0011,5.0011,3.8391,3.8391,3.8391,3.8391,3.8634,3.8973,3.9426,3.9962,4.0752,4.1932,4.2331,4.2785,4.3515,4.3598,0.0,4.3598,4.3598,4.3598,4.3598,4.3598,4.3598,4.3598,4.3598,4.3583,4.3539,0.0,0.0,4.3296,4.0396,3.8846,3.8595,3.8549,3.9985,4.2602,4.2602,4.2602,4.2602,4.2602,4.2602,4.2602,4.2602,4.2524,4.2413,4.2413,4.2286,4.2061,4.1818,4.1671,4.1522,4.1038,4.1004,4.1105,4.0645,4.0679,4.0884,4.0884,4.0884,4.0884,4.0884,4.1037,4.1139,4.0935,4.1021,4.1173,4.1121,4.1155,4.1223,4.1373,4.129,4.1189,4.1189,4.1189,4.1189,4.1189,4.1189,4.0674,0.0,0.0,0.0,0.0,0.0,0.0,0.0,3.012,0.0,0.0,0.0,0.0,0.0,0.0,0.0,3.4123,3.8276,0.0,3.7081,3.9344,4.0489,4.0489,4.0489,4.0891,4.1632,4.2466,4.3262,4.4107,4.5629,4.6741,4.7523,4.8838,4.9513,4.971,4.9921,5.0011,5.0011,5.0011,5.0011,5.0011,3.8472,3.8487,0.0,0.0,3.9118,0.0,3.9651,4.0466,4.1342,4.2094,4.2428,4.2851,4.353,4.3598,4.3598,4.3598,0.0,0.0,0.0,4.3598,4.3598,4.3598,4.3598,4.3524,4.3372,4.3372,4.3281,4.3098,4.2945,4.2791,4.2602,4.2602,4.2602,4.2602,4.2602,4.2602,4.2602,4.2602,4.2602,4.2602,4.2602,4.2413,4.2126,4.2126,4.2126,4.2013,4.1357,4.1323,4.1456,4.0747,4.0489,4.0489,4.0489,4.0489,4.0489,4.0489,4.0489,4.0489,4.0489,4.0489,4.0489,4.0489,4.0489,4.0593,4.0969,4.0765,4.061,4.0986,4.0765,4.0489,4.0489,4.0489,4.0489,4.0489,4.0276,3.8801,3.5118,0.0,0.0,0.0,0.0,0.0,0.0,3.5247,3.6597,0.0,0.0,0.0,0.0,0.0,3.3849,4.0305,4.0489,4.0489,4.0489,4.0489,4.0489,4.0489,4.0489,4.0895,4.158,4.1641,4.2749,4.467,4.5646,4.6651,4.7687,4.9099,4.9528,4.9301,4.9801,5.0011,5.0011,5.0011,5.0011,5.0011,0.0,0.0,3.9522,3.9927,4.026,4.0658,4.1179,4.1586,4.214,4.2981,4.3229,4.34,4.3582,4.3598,4.3598,4.3598,4.3598,4.3598,4.3598,4.3598,4.3553,4.3447,4.3464,4.3357,4.3174,4.3174,4.3099,4.2961,4.2759,4.2649,4.2602,4.2602,4.2602,4.2602,4.2602,4.2602,4.2602,4.2602,4.2602,4.2602,4.2602,4.2555,4.2492,4.2492,4.2317,4.2045,4.1621,4.1373,4.1139,4.0662,4.0489,4.0489,4.0489,4.0489,4.0489,4.0489,4.0489,4.0489,4.0489,4.0489,4.0489,4.0489,4.0489,4.0524,4.0627,4.0558,4.0524,4.0627,4.0558,4.0489,4.0489,4.0489,4.0489,4.0489,3.7971,3.5674,3.4717,3.1959,0.0,0.0,2.8785,3.0356,3.438,3.4766,3.5185,0.0,0.0,0.0,0.0,3.4912,3.6072,4.0366,4.0489,4.0489,4.0489,4.0489,4.0489,4.0489,4.0489,4.0861,4.1526,4.2108,4.2908,4.3975,4.5928,4.7002,4.7486,4.9063,4.9737,4.9816,4.995,5.0011,5.0011,5.0011,5.0011,5.0011,4.0,4.0152,4.0308,4.0668,4.1102,4.152,4.1881,4.2358,4.2869,4.3338,4.3524,4.3598,4.3598,4.3598,4.3598,4.3598,4.3598,4.3598,4.3598,4.3267,4.3219,4.3492,4.3163,4.3071,4.3235,4.3251,4.3129,4.2899,4.2696,4.2602,4.2602,4.2602,4.2602,4.2602,4.2602,4.2602,4.2602,4.2602,4.2602,4.2602,4.2602,4.2602,4.2602,4.2602,4.2492,4.2254,4.1785,4.1489,4.124,4.0696,4.0489,4.0489,4.0489,4.0489,4.0489,4.0489,4.0489,4.0489,4.0489,4.0489,4.0489,4.0489,4.0489,4.0489,4.0489,4.0489,4.0489,4.0489,4.0489,4.0489,4.0489,4.0489,4.0489,4.0489,3.717,3.4608,3.4608,3.1137,0.0,3.1122,3.1338,3.2906,3.6908,3.7293,3.7352,3.7497,0.0,0.0,3.7511,3.759,3.8499,4.0443,4.0489,4.0489,4.0489,4.0489,4.0489,4.0489,4.0489,4.0853,4.1525,4.1919,4.283,4.4179,4.5405,4.6447,4.7346,4.8589,4.9239,4.9479,4.9858,5.0011,5.0011,5.0011,5.0011,5.0011,4.0674,4.0798,4.0937,4.1234,4.185,4.2304,4.2304,4.2933,4.3419,4.3434,4.3539,4.3598,4.3598,4.3598,4.3598,4.3598,4.3598,4.3598,4.3598,4.3002,4.2886,4.3386,4.2791,4.2699,4.3176,4.3277,4.316,4.2853,4.2681,4.2649,4.2696,4.2618,4.2649,4.2696,4.2634,4.2602,4.2602,4.2602,4.2602,4.2602,4.2602,4.2602,4.2602,4.2602,4.2602,4.2524,4.1899,4.1687,4.1555,4.085,4.0593,4.0576,4.0524,4.0489,4.0489,4.0489,4.0489,4.0489,4.0489,4.0489,4.0489,4.0489,4.0489,4.0489,4.0489,4.0489,4.0489,4.0489,4.0489,4.0489,4.0489,4.0489,4.0307,3.9725,3.6292,3.3696,3.371,0.0,3.0094,3.4114,3.5134,3.6816,4.0168,4.0489,4.0489,4.0489,4.0489,4.0489,0.0,4.0489,4.0489,4.0489,4.0489,4.0489,4.0489,4.0489,4.0489,4.0489,4.061,4.099,4.1641,4.1755,4.2861,4.4705,4.479,4.5683,4.7099,4.7882,4.8449,4.8875,4.9548,4.9893,5.0011,5.0011,5.0011,5.0011,4.0314,4.0779,4.1318,4.2423,4.293,4.3192,4.3192,4.3306,4.3432,4.3553,4.3598,4.3598,4.3598,4.3598,4.3598,4.3598,4.3598,4.3598,4.3598,4.3482,4.3142,4.253,4.2398,4.2292,4.2209,4.2711,4.2868,4.2649,4.2618,4.2789,4.317,4.2789,4.2804,4.3171,4.2789,4.2602,4.2602,4.2602,4.2602,4.2602,4.2602,4.2602,4.2602,4.2602,4.2602,4.2555,4.2158,4.2029,4.1916,4.124,4.102,4.0952,4.061,4.0489,4.0489,4.0489,4.0489,4.0489,4.0489,4.0489,4.0489,4.0489,4.0489,4.0489,4.0489,4.0489,4.0489,4.0489,4.0489,4.0489,4.0489,4.0489,3.9417,3.6136,3.2185,2.9543,2.9601,0.0,3.0094,3.4114,3.7555,3.983,4.0428,4.0489,4.0489,4.0489,4.0489,4.0489,4.0489,4.0489,4.0489,4.0489,4.0489,4.0489,4.0489,4.0489,4.0489,4.0507,4.1074,4.169,4.2363,4.2938,4.3699,4.4645,4.5272,4.5806,4.6324,4.7079,4.7952,4.881,4.8944,4.9393,5.0011,5.0011,5.0011,5.0011,4.0518,4.0838,4.1211,4.1881,4.2173,4.2466,4.2863,4.2929,4.3076,4.3549,4.3598,4.3598,4.3598,4.3598,4.3598,4.3598,4.3598,4.3598,4.3598,4.3232,4.2824,4.242,4.2024,4.1735,4.1574,4.2043,4.2267,4.2175,4.2718,4.3095,4.3306,4.3338,4.3472,4.3649,4.3187,4.2989,4.2974,4.2711,4.2602,4.2602,4.2602,4.2602,4.2602,4.2602,4.2602,4.2555,4.2222,4.198,4.1753,4.1272,4.0969,4.0747,4.0558,4.0489,4.0489,4.0489,4.0489,4.0489,4.0489,4.0489,4.0489,4.0489,4.0489,4.0489,4.0489,4.0489,4.0489,4.0489,4.0489,4.0489,4.0489,4.0489,3.9217,3.5271,3.3058,0.0,0.0,3.1847,3.3309,3.7309,3.9385,4.0489,4.0489,4.0489,4.0489,4.0489,4.0489,4.0489,4.0489,4.0489,4.0489,4.0489,4.0489,4.0489,4.0489,4.0489,4.0681,4.104,4.1343,4.2029,4.3045,4.3347,4.3898,4.4632,4.4956,4.5261,4.5555,4.6307,4.7023,4.7686,4.8496,4.9031,4.941,4.9841,5.0011,5.0037,4.0476,4.0624,4.0801,4.1136,4.1281,4.155,4.2142,4.2239,4.2454,4.3002,4.31,4.3151,4.3317,4.3333,4.34,4.3537,4.3553,4.3539,4.3477,4.2949,4.2584,4.2462,4.1723,4.1172,4.0865,4.1324,4.1579,4.1637,4.2595,4.3163,4.3385,4.3802,4.4059,4.4145,4.356,4.3306,4.3261,4.2805,4.2602,4.2602,4.2602,4.2602,4.2602,4.2602,4.2602,4.2571,4.2302,4.1997,4.1671,4.1323,4.0969,4.0627,4.0524,4.0489,4.0489,4.0489,4.0489,4.0489,4.0489,4.0489,4.0489,4.0489,4.0489,4.0489,4.0489,4.0489,4.0489,4.0489,4.0489,4.0489,4.0489,4.0489,3.9217,3.5257,0.0,0.0,0.0,3.4623,3.6076,4.003,4.0489,4.0489,4.0489,4.0489,4.0489,4.0489,4.0489,4.0489,4.0489,4.0489,4.0489,4.0489,4.0489,4.0489,4.0489,4.0489,4.0836,4.1509,4.1657,4.2348,4.3512,4.3676,4.4061,4.4615,4.4615,4.472,4.5002,4.5607,4.6117,4.6645,4.7827,4.8393,4.8651,4.9427,4.972,4.9807,3.9615,3.9787,4.0081,4.1027,4.1212,4.1269,4.1446,4.1477,4.1494,4.156,4.156,4.1825,4.2504,4.2587,4.2809,4.3368,4.3402,4.3342,4.3159,4.3094,4.2827,4.2336,4.1493,4.066,3.9834,4.052,4.0949,4.1144,4.1974,4.2784,4.3583,4.3869,4.4228,4.4611,4.3691,4.3306,4.3261,4.2805,4.2602,4.2602,4.2602,4.2602,4.2602,4.2602,4.2602,4.2602,4.2571,4.2349,4.2013,4.1687,4.134,4.0986,4.0627,4.0489,4.0489,4.0489,4.0489,4.0489,4.0489,4.0489,4.0489,4.0489,4.0489,4.0489,4.0489,4.0489,4.0489,4.0489,4.0489,4.0489,4.0489,4.0489,3.9234,3.533,0.0,0.0,3.4679,3.4636,3.6076,4.003,4.0489,4.0489,4.0489,4.0489,4.0489,4.0489,4.0489,4.0489,4.0489,4.0489,4.0489,4.0489,4.0489,4.0489,4.0489,4.0489,4.0836,4.1509,4.2125,4.2799,4.3527,4.4207,4.4542,4.4615,4.4615,4.4682,4.4831,4.5005,4.5566,4.6351,4.6645,4.7186,4.7876,4.8603,4.8893,4.9064,3.8819,3.8953,3.9133,3.9523,3.9738,4.0009,4.0512,4.0707,4.09,4.1215,4.1281,4.1354,4.155,4.1568,4.1652,4.1904,4.1906,4.2073,4.2456,4.2489,4.2373,4.2122,4.0893,4.0042,3.9709,3.9897,4.0156,4.048,4.1498,4.2308,4.2943,4.3782,4.4287,4.4437,4.4251,4.4013,4.3693,4.3232,4.2866,4.2602,4.2602,4.2602,4.2602,4.2602,4.2602,4.2602,4.2602,4.2381,4.2045,4.172,4.1373,4.1037,4.0627,4.0489,4.0489,4.0489,4.0489,4.0489,4.0489,4.0489,4.0489,4.0489,4.0489,4.0489,4.0489,4.0489,4.0489,4.0489,4.0489,4.0489,4.0489,4.0489,3.9217,3.5286,0.0,3.7417,3.4977,3.6723,3.8817,4.0322,4.0489,4.0489,4.0489,4.0489,4.0489,4.0489,4.0489,4.0489,4.0489,4.0489,4.0489,4.0489,4.0489,4.0489,4.0489,4.0921,4.1459,4.2125,4.28,4.3482,4.4193,4.4468,4.4615,4.4615,4.4615,4.4682,4.4803,4.4937,4.5203,4.5562,4.6312,4.6697,4.6938,4.7813,4.8612,4.9408,3.8448,3.849,3.856,3.8658,3.878,3.9054,3.9602,3.9811,4.0018,4.0398,4.0449,4.0489,4.0652,4.0654,4.0723,4.0925,4.0927,4.1125,4.1569,4.1603,4.17,4.1926,4.0652,3.9849,3.9635,3.9451,3.9476,3.9753,4.1036,4.1835,4.2179,4.3237,4.3804,4.3958,4.4095,4.3993,4.364,4.3401,4.3034,4.2602,4.2602,4.2602,4.2602,4.2602,4.2602,4.2602,4.2602,4.2381,4.2045,4.172,4.1373,4.1037,4.0627,4.0489,4.0489,4.0489,4.0489,4.0489,4.0489,4.0489,4.0489,4.0489,4.0489,4.0489,4.0489,4.0489,4.0489,4.0489,4.0489,4.0489,4.0489,4.0489,3.9616,3.6893,3.874,3.9554,3.6831,3.8801,4.0489,4.0489,4.0489,4.0489,4.0489,4.0489,4.0489,4.0489,4.0489,4.0489,4.0489,4.0489,4.0489,4.0489,4.0698,4.0802,4.0802,4.1057,4.164,4.252,4.2969,4.3693,4.4615,4.4615,4.4615,4.4615,4.4615,4.4654,4.4751,4.4886,4.494,4.5002,4.5781,4.6038,4.6062,4.6935,4.7941,4.8985,3.856,3.849,3.849,3.875,3.8683,3.8644,3.8777,3.8805,3.8805,3.8805,3.8805,3.9083,3.9804,3.9886,4.014,4.0732,4.0782,4.0707,4.0495,4.0511,4.0895,4.1745,4.0959,4.0187,3.9523,3.917,3.8996,3.901,4.0604,4.1389,4.1406,4.215,4.2745,4.3186,4.3047,4.2939,4.2907,4.3171,4.3018,4.2602,4.2586,4.2602,4.2602,4.2602,4.2602,4.2602,4.2602,4.2397,4.2045,4.172,4.1373,4.1037,4.0612,4.0489,4.0474,4.0474,4.0474,4.0474,4.0474,4.0474,4.0489,4.0489,4.0489,4.0489,4.0489,4.0489,4.0474,4.0474,4.0474,4.0474,4.0474,4.0474,4.0489,4.0489,4.0489,4.0489,4.0489,4.0489,4.0489,4.0489,4.0489,4.0489,4.0489,4.0489,4.0489,4.0489,4.0489,4.0489,4.0507,4.0507,4.0507,4.0507,4.1159,4.1509,4.1509,4.0853,4.1193,4.252,4.252,4.3259,4.4615,4.4615,4.4615,4.4615,4.4615,4.4615,4.4598,4.4734,4.4789,4.4803,4.4937,4.5086,4.5293,4.6028,4.6729,4.749,3.8448,3.8436,3.8436,3.8504,3.856,3.8616,3.8641,3.8752,3.8764,3.8655,3.8672,3.8711,3.8825,3.8857,3.8924,3.9095,3.9127,3.9307,3.9766,4.0252,4.0623,4.0879,4.0186,3.9928,4.0204,3.9135,3.886,3.9414,3.9893,4.0451,4.1064,4.1515,4.1793,4.1946,4.2149,4.2197,4.2114,4.191,4.2016,4.2283,4.2011,4.218,4.2602,4.2602,4.2602,4.2602,4.2602,4.2539,4.2365,4.1785,4.1539,4.1261,4.0141,3.9476,3.9091,3.9091,3.9091,3.9091,3.9091,3.9091,3.9322,4.0259,4.0153,3.9799,3.9799,3.943,3.9091,3.9091,3.9091,3.9091,3.9091,3.9091,3.9245,3.9722,3.9799,3.9968,4.0428,4.0489,4.0489,4.0489,4.0489,4.0489,4.0489,4.0418,4.0401,4.0489,4.0489,4.0715,4.1192,4.1107,4.1274,4.1754,4.1965,4.2061,4.2061,4.2411,4.2815,4.3212,4.3722,4.4179,4.4615,4.4615,4.4615,4.4615,4.4615,4.4615,4.4598,4.4734,4.4734,4.4696,4.5005,4.5113,4.5144,4.5944,4.6922,4.7957,3.8391,3.8391,3.8391,3.8391,3.8478,3.8518,3.8518,3.8725,3.8791,3.8546,3.8658,3.8672,3.8436,3.8391,3.8391,3.8391,3.8391,3.8586,3.9037,3.9428,3.98,4.009,3.9442,3.9394,4.009,3.9146,3.8791,3.9125,3.9441,3.9791,4.0159,4.0373,4.0536,4.0709,4.1228,4.1331,4.1128,4.1358,4.1469,4.1517,4.1249,4.1403,4.1776,4.1776,4.1776,4.1776,4.1776,4.1776,4.1668,4.1008,4.0588,4.0231,3.938,3.9014,3.8891,3.8891,3.8891,3.8891,3.8891,3.8691,3.8691,3.9507,3.9399,3.9091,3.9091,3.8784,3.8491,3.8491,3.8491,3.8491,3.8491,3.8491,3.863,3.903,3.9091,3.9245,3.9661,3.9937,4.0107,4.0107,4.0562,4.087,4.0817,4.0987,4.109,4.1139,4.119,4.1275,4.1409,4.1656,4.1852,4.1981,4.249,4.277,4.277,4.356,4.3796,4.3512,4.3958,4.4324,4.4615,4.4615,4.4615,4.4615,4.4615,4.4615,4.4615,4.4682,4.4668,4.4626,4.4927,4.5136,4.5341,4.5877,4.685,4.7938,3.8422,3.8391,3.8391,3.8391,3.8391,3.8391,3.8391,3.8711,3.8805,3.8448,3.8725,3.8807,3.8434,3.8391,3.8391,3.8391,3.8391,3.8391,3.8391,3.8391,3.8699,3.9361,3.8748,3.8699,3.9394,3.911,3.8807,3.8518,3.9206,3.9405,3.9118,3.9037,3.9195,3.9579,4.0264,4.0396,4.0117,4.1089,4.1111,4.0502,4.0444,4.0447,4.0511,4.0511,4.0511,4.0511,4.0511,4.0511,4.0407,3.98,3.9169,3.8633,3.86,3.8968,3.9414,3.9414,3.9414,3.9414,3.9414,3.8953,3.8491,3.8491,3.8491,3.8476,3.8414,3.8353,3.8307,3.8307,3.8307,3.8307,3.8307,3.8307,3.8353,3.8492,3.8491,3.8538,3.8661,3.9199,3.9616,3.9667,4.0749,4.1442,4.1374,4.1933,4.2238,4.2077,4.2222,4.2061,4.1507,4.2157,4.23,4.1771,4.2938,4.3571,4.3571,4.4267,4.425,4.3603,4.3603,4.3943,4.4615,4.4615,4.4615,4.4615,4.4615,4.4615,4.4615,4.4615,4.4615,4.4612,4.4817,4.5209,4.5724,4.5962,4.6711,4.7611,3.8462,3.8391,3.8391,3.8391,3.8391,3.8391,3.8391,3.8476,3.8504,3.8406,3.8476,3.8504,3.8406,3.8391,3.8391,3.8391,3.8391,3.8391,3.8391,3.8391,3.8472,3.8634,3.8489,3.8472,3.8634,3.8571,3.8805,3.9335,3.9209,3.9421,4.0011,3.9319,3.905,3.9131,3.8969,3.9213,3.9677,3.9309,3.9731,4.0613,3.9975,4.0025,4.0511,4.0511,4.0511,4.0511,4.0511,4.0511,4.0488,4.0325,4.005,3.9689,3.9392,3.9014,3.8707,3.8707,3.8707,3.8707,3.8707,3.8599,3.8491,3.8491,3.8491,3.8353,3.7846,3.7307,3.6923,3.6923,3.6923,3.6923,3.6923,3.6923,3.7277,3.8338,3.8491,3.8861,3.9922,4.0199,4.0446,4.087,4.1179,4.149,4.1899,4.2158,4.2174,4.1884,4.2142,4.2475,4.2849,4.2942,4.3202,4.3678,4.3958,4.4119,4.4119,4.444,4.4528,4.4352,4.4352,4.444,4.4615,4.4615,4.4615,4.4615,4.4615,4.4615,4.4615,4.4615,4.4615,4.4668,4.5258,4.5576,4.5825,4.6848,4.7392,4.7653,3.878,3.8683,3.8628,3.8434,3.856,3.8683,3.8683,3.886,3.8898,3.8711,3.8683,3.8614,3.8406,3.8391,3.8391,3.8391,3.8391,3.8391,3.8391,3.8391,3.8391,3.8391,3.8391,3.8391,3.8391,3.8391,3.8614,3.9034,3.8819,3.8958,3.9385,3.8931,3.8711,3.8711,3.8697,3.8805,3.902,3.8777,3.9032,3.957,3.9141,3.9199,3.9493,3.9493,3.9493,3.9493,3.9493,3.9615,3.984,4.0147,3.9944,3.954,3.9329,3.9132,3.8968,3.8968,3.8968,3.8968,3.8968,3.8738,3.8491,3.8491,3.8491,3.8399,3.8061,3.7707,3.7446,3.7446,3.7446,3.7446,3.7446,3.7446,3.7692,3.84,3.8491,3.8738,3.9445,4.0103,4.0457,4.0306,4.145,4.2444,4.2898,4.3021,4.2989,4.282,4.3079,4.3261,4.3306,4.3623,4.386,4.3929,4.425,4.444,4.444,4.4542,4.4615,4.4615,4.4615,4.4615,4.4615,4.4615,4.4615,4.4615,4.4615,4.4615,4.4615,4.4615,4.4734,4.4984,4.5498,4.5995,4.6507,4.731,4.7736,4.7975,3.9091,3.8996,3.8887,3.856,3.878,3.8996,3.8996,3.9219,3.9286,3.8942,3.8887,3.878,3.8434,3.8391,3.8391,3.8391,3.8391,3.8391,3.8391,3.8391,3.8391,3.8391,3.8391,3.8391,3.8391,3.8391,3.8434,3.8504,3.8434,3.8434,3.8504,3.842,3.8391,3.8406,3.8752,3.8752,3.8518,3.8794,3.8738,3.8504,3.842,3.8391,3.8391,3.8391,3.8391,3.8424,3.8537,3.8961,3.9528,4.0028,3.9881,3.9516,3.9387,3.9547,3.976,3.9693,3.9676,3.9676,3.9676,3.9261,3.883,3.883,3.883,3.883,3.883,3.8661,3.8491,3.8491,3.8491,3.8491,3.8491,3.8491,3.8538,3.8645,3.8661,3.8707,3.8797,3.9872,4.038,3.9716,4.1852,4.3474,4.3824,4.3883,4.3898,4.3898,4.4126,4.4018,4.3486,4.4167,4.4279,4.3706,4.4279,4.4615,4.4615,4.4615,4.4615,4.4615,4.4615,4.4615,4.4615,4.4615,4.4615,4.4615,4.4615,4.4654,4.472,4.472,4.4994,4.5472,4.5808,4.6472,4.7248,4.7583,4.7965,4.8277,3.9091,3.8996,3.8983,3.8928,3.8955,3.8996,3.8996,3.8752,3.853,3.849,3.8476,3.8462,3.8422,3.8391,3.8391,3.8391,3.8391,3.8391,3.8391,3.8391,3.8391,3.8391,3.8391,3.8391,3.8391,3.8391,3.8574,3.8914,3.8574,3.8588,3.8901,3.856,3.8391,3.8391,3.8448,3.8641,3.8887,3.8616,3.8641,3.889,3.8546,3.8391,3.8391,3.8391,3.8391,3.8472,3.9118,4.0173,4.1215,4.1019,4.1278,4.158,4.1006,4.0852,4.0812,4.0454,4.0351,4.0351,4.0351,4.029,4.023,4.023,4.023,4.023,4.023,3.9337,3.8491,3.8491,3.8491,3.8491,3.8491,3.8491,3.8691,3.9276,3.9368,3.9518,3.9979,4.0716,4.1266,4.1432,4.2692,4.3567,4.3643,4.3793,4.3898,4.3898,4.4041,4.4138,4.4164,4.4281,4.4367,4.444,4.4542,4.4615,4.4615,4.4615,4.4615,4.4615,4.4615,4.4615,4.4615,4.4615,4.4615,4.4615,4.4615,4.4824,4.5201,4.5201,4.5524,4.6061,4.6728,4.7077,4.7281,4.7957,4.82,4.8217,3.9816,3.9725,3.9648,3.9378,3.9553,3.9648,3.9378,3.9179,3.8993,3.8766,3.8738,3.8641,3.842,3.8391,3.8391,3.8391,3.8391,3.8391,3.8391,3.8391,3.8391,3.8391,3.8391,3.8391,3.8391,3.8391,3.849,3.8655,3.849,3.849,3.8655,3.8476,3.8391,3.8391,3.8391,3.8504,3.8641,3.8476,3.8504,3.8641,3.8476,3.8391,3.8391,3.8391,3.8391,3.8553,3.9669,4.0722,4.1599,4.1644,4.1741,4.1736,4.124,4.0952,4.073,4.0541,4.0489,4.0489,4.0489,4.0489,4.0489,4.0489,4.0489,4.0489,4.0489,4.0045,3.9614,3.9614,3.9614,3.9614,3.9614,3.9614,3.9722,4.0014,4.0061,4.0272,4.0891,4.1475,4.2142,4.2881,4.308,4.3279,4.3583,4.3778,4.3927,4.3998,4.414,4.4298,4.4454,4.4468,4.4514,4.4615,4.4615,4.4615,4.4615,4.4615,4.4615,4.4615,4.4615,4.4615,4.4615,4.4615,4.4615,4.4615,4.4615,4.472,4.493,4.5188,4.5627,4.6159,4.6873,4.7356,4.7702,4.8101,4.8179,4.809]}]]